     2              OBSERVATION DATA    GPS                 RINEX VERSION / TYPE
teqc 1998Oct22 19990528 20:30:45UTC                         PGM / RUN BY / DATE
                                                            COMMENT
Original Marker Name: CIS3                                  COMMENT
Campaign Name: rose canyon fault                            COMMENT
4-Character Station Name: CIS3                              COMMENT
6-Character Antenna Code: DMRCHT                            COMMENT
Vertical Measurement Point: BPA                             COMMENT
Vertical Offset to Rinex Ref. Point: 0.0000                 COMMENT
Radial Measurement Point: RRP                               COMMENT
Radial Offset to Rinex Ref. Point: 0.0000                   COMMENT
Antenna Height from Field Measurement: 0.8900 m             COMMENT
Additional Antenna Identification Info.:                    COMMENT
Turborogue and Ashtech Choke Ring                           COMMENT
Original XYZ: 0.0000 0.0000 0.0000                          COMMENT
New XYZ position is based on association with SCEC monument COMMENT
E1C8E8Z5+0011. Position of that monument is believed to be  COMMENT
valid to within 1 m horizontally; vertical accuracy         COMMENT
should be no worse than 3-times this value.                 COMMENT
                                                            COMMENT
Revised Rinex header created by UCSD GPS archive for        COMMENT
GSAC on 11-Jul-2003 (2003:192) 16:49:03 GMT                 COMMENT
For assistance contact dagnew@ucsd.edu or hjohnson@ucsd.edu COMMENT
                                                            COMMENT
CIS3                                                        MARKER NAME
SJB UCSD/CICESE                                             OBSERVER / AGENCY
312 ASHTECH Z12-XII3 1F50                                   REC # / TYPE / VERS
404 DORNE-MARGOL. TYPE T                                    ANT # / TYPE
 -2467574.7974 -4791384.6566  3399592.6568                  APPROX POSITION XYZ
        0.8900        0.0000        0.0000                  ANTENNA: DELTA H/E/N
     1     1     0                                          WAVELENGTH FACT L1/2
     7    C1    L1    L2    P1    P2    S1    S2            # / TYPES OF OBSERV
     0                                                      INTERVAL
  1999     5    27    16    49    0.000000                  TIME OF FIRST OBS
  1999     5    27    21    51    0.000000                  TIME OF LAST OBS
                                                            END OF HEADER
 99  5 27 16 49  0.0000000  0  5G24G 4G 5G 7G 9
                       244.000
        74.000
                       243.000
        74.000
  21894196.915     -278514.19449   -201027.02347  21894196.423    21894203.647
       234.000
                       192.000
       213.000          74.000
  21707597.692      -22497.70049    -16201.10447  21707597.803    21707604.860
       242.000         205.000
 99  5 27 16 49 29.9990000  0  7G24G 4G 5G 7G 8G 9G10
                       244.000
        74.000
                       242.000
        74.000
  21570805.496     -402528.41749   -297661.46047  21570805.322    21570812.148
       234.000         193.000
                     32667.36845                                  23661143.790
       213.000         144.000
  21631172.602     -269410.07549   -189450.67946  21631171.741    21631179.318
       231.000         187.000
  21406170.511      -31089.36449    -22895.96747  21406170.367    21406177.445
       241.000         206.000
                       207.000
        74.000
 99  5 27 16 50  0.0000000  0  8G24G 4G30G 5G 7G 8G 9G10
                       244.000
        74.000
                       242.000
        74.000
                  -1397476.72244                                  24573186.325
       205.000         115.000
  21600118.433    -1823909.43049  -1405231.05347  21600117.500    21600125.085
       234.000         194.000
  23716428.042    -1240845.24349   -968510.96945  23716428.458    23716438.703
       212.000         151.000
  21666948.168    -1656827.35549  -1270555.05247  21666947.834    21666955.253
       232.000         188.000
  21457496.348    -1336790.06149  -1040325.14147  21457496.334    21457503.552
       241.000         206.000
                       207.000
        74.000
 99  5 27 16 50 30.0000000  0  8G24G 4G30G 5G 7G 8G 9G10
                       245.000
        74.000
                       242.000
        74.000
  24554513.189    -1956056.80849  -1473898.82045  24554515.003    24554524.902
       207.000         135.000
  21586759.968    -1894107.79149  -1459931.04647  21586759.228    21586766.447
       235.000         195.000
  23729015.073    -1174701.92849   -916970.84345  23729014.795    23729024.844
       211.000         152.000
  21660124.942    -1692682.52949  -1298494.14347  21660124.588    21660132.685
       231.000         188.000
  21466204.806    -1291026.52949  -1004665.30747  21466204.646    21466211.909
       241.000         206.000
                       208.000
        74.000
 99  5 27 16 51  0.0000000  0  8G24G 4G30G 5G 7G 8G 9G10
                       244.000

                       242.000
        74.000
  24535854.117    -2054113.96249  -1550306.94245  24535855.591    24535863.872
       206.000         139.000
  21573453.231    -1964034.77449  -1514419.57447  21573452.789    21573460.109
       235.000         195.000
  23741619.575    -1108466.21749   -865358.72845  23741619.719    23741630.074
       212.000         152.000
  21653428.987    -1727869.89249  -1325912.86847  21653428.693    21653436.220
       231.000         188.000
  21475021.684    -1244693.53849   -968561.73547  21475021.752    21475029.055
       241.000         206.000
                       210.000
        74.000
 99  5 27 16 51 30.0000000  0  8G24G 4G30G 5G 7G 8G 9G10
  20375382.452    -1778099.60249   -948889.50247  20375382.356    20375390.124
       241.000         206.000
                       242.000
        74.000
  24517193.957    -2152174.89649  -1626717.98345  24517195.519    24517205.342
       204.000         139.000
  21560192.961    -2033717.62449  -1568717.86847  21560192.429    21560200.082
       237.000         195.000
  23754236.149    -1042166.64549   -813696.84945  23754236.334    23754246.427
       213.000         152.000
  21646855.326    -1762414.48849  -1352830.74547  21646854.994    21646862.366
       231.000         188.000
  21483942.518    -1197814.70049   -932032.82147  21483942.916    21483949.601
       228.000         204.000
                  -1250964.04944                                  24483008.369
       206.000         129.000
 99  5 27 16 52  0.0000000  0  8G24G 4G30G 5G 7G 8G 9G10
  20369237.481    -1810391.72449   -974052.12147  20369237.720    20369244.985
       227.000         207.000
                       242.000
        74.000
  24498531.486    -2250247.77049  -1703138.24545  24498532.149    24498541.154
       209.000         139.000
  21546973.317    -2103187.00249  -1622849.78147  21546972.481    21546980.098
       236.000         194.000
  23766859.427     -975831.54049   -762007.22945  23766860.115    23766869.239
       208.000         148.000
  21640398.307    -1796346.60549  -1379271.29947  21640398.034    21640405.081
       227.000         188.000
  21492962.530    -1150414.20449   -895097.37547  21492962.891    21492969.734
       225.000         192.000
  24465235.573    -2173115.64949  -1323685.58345  24465235.640    24465248.194
       206.000         132.000
 99  5 27 16 52 30.0000000  0  8G24G 4G30G 5G 7G 8G 9G10
  20363198.678    -1842125.78249   -998779.95347  20363198.731    20363206.140
       244.000         211.000
                       242.000
        74.000
  24479868.605    -2348322.44749  -1779559.98445  24479869.409    24479879.303
       208.000         141.000
  21533793.805    -2172445.49649  -1676817.41947  21533793.455    21533800.429
       235.000         195.000
  23779487.507     -909471.94249   -710298.59145  23779487.343    23779497.241
       212.000         151.000
  21634055.817    -1829676.87149  -1405242.95747  21634055.655    21634063.129
       232.000         188.000
  21502077.112    -1102516.96649   -857774.94047  21502077.302    21502084.536
       241.000         202.000
  24447468.172    -2266484.40349  -1396440.36645  24447466.461    24447481.352
       208.000         136.000
 99  5 27 16 53  0.0000000  0  8G24G 4G30G 5G 7G 8G 9G10
  20357264.357    -1873310.93849  -1023080.05748  20357264.549    20357272.016
       244.000         214.000
  20618673.321    -1097579.89949   -766354.43747  20618673.709    20618680.425
       242.000         203.000
  24461206.951    -2446390.42849  -1855976.50745  24461207.418    24461217.280
       206.000         142.000
  21520652.584    -2241502.89849  -1730628.36047  21520652.202    21520659.421
       235.000         195.000
  23792116.957     -843104.62149   -658583.92845  23792117.150    23792127.121
       212.000         152.000
  21627827.655    -1862406.21149  -1430746.34947  21627827.587    21627834.634
       232.000         189.000
  21511280.424    -1054153.65549   -820089.30847  21511280.600    21511287.993
       241.000         205.000
  24429691.316    -2359901.93749  -1469233.18145  24429691.197    24429704.657
       208.000         139.000
 99  5 27 16 53 30.0000000  0  8G24G 4G30G 5G 7G 8G 9G10
  20351432.682    -1903956.68949  -1046959.84448  20351432.956    20351440.525
       244.000         215.000
  20627196.026    -1052792.90349   -731455.50347  20627196.359    20627203.109
       243.000         209.000
  24442546.205    -2544453.12249  -1932388.91445  24442546.987    24442556.416
       209.000         144.000
  21507549.621    -2310359.36249  -1784282.72547  21507549.323    21507556.477
       236.000         195.000
  23804746.851     -776734.68749   -606867.21745  23804746.897    23804756.832
       210.000         152.000
  21621712.500    -1894541.50149  -1455786.83947  21621712.180    21621720.343
       232.000         189.000
  21520568.666    -1005343.83349   -782055.74647  21520568.800    21520576.172
       240.000         205.000
  24411901.091    -2453390.20549  -1542081.12345  24411900.523    24411914.175
       207.000         144.000
 99  5 27 16 54  0.0000000  0  8G24G 4G30G 5G 7G 8G 9G10
  20345701.192    -1934076.03049  -1070429.44048  20345701.074    20345708.994
       244.000         215.000
  20635810.590    -1007523.30449   -696180.51447  20635810.985    20635817.714
       243.000         210.000
  24423887.535    -2642504.68649  -2008792.63545  24423887.814    24423898.065
       210.000         143.000
  21494486.247    -2379007.91849  -1837775.08347  21494485.747    21494493.173
       235.000         196.000
  23817376.437     -710365.64249   -555151.21145  23817375.924    23817386.358
       209.000         152.000
  21615713.322    -1926067.70549  -1480352.71647  21615713.063    21615720.678
       232.000         189.000
  21529940.652     -956094.08249   -743679.38047  21529940.942    21529948.195
       241.000         205.000
  24394095.739    -2546957.93949  -1614990.92845  24394094.949    24394108.873
       201.000         146.000
 99  5 27 16 54 30.0000000  0  8G24G 4G30G 5G 7G 8G 9G10
  20340065.277    -1963692.73449  -1093507.36848  20340065.126    20340072.971
       244.000         215.000
  20644513.581     -961789.06849   -660543.46847  20644514.050    20644520.384
       242.000         210.000
  24405230.394    -2740548.55849  -2085190.36845  24405231.010    24405239.772
       210.000         144.000
  21481462.553    -2447447.80549  -1891104.84447  21481462.283    21481469.312
       236.000         196.000
  23830004.081     -644007.17749   -503443.44545  23830003.512    23830014.155
       209.000         151.000
  21609831.971    -1956974.57449  -1504435.99347  21609831.705    21609838.655
       232.000         189.000
  21539395.421     -906409.27549   -704964.01147  21539395.827    21539402.806
       240.000         204.000
  24376274.932    -2640606.55649  -1687963.75445  24376274.147    24376287.611
       202.000         146.000
 99  5 27 16 55  0.0000000  0  8G24G 4G30G 5G 7G 8G 9G10
  20334524.962    -1992807.27649  -1116194.00148  20334524.871    20334532.542
       244.000         215.000
  20653304.547     -915592.21749   -624545.94047  20653305.074    20653311.542
       242.000         210.000
  24386572.082    -2838598.37349  -2161592.71845  24386571.538    24386581.572
       208.000         144.000
  21468478.092    -2515681.60149  -1944274.01347  21468477.702    21468484.933
       236.000         196.000
  23842629.596     -577660.12549   -451744.56045  23842629.451    23842640.206
       212.000         150.000
  21604066.082    -1987274.55149  -1528046.36147  21604066.306    21604073.441
       232.000         189.000
  21548934.420     -856281.87149   -665903.75547  21548934.563    21548942.061
       241.000         204.000
  24358437.253    -2734343.89149  -1761005.72345  24358437.395    24358450.325
       205.000         147.000
 99  5 27 16 55 30.0000000  0  8G24G 4G30G 5G 7G 8G 9G10
  20329081.199    -2021414.43949  -1138485.27348  20329081.150    20329088.734
       244.000         215.000
  20662190.412     -868896.98749   -588160.06347  20662190.713    20662197.542
       242.000         210.000
  24367911.805    -2936658.59849  -2238003.20345  24367912.305    24367920.885
       210.000         145.000
  21455536.230    -2583691.39649  -1997268.63747  21455535.812    21455543.054
       236.000         196.000
  23855255.338     -511312.37649   -400045.13045  23855255.270    23855265.993
       212.000         150.000
  21598414.661    -2016972.88749  -1551187.91347  21598414.109    21598421.896
       232.000         190.000
  21558561.513     -805691.61449   -626482.83347  21558561.588    21558569.232
       240.000         204.000
  24340584.463    -2828160.79149  -1834109.71345  24340583.105    24340597.205
       204.000         148.000
 99  5 27 16 56  0.0000000  0  8G24G 4G30G 5G 7G 8G 9G10
  20323732.251    -2049523.34249  -1160388.29548  20323732.463    20323740.035
       244.000         216.000
  20671171.659     -821700.32049   -551383.46247  20671172.045    20671178.789
       242.000         210.000
  24349245.721    -3034748.98949  -2314437.17345  24349246.148    24349256.384
       210.000         145.000
  21442634.443    -2651490.45049  -2050099.05447  21442634.093    21442641.217
       236.000         196.000
  23867880.307     -444968.22549   -348348.51045  23867880.490    23867890.529
       211.000         151.000
  21592874.566    -2046086.08549  -1573873.51847  21592874.484    21592881.778
       232.000         190.000
  21568275.613     -754643.93749   -586705.48147  21568275.793    21568283.268
       240.000         204.000
  24322717.902    -2922050.18149  -1907270.16845  24322716.913    24322730.377
       205.000         147.000
 99  5 27 16 56 30.0000000  0  8G24G 4G30G 5G 7G 8G 9G10
  20318483.334    -2077106.78349  -1181881.86448  20318483.397    20318490.956
       244.000         216.000
  20680252.027     -773982.88349   -514201.06747  20680252.729    20680259.228
       242.000         210.000
  24330572.578    -3132876.64649  -2390900.19045  24330573.754    24330582.448
       211.000         146.000
  21429775.873    -2719062.62849  -2102752.68247  21429775.545    21429782.638
       236.000         197.000
  23880507.519     -378612.37849   -296642.77145  23880508.018    23880518.424
       210.000         151.000
  21587446.361    -2074611.75049  -1596101.30447  21587446.052    21587453.674
       233.000         190.000
  21578078.929     -703127.52249   -546562.88347  21578079.097    21578086.435
       240.000         204.000
  24304841.022    -3015993.71049  -1980472.82245  24304840.139    24304854.559
       205.000         146.000
 99  5 27 16 57  0.0000000  0  8G24G 4G30G 5G 7G 8G 9G10
  20313339.501    -2104137.67349  -1202944.87448  20313339.438    20313347.037
       244.000         215.000
  20689436.093     -725720.42649   -476593.97947  20689436.541    20689443.252
       243.000         210.000
  24311894.235    -3231031.74449  -2467384.59345  24311894.106    24311904.374
       211.000         147.000
  21416965.881    -2786379.49849  -2155207.36847  21416965.833    21416972.981
       235.000         197.000
  23893141.664     -312220.33149   -244908.84145  23893141.572    23893152.520
       211.000         152.000
  21582132.291    -2102537.51349  -1617861.63447  21582132.201    21582139.568
       233.000         190.000
  21587973.345     -651132.20749   -506047.11347  21587973.627    21587981.009
       240.000         204.000
  24286957.305    -3109972.90349  -2053703.26845  24286957.189    24286969.062
       203.000         144.000
 99  5 27 16 57 30.0000000  0  8G24G 4G30G 5G 7G 8G 9G10
  20308298.957    -2130625.88549  -1223585.02348  20308299.117    20308306.655
       245.000         216.000
  20698718.666     -676940.45449   -438583.63147  20698719.045    20698725.781
       242.000         209.000
  24293212.375    -3329205.54349  -2543883.56745  24293213.318    24293222.334
       209.000         148.000
  21404204.502    -2853440.86849  -2207462.96247  21404204.448    21404211.395
       236.000         197.000
  23905779.496     -245808.67249   -193159.61745  23905779.413    23905790.274
       213.000         151.000
  21576934.018    -2129854.90249  -1639147.90747  21576934.429    21576941.518
       235.000         190.000
  21597953.491     -598686.48549   -465180.37747  21597953.598    21597961.156
       240.000         204.000
  24269063.845    -3204003.24749  -2126973.56545  24269062.668    24269075.973
       202.000         144.000
 99  5 27 16 58  0.0000000  0  8G24G 4G30G 5G 7G 8G 9G10
  20303364.781    -2156555.32249  -1243789.76148  20303364.743    20303372.359
       244.000         216.000
  20708093.981     -627672.96749   -400193.40547  20708094.455    20708101.222
       242.000         209.000
  24274530.934    -3427377.23349  -2620380.86145  24274530.852    24274540.832
       209.000         148.000
  21391492.358    -2920243.71549  -2259517.11247  21391492.408    21391499.229
       236.000         198.000
  23918419.375     -179386.42749   -141402.14945  23918418.873    23918429.131
       211.000         150.000
  21571854.961    -2156545.78649  -1659946.00847  21571854.866    21571862.175
       233.000         191.000
  21608017.466     -545800.32549   -423970.44547  21608017.781    21608025.177
       240.000         204.000
  24251161.742    -3298078.98049  -2200279.22845  24251160.501    24251174.517
       204.000         146.000
 99  5 27 16 58 30.0000000  0  8G24G 4G30G 5G 7G 8G 9G10
  20298538.951    -2181915.26549  -1263550.73948  20298538.954    20298546.734
       244.000         216.000
  20717559.986     -577928.77749   -361431.72147  20717560.491    20717567.124
       242.000         209.000
  24255853.022    -3525530.18149  -2696863.58045  24255853.362    24255863.106
       211.000         148.000
  21378832.166    -2986773.69549  -2311358.63547  21378832.262    21378839.191
       236.000         198.000
  23931061.027     -112954.48549    -89637.12245  23931061.391    23931071.116
       211.000         150.000
  21566895.571    -2182607.87549  -1680254.13447  21566895.099    21566902.857
       233.000         191.000
  21618165.540     -492472.27249   -382416.18247  21618165.755    21618173.322
       240.000         204.000
  24233251.501    -3392197.56049  -2273618.27745  24233251.019    24233264.459
       206.000         148.000
 99  5 27 16 59  0.0000000  0  8G24G 4G30G 5G 7G 8G 9G10
  20293821.643    -2206705.03749  -1282867.43148  20293821.839    20293829.206
       244.000         216.000
  20727114.683     -527718.87749   -322307.14247  20727115.237    20727122.085
       242.000         209.000
  24237180.027    -3623657.15849  -2773326.07345  24237180.069    24237190.013
       211.000         148.000
  21366222.651    -3053037.54749  -2362992.78547  21366222.512    21366229.476
       237.000         198.000
  23943704.899      -46511.01349    -37863.11445  23943704.059    23943714.679
       211.000         149.000
  21562054.614    -2208047.38249  -1700077.13147  21562054.500    21562062.075
       233.000         191.000
  21628396.702     -438707.46249   -340521.58947  21628396.982    21628404.524
       240.000         203.000
  24215332.839    -3486360.10649  -2346991.59745  24215331.825    24215345.851
       208.000         149.000
 99  5 27 16 59 30.0000000  0  8G24G 4G30G 5G 7G 8G 9G10
  20289213.711    -2230920.07349  -1301736.27548  20289213.700    20289221.218
       245.000         216.000
  20736758.117     -477042.51449   -282819.08947  20736758.331    20736765.062
       242.000         209.000
  24218511.891    -3721758.43449  -2849768.50345  24218512.023    24218521.794
       213.000         149.000
  21353662.303    -3119042.54849  -2414425.23347  21353662.137    21353669.250
       238.000         199.000
  23956350.809       19943.39049     13919.41945  23956350.743    23956360.750
       212.000         149.000
  21557333.811    -2232855.48149  -1719408.12447  21557333.159    21557341.231
       234.000         191.000
  21638711.886     -384501.31349   -298283.10147  21638712.241    21638719.630
       240.000         203.000
  24197406.419    -3580563.61549  -2420396.83245  24197405.435    24197419.522
       210.000         150.000
 99  5 27 17  0  0.0000000  0  8G24G 4G30G 5G 7G 8G 9G10
  20284712.528    -2254573.88849  -1320167.80548  20284712.586    20284720.131
       245.000         216.000
  20746490.713     -425897.54249   -242965.88347  20746491.183    20746497.892
       242.000         209.000
  24199844.165    -3819857.59749  -2926209.30245  24199844.786    24199854.093
       213.000         149.000
  21341148.410    -3184803.49349  -2465667.50747  21341147.991    21341155.025
       237.000         199.000
  23968999.623       86412.73549     65713.59745  23968999.647    23969010.335
       212.000         149.000
  21552729.219    -2257053.03549  -1738263.36847  21552728.527    21552736.663
       234.000         191.000
  21649112.951     -329843.63449   -255692.76847  21649113.061    21649120.637
       239.000         203.000
  24179475.167    -3674792.84249  -2493822.11245  24179474.218    24179487.871
       209.000         148.000
 99  5 27 17  0 30.0000000  0  8G24G 4G30G 5G 7G 8G 9G10
  20280314.181    -2277687.48849  -1338178.39048  20280314.390    20280321.718
       244.000         216.000
  20756315.314     -374269.35249   -202736.14447  20756316.011    20756322.459
       242.000         208.000
  24181174.059    -3917969.48749  -3002660.01845  24181173.442    24181184.145
       216.000         149.000
  21328680.258    -3250324.08649  -2516722.50147  21328679.712    21328686.937
       237.000         199.000
  23981650.756      152894.14149    117517.16445  23981651.188    23981661.307
       208.000         149.000
  21548239.094    -2280648.93249  -1756649.78947  21548239.104    21548246.501
       233.000         191.000
  21659598.483     -274742.04949   -212756.54547  21659598.182    21659606.140
       240.000         203.000
  24161539.377    -3769045.79149  -2567265.90045  24161538.625    24161552.147
       210.000         149.000
 99  5 27 17  1  0.0000000  0  8G24G 4G30G 5G 7G 8G 9G10
  20276018.038    -2300263.96649  -1355770.43848  20276017.945    20276025.447
       244.000         216.000
  20766231.587     -322159.01149   -162130.70147  20766232.037    20766238.741
       242.000         208.000
  24162501.976    -4016091.86749  -3079118.93145  24162501.768    24162511.123
       213.000         149.000
  21316257.785    -3315604.64449  -2567590.45447  21316257.572    21316264.474
       237.000         199.000
  23994303.335      219383.30749    169326.78145  23994303.299    23994314.556
       214.000         149.000
  21543865.742    -2303631.11849  -1774557.99547  21543865.492    21543872.883
       233.000         191.000
  21670168.805     -219195.05949   -169473.25047  21670169.164    21670176.538
       240.000         203.000
  24143599.359    -3863320.99749  -2640727.01845  24143598.355    24143612.475
       213.000         150.000
 99  5 27 17  1 30.0000000  0  8G24G 4G30G 5G 7G 8G 9G10
  20271821.000    -2322319.47749  -1372956.54248  20271820.970    20271828.485
       244.000         216.000
  20776237.877     -269575.86249   -121156.83547  20776238.329    20776244.909
       242.000         208.000
  24143829.462    -4114216.10649  -3155579.28845  24143829.764    24143839.167
       212.000         149.000
  21303880.895    -3380645.70749  -2618271.78047  21303880.251    21303887.679
       237.000         200.000
  24006954.569      285865.06649    221130.62445  24006954.092    24006965.438
       211.000         149.000
  21539610.089    -2325994.78149  -1791984.23147  21539609.878    21539617.259
       233.000         191.000
  21680823.875     -163202.90349   -125843.07547  21680824.238    21680831.796
       239.000         203.000
  24125657.956    -3957603.35449  -2714193.70045  24125657.425    24125670.783
       210.000         152.000
 99  5 27 17  2  0.0000000  0  8G24G 4G30G 5G 7G 8G 9G10
  20267721.145    -2343864.27849  -1389744.68748  20267721.488    20267728.905
       244.000         216.000
  20786331.443     -216533.99849    -79825.52547  20786331.982    20786338.443
       242.000         208.000
  24125157.914    -4212335.03549  -3232035.50645  24125158.151    24125168.550
       211.000         149.000
  21291548.011    -3445455.37349  -2668772.79947  21291547.778    21291554.784
       238.000         200.000
  24019601.538      352325.05649    272917.50345  24019601.436    24019612.577
       210.000         149.000
  21535470.156    -2347750.32449  -1808936.61047  21535470.074    21535477.522
       234.000         191.000
  21691561.697     -106775.48749    -81873.72747  21691561.964    21691569.470
       239.000         202.000
  24107714.407    -4051897.02749  -2787669.18845  24107713.737    24107726.904
       208.000         150.000
 99  5 27 17  2 30.0000000  0  8G24G 4G30G 5G 7G 8G 9G10
  20263719.862    -2364891.47249  -1406129.50148  20263719.979    20263727.441
       244.000         216.000
  20796510.367     -163043.58549    -38144.69547  20796510.595    20796517.305
       242.000         208.000
  24106490.007    -4310434.86549  -3308476.82945  24106490.284    24106499.516
       214.000         149.000
  21279259.624    -3510031.19949  -2719091.60347  21279259.405    21279266.602
       238.000         200.000
  24032245.095      418767.12749    324690.42645  24032244.823    24032255.545
       211.000         148.000
  21531448.603    -2368883.73349  -1825404.21047  21531448.089    21531456.001
       234.000         192.000
  21702380.400      -49923.13549    -37573.26947  21702380.455    21702388.067
       239.000         202.000
  24089765.298    -4146219.96549  -2861167.48245  24089764.653    24089778.021
       210.000         148.000
 99  5 27 17  3  0.0000000  0  8G24G 4G30G 5G 7G 8G 9G10
  20259819.618    -2385387.38149  -1422100.32848  20259819.679    20259827.054
       244.000         216.000
  20806771.133     -109122.94649      3871.37047  20806771.502    20806778.159
       242.000         208.000
  24087826.405    -4408512.48449  -3384900.85845  24087826.944    24087836.625
       212.000         150.000
  21267014.664    -3574378.92149  -2769232.66547  21267014.442    21267021.565
       238.000         200.000
  24044885.389      485192.00749    376449.95345  24044884.643    24044894.766
       210.000         148.000
  21527544.380    -2389400.62849  -1841391.41847  21527543.802    21527551.911
       233.000         191.000
  21713280.275        7355.97749      7059.73347  21713280.519    21713288.051
       239.000         202.000
  24071811.035    -4240569.67049  -2934686.65645  24071810.203    24071823.375
       211.000         146.000
 99  5 27 17  3 30.0000000  0  8G24G 4G30G 5G 7G 8G 9G10
  20256019.022    -2405359.66249  -1437663.13348  20256018.850    20256026.376
       244.000         216.000
  20817113.657      -54772.70149     46222.19847  20817113.982    20817120.786
       242.000         208.000
  24069166.144    -4506572.20949  -3461310.94345  24069165.883    24069175.554
       212.000         150.000
  21254811.517    -3638507.03049  -2819202.60047  21254811.360    21254818.415
       239.000         200.000
  24057522.672      551601.12749    428197.20445  24057522.484    24057533.840
       210.000         148.000
  21523756.605    -2409305.40949  -1856901.63247  21523756.104    21523764.143
       233.000         191.000
  21724259.117       65049.75949     52015.85847  21724259.548    21724267.092
       239.000         202.000
  24053851.150    -4334949.35049  -3008229.19645  24053850.596    24053863.141
       213.000         145.000
 99  5 27 17  4  0.0000000  0  8G24G 4G30G 5G 7G 8G 9G10
  20252317.590    -2424810.82149  -1452819.86848  20252317.672    20252325.166
       244.000         216.000
  20827538.361           9.28649     88909.44047  20827538.785    20827545.398
       242.000         208.000
  24050508.301    -4604618.95049  -3537710.90545  24050508.509    24050518.834
       212.000         151.000
  21242650.670    -3702412.66549  -2868999.17747  21242650.369    21242657.591
       238.000         201.000
  24070160.306      618011.51749    479945.43745  24070160.025    24070170.793
       210.000         148.000
  21520083.572    -2428607.22149  -1871942.00947  21520083.466    21520090.813
       233.000         192.000
  21735315.949      123153.43349     97291.37347  21735316.194    21735324.017
       239.000         201.000
  24035881.007    -4429383.06249  -3081813.84345  24035880.346    24035893.580
       213.000         146.000
 99  5 27 17  4 30.0000000  0  8G24G 4G30G 5G 7G 8G 9G10
  20248717.099    -2443731.41749  -1467563.17648  20248717.105    20248724.582
       244.000         216.000
  20838047.477       55235.04649    131942.48147  20838047.980    20838054.747
       242.000         208.000
  24031854.347    -4702646.04349  -3614095.55145  24031854.613    24031864.118
       212.000         152.000
  21230536.760    -3766071.62749  -2918603.54547  21230536.415    21230543.729
       239.000         201.000
  24082800.071      684433.30249    531702.55345  24082800.414    24082811.470
       211.000         148.000
  21516524.220    -2447311.97949  -1886517.15747  21516523.761    21516531.649
       234.000         192.000
  21746452.071      181673.84449    142891.61847  21746452.194    21746459.874
       239.000         201.000
  24017904.261    -4523851.39749  -3155425.44545  24017903.501    24017917.318
       211.000         146.000
 99  5 27 17  5  0.0000000  0  8G24G 4G30G 5G 7G 8G 9G10
  20245217.425    -2462122.43649  -1481893.82748  20245217.598    20245224.946
       244.000         216.000
  20848643.861      110919.25349    175332.75547  20848644.114    20848650.855
       242.000         208.000
  24013204.677    -4800650.57949  -3690462.60945  24013204.944    24013214.024
       213.000         152.000
  21218471.257    -3829476.45249  -2968009.88247  21218470.848    21218477.922
       239.000         201.000
  24095439.948      750855.36649    583459.89145  24095439.095    24095450.204
       211.000         148.000
  21513076.848    -2465428.35349  -1900633.82247  21513076.237    21513084.160
       234.000         192.000
  21757667.273      240609.78549    188815.65447  21757667.700    21757675.073
       239.000         201.000
  23999925.617    -4618329.67749  -3229044.80245  23999925.068    23999937.732
       213.000         146.000
 99  5 27 17  5 30.0000000  0  8G24G 4G30G 5G 7G 8G 9G10
  20241815.675    -2479998.86849  -1495823.50448  20241815.643    20241823.288
       244.000         216.000
  20859330.082      167075.83249    219091.11147  20859330.546    20859337.040
       242.000         207.000
  23994561.161    -4898622.74249  -3766804.44445  23994561.421    23994570.448
       213.000         153.000
  21206455.043    -3892622.16449  -3017214.31647  21206454.807    21206461.982
       239.000         201.000
  24108081.930      817288.52749    635225.86945  24108081.552    24108093.271
       211.000         148.000
  21509742.679    -2482949.42549  -1914286.61547  21509742.455    21509750.215
       233.000         192.000
  21768962.409      299965.50049    235066.79347  21768962.831    21768970.093
       240.000         201.000
  23981943.755    -4712824.86749  -3302677.37245  23981942.557    23981955.640
       215.000         146.000
 99  5 27 17  6  0.0000000  0  8G24G 4G30G 5G 7G 8G 9G10
  20238511.352    -2497363.13149  -1509354.08548  20238511.360    20238518.909
       244.000         216.000
  20870101.753      223681.20149    263199.17447  20870102.239    20870109.042
       242.000         207.000
  23975921.372    -4996575.32449  -3843131.02945  23975921.675    23975931.000
       213.000         153.000
  21194488.308    -3955507.77849  -3066216.07847  21194487.841    21194495.277
       240.000         202.000
  24120722.155      883712.67849    686984.83845  24120721.402    24120732.721
       209.000         147.000
  21506516.990    -2499900.49049  -1927495.24447  21506516.389    21506524.071
       235.000         192.000
  21780334.265      359724.48049    281632.16247  21780334.738    21780342.260
       239.000         201.000
  23963957.082    -4807345.43549  -3376329.69745  23963956.208    23963969.338
       214.000         147.000
 99  5 27 17  6 30.0000000  0  8G24G 4G30G 5G 7G 8G 9G10
  20235311.419    -2514179.00549  -1522457.35348  20235311.615    20235318.988
       244.000         216.000
  20880961.686      280750.45549    307668.70347  20880961.861    20880968.822
       242.000         207.000
  23957290.618    -5094480.05749  -3919420.32545  23957290.953    23957300.265
       211.000         154.000
  21182575.950    -4018107.52149  -3114995.08547  21182575.618    21182582.789
       240.000         202.000
  24133361.902      950134.67849    738742.13145  24133361.791    24133373.150
       209.000         147.000
  21503406.527    -2516246.02349  -1940232.03147  21503406.072    21503413.844
       234.000         192.000
  21791786.896      419908.01249    328528.34247  21791787.020    21791794.658
       239.000         201.000
  23945974.853    -4901842.32149  -3449963.54445  23945973.787    23945987.264
       212.000         147.000
 99  5 27 17  7  0.0000000  0  8G24G 4G30G 5G 7G 8G 9G10
  20232212.214    -2530465.46249  -1535148.08748  20232212.331    20232219.852
       244.000         216.000
  20891903.176      338248.18149    352472.10947  20891903.566    20891910.346
       242.000         207.000
  23938666.931    -5192348.23349  -3995681.13645  23938667.066    23938677.266
       214.000         154.000
  21170715.026    -4080436.97549  -3163563.48047  21170714.809    21170721.754
       239.000         202.000
  24146000.562     1016551.01649    790495.00345  24146000.442    24146011.406
       208.000         146.000
  21500413.807    -2531973.05549  -1952486.87347  21500413.723    21500421.098
       234.000         192.000
  21803316.167      480494.37649    375738.41947  21803316.648    21803324.058
       238.000         200.000
  23927993.711    -4996333.34049  -3523592.79345  23927993.015    23928006.267
       213.000         150.000
 99  5 27 17  7 30.0000000  0  8G24G 4G30G 5G 7G 8G 9G10
  20229214.519    -2546218.47049  -1547423.14448  20229214.526    20229221.918
       244.000         216.000
  20902922.013      396152.54049    397592.37647  20902922.588    20902929.139
       242.000         207.000
  23920049.592    -5290182.97849  -4071915.89545  23920050.254    23920058.992
       213.000         154.000
  21158907.975    -4142483.38249  -3211911.31847  21158907.723    21158914.622
       239.000         202.000
  24158638.875     1082965.54049    842246.46345  24158639.032    24158650.323
       209.000         145.000
  21497539.199    -2547079.31849  -1964257.99747  21497538.864    21497546.689
       234.000         192.000
  21814921.405      541480.23549    423259.79247  21814921.764    21814929.270
       239.000         200.000
  23910012.990    -5090822.64449  -3597220.69945  23910012.273    23910025.382
       212.000         151.000
 99  5 27 17  8  0.0000000  0  8G24G 4G30G 5G 7G 8G 9G10
  20226321.187    -2561422.71249  -1559270.59648  20226321.109    20226328.609
       244.000         216.000
  20914017.187      454457.75149    443024.98447  20914017.727    20914024.208
       242.000         207.000
  23901437.929    -5387987.53449  -4148127.15145  23901438.568    23901447.467
       213.000         154.000
  21147157.056    -4204234.95749  -3260029.41547  21147156.998    21147163.864
       240.000         203.000
  24171275.325     1149369.95049    893990.04745  24171274.805    24171286.624
       209.000         146.000
  21494783.610    -2561560.11849  -1975541.75547  21494783.321    21494791.123
       234.000         192.000
  21826600.773      602855.19549    471084.35647  21826601.318    21826608.904
       239.000         200.000
  23892037.609    -5185283.71549  -3670826.61745  23892036.927    23892049.980
       211.000         150.000
 99  5 27 17  8 30.0000000  0  8G24G 4G30G 5G 7G 8G 9G10
  20223529.118    -2576094.96449  -1570703.50648  20223529.022    20223536.630
       244.000         216.000
  20925187.197      513156.37049    488764.14747  20925187.604    20925194.191
       242.000         207.000
  23882830.139    -5485771.39849  -4224322.26445  23882830.331    23882839.129
       213.000         154.000
  21135460.174    -4265702.63949  -3307926.29747  21135459.906    21135467.062
       240.000         203.000
  24183911.815     1215774.88549    945734.05145  24183911.446    24183923.115
       208.000         146.000
  21492149.874    -2575400.56949  -1986326.53047  21492149.495    21492157.175
       235.000         192.000
  21838354.100      664618.89449    519211.84147  21838354.322    21838362.023
       238.000         200.000
  23874067.682    -5279715.70349  -3744409.87945  23874067.097    23874078.768
       210.000         148.000
 99  5 27 17  9  0.0000000  0  8G24G 4G30G 5G 7G 8G 9G10
  20220839.376    -2590229.70349  -1581717.57848  20220839.464    20220846.996
       244.000         216.000
  20936434.336      572260.19549    534819.05447  20936434.888    20936441.477
       242.000         207.000
  23864225.270    -5583540.16849  -4300505.61745  23864225.900    23864234.449
       214.000         155.000
  21123818.352    -4326880.87849  -3355597.63347  21123818.215    21123825.101
       239.000         203.000
  24196551.407     1282195.81649    997490.50845  24196551.326    24196562.539
       209.000         146.000
  21489637.102    -2588605.49449  -1996616.09547  21489637.114    21489644.486
       234.000         193.000
  21850181.907      726774.02749    567644.34247  21850182.034    21850189.991
       238.000         199.000
  23856103.019    -5374119.87949  -3817971.46645  23856101.884    23856113.951
       210.000         146.000
 99  5 27 17  9 30.0000000  0  8G24G 4G30G 5G 7G 8G 9G10
  20218253.490    -2603818.66749  -1592306.36948  20218253.544    20218261.061
       244.000         216.000
  20947762.774      631791.36549    581206.95747  20947763.175    20947769.951
       242.000         207.000
  23845621.567    -5681303.34149  -4376684.61345  23845621.710    23845631.243
       214.000         155.000
  21112229.704    -4387779.43649  -3403051.03647  21112229.198    21112236.444
       239.000         203.000
  24209192.940     1348626.69849   1049254.72745  24209192.315    24209203.908
       209.000         145.000
  21487241.400    -2601195.15449  -2006426.23747  21487241.053    21487248.871
       234.000         193.000
  21862083.736      789318.40749    616380.14947  21862083.854    21862091.519
       238.000         199.000
  23838143.714    -5468495.85049  -3891511.08245  23838143.207    23838155.506
       211.000         148.000
 99  5 27 17 10  0.0000000  0  8G24G 4G30G 5G 7G 8G 9G10
  20215771.928    -2616859.44249  -1602467.99948  20215772.102    20215779.427
       244.000         216.000
  20959175.196      691764.01549    627938.86947  20959175.435    20959182.308
       242.000         206.000
  23827021.662    -5779046.29449  -4452847.85445  23827021.566    23827030.938
       213.000         156.000
  21100694.082    -4448399.54849  -3450287.46747  21100693.754    21100701.084
       239.000         203.000
  24221838.981     1415081.89549   1101037.88545  24221838.940    24221850.645
       208.000         145.000
  21484964.725    -2613159.23249  -2015748.90947  21484964.728    21484972.244
       234.000         193.000
  21874062.066      852264.72149    665429.15147  21874062.242    21874069.970
       238.000         199.000
  23820191.100    -5562837.02349  -3965023.55945  23820190.315    23820203.451
       211.000         149.000
 99  5 27 17 10 30.0000000  0  8G24G 4G30G 5G 7G 8G 9G10
  20213395.879    -2629345.80549  -1612197.61748  20213395.977    20213403.462
       244.000         216.000
  20970674.258      752191.99149    675025.57947  20970674.784    20970681.436
       242.000         206.000
  23808429.928    -5876746.43549  -4528977.74445  23808430.537    23808439.123
       214.000         156.000
  21089213.829    -4508728.73849  -3497297.20647  21089213.441    21089220.934
       239.000         204.000
  24234492.372     1481575.73049   1152851.15145  24234492.310    24234503.492
       208.000         144.000
  21482810.136    -2624482.02549  -2024571.87847  21482809.910    21482817.735
       234.000         193.000
  21886119.108      915624.81149    714800.57847  21886118.995    21886127.362
       238.000         198.000
  23802245.630    -5657140.44649  -4038506.63145  23802243.929    23802258.388
       208.000         150.000
 99  5 27 17 11  0.0000000  0  8G24G 4G30G 5G 7G 8G 9G10
  20211121.782    -2641296.16149  -1621509.57448  20211121.812    20211129.331
       244.000         216.000
  20982260.567      813078.14649    722469.30647  20982261.043    20982267.631
       242.000         206.000
  23789846.605    -5974402.32949  -4605073.14345  23789847.062    23789855.437
       214.000         157.000
  21077787.401    -4568775.03249  -3544086.50747  21077787.182    21077794.122
       240.000         204.000
  24247148.011     1548080.75049   1204673.14045  24247147.599    24247159.026
       208.000         144.000
  21480772.994    -2635187.45849  -2032913.78847  21480772.820    21480780.036
       234.000         193.000
  21898249.227      979368.82049    764471.15647  21898249.467    21898257.495
       237.000         199.000
  23784305.920    -5751413.40349  -4111965.93545  23784304.798    23784318.159
       208.000         149.000
 99  5 27 17 11 30.0000000  0  8G24G 4G30G 5G 7G 8G 9G10
  20208944.888    -2652735.89049  -1630423.63548  20208944.929    20208952.360
       244.000         216.000
  20993931.134      874407.35149    770258.26547  20993931.574    20993938.395
       242.000         206.000
  23771271.925    -6072012.72649  -4681133.09045  23771272.790    23771281.241
       215.000         157.000
  21066413.680    -4628544.14549  -3590659.82947  21066413.475    21066420.230
       239.000         204.000
  24259801.461     1614574.73749   1256486.51845  24259802.348    24259813.522
       207.000         144.000
  21478852.438    -2645280.12449  -2040778.22047  21478852.230    21478859.748
       235.000         193.000
  21910449.571     1043481.63049    814429.11447  21910449.671    21910457.839
       238.000         199.000
  23766370.174    -5845666.05549  -4185409.43345  23766369.505    23766382.711
       212.000         152.000
 99  5 27 17 12  0.0000000  0  8G24G 4G30G 5G 7G 8G 9G10
  20206861.846    -2663682.45349  -1638953.41348  20206861.881    20206869.331
       244.000         216.000
  21005681.436      936155.37649    818373.57647  21005681.969    21005688.488
       241.000         206.000
  23752706.963    -6169572.05349  -4757153.27645  23752707.693    23752716.722
       216.000         157.000
  21055094.402    -4688027.38049  -3637010.37847  21055094.092    21055101.164
       239.000         204.000
  24272450.599     1681045.74149   1308281.99545  24272449.873    24272461.726
       208.000         144.000
  21477048.182    -2654761.75849  -2048166.51747  21477047.719    21477055.628
       235.000         193.000
  21922718.328     1107953.81349    864667.11047  21922718.708    21922726.574
       237.000         199.000
  23748438.204    -5939899.22149  -4258837.75945  23748436.909    23748450.034
       211.000         154.000
 99  5 27 17 12 30.0000000  0  8G24G 4G30G 5G 7G 8G 9G10
  20204874.616    -2674125.57049  -1647090.89748  20204874.706    20204881.999
       244.000         216.000
  21017513.143      998331.14349    866822.18747  21017513.518    21017520.283
       242.000         206.000
  23734152.270    -6267077.49349  -4833131.45445  23734152.638    23734161.256
       216.000         158.000
  21043831.630    -4747213.60249  -3683129.49647  21043831.429    21043838.112
       240.000         204.000
  24285096.496     1747499.90949   1360064.34645  24285096.348    24285108.205
       206.000         143.000
  21475361.552    -2663624.96549  -2055072.92847  21475361.087    21475368.798
       235.000         193.000
  21935054.346     1172779.50749    915180.56447  21935054.718    21935062.618
       238.000         198.000
  23730512.769    -6034097.72549  -4332239.05845  23730511.898    23730524.685
       210.000         153.000
 99  5 27 17 13  0.0000000  0  8G24G 4G30G 5G 7G 8G 9G10
  20202982.697    -2684067.76749  -1654838.04948  20202982.716    20202990.208
       245.000         216.000
  21029421.095     1060907.72249    915583.11647  21029421.604    21029428.536
       241.000         206.000
  23715603.642    -6364551.17249  -4909084.89645  23715604.269    23715612.838
       217.000         158.000
  21032623.554    -4806112.38949  -3729024.63747  21032623.328    21032630.255
       240.000         204.000
  24297737.821     1813929.85749   1411827.82645  24297738.116    24297750.417
       208.000         143.000
  21473786.575    -2671901.60849  -2061522.27647  21473786.187    21473794.083
       235.000         193.000
  21947455.521     1237947.84749    965961.01247  21947455.573    21947463.293
       237.000         198.000
  23712591.562    -6128273.70249  -4405622.80445  23712591.175    23712604.018
       212.000         153.000
 99  5 27 17 13 30.0000000  0  8G24G 4G30G 5G 7G 8G 9G10
  20201194.444    -2693465.23949  -1662160.74548  20201194.664    20201201.952
       244.000         216.000
  21041405.206     1123884.60449    964655.97047  21041405.568    21041412.595
       241.000         206.000
  23697064.840    -6461973.01249  -4984997.93745  23697066.093    23697073.239
       216.000         158.000
  21021474.912    -4864698.92549  -3774676.46747  21021474.556    21021481.795
       240.000         204.000
  24310382.436     1880376.67849   1463604.44645  24310382.313    24310393.044
       209.000         143.000
  21472327.922    -2679566.98449  -2067495.30547  21472327.547    21472335.319
       235.000         193.000
  21959928.592     1303493.99149   1017035.85647  21959929.067    21959936.855
       237.000         198.000
  23694678.726    -6222406.00449  -4478972.54545  23694678.066    23694690.463
       213.000         154.000
 99  5 27 17 14  0.0000000  0  8G24G 4G30G 5G 7G 8G 9G10
  20199512.421    -2702304.34549  -1669048.34948  20199512.289    20199519.686
       244.000         216.000
  21053466.086     1187264.71649   1014043.02947  21053466.728    21053473.468
       241.000         206.000
  23678537.510    -6559334.95449  -5060864.30045  23678538.079    23678545.893
       217.000         158.000
  21010386.456    -4922969.06349  -3820081.75247  21010385.982    21010393.291
       240.000         205.000
  24323034.582     1946863.56249   1515412.29045  24323034.274    24323046.438
       209.000         142.000
  21470987.245    -2686612.38349  -2072985.23347  21470986.785    21470994.756
       235.000         193.000
  21972474.861     1369424.54749   1068410.24747  21972474.962    21972482.989
       237.000         198.000
  23676774.299    -6316494.02449  -4552287.75245  23676774.010    23676786.526
       210.000         155.000
 99  5 27 17 14 30.0000000  0  8G24G 4G30G 5G 7G 8G 9G10
  20197938.261    -2710576.62149  -1675494.27248  20197938.258    20197945.618
       244.000         216.000
  21065605.313     1251056.46649   1063750.84047  21065605.715    21065612.604
       242.000         206.000
  23660023.191    -6656628.06549  -5136677.04845  23660023.826    23660031.687
       216.000         159.000
  20999358.266    -4980922.64149  -3865240.36947  20999358.057    20999365.102
       240.000         205.000
  24335698.557     2013413.36849   1567269.17345  24335698.826    24335710.167
       209.000         142.000
  21469767.380    -2693023.15949  -2077980.65547  21469767.110    21469775.171
       235.000         193.000
  21985095.571     1435746.34549   1120089.49347  21985095.775    21985103.310
       237.000         197.000
  23658878.482    -6410536.78949  -4625567.67145  23658877.330    23658890.627
       212.000         157.000
 99  5 27 17 15  0.0000000  0  8G24G 4G30G 5G 7G 8G 9G10
  20196470.596    -2718288.90349  -1681503.83648  20196470.684    20196478.198
       245.000         216.000
  21077820.638     1315248.23949   1113770.36247  21077821.058    21077827.827
       242.000         205.000
  23641522.260    -6753850.98349  -5212435.08945  23641522.854    23641531.446
       217.000         159.000
  20988389.430    -5038564.35649  -3910155.97947  20988389.041    20988396.284
       240.000         205.000
  24348371.985     2080012.22349   1619164.26845  24348371.203    24348383.395
       206.000         141.000
  21468667.205    -2698804.73749  -2082485.79847  21468667.081    21468674.319
       235.000         193.000
  21997791.854     1502465.49049   1172078.36047  21997792.015    21997799.906
       237.000         197.000
  23640989.451    -6504543.86249  -4698819.79845  23640988.264    23641001.099
       213.000         157.000
 99  5 27 17 15 30.0000000  0  8G24G 4G30G 5G 7G 8G 9G10
  20195104.831    -2725466.22449  -1687096.54848  20195104.890    20195112.319
       244.000         216.000
  21090109.923     1379828.64249   1164092.70647  21090110.450    21090117.106
       241.000         205.000
  23623035.286    -6851000.54349  -5288135.96245  23623035.133    23623043.873
       217.000         159.000
  20977476.100    -5095914.19749  -3954844.15447  20977476.056    20977482.963
       240.000         205.000
  24361050.273     2146636.36749   1671079.07245  24361050.116    24361061.143
       208.000         140.000
  21467688.290    -2703949.19549  -2086494.48247  21467688.019    21467695.563
       235.000         193.000
  22010559.991     1569562.10549   1224361.36747  22010560.296    22010568.266
       237.000         197.000
  23623105.875    -6598522.39749  -4772049.69445  23623105.344    23623118.062
       215.000         157.000
 99  5 27 17 16  0.0000000  0  8G24G 4G30G 5G 7G 8G 9G10
  20193837.089    -2732128.28249  -1692287.75548  20193837.127    20193844.480
       244.000         216.000
  21102473.636     1444800.26149   1214719.89247  21102474.071    21102480.997
       240.000         205.000
  23604561.354    -6948081.24249  -5363783.17945  23604561.082    23604570.452
       216.000         159.000
  20966618.220    -5152972.82649  -3999305.41047  20966617.962    20966624.958
       240.000         206.000
  24373730.617     2213271.38149   1723002.34345  24373730.497    24373742.146
       207.000         140.000
  21466829.892    -2708460.26549  -2090009.62047  21466829.473    21466837.155
       235.000         193.000
  22023398.664     1637029.65549   1276933.40647  22023398.968    22023406.798
       237.000         197.000
  23605229.766    -6692461.71249  -4845249.02745  23605228.990    23605241.456
       214.000         157.000
 99  5 27 17 16 30.0000000  0  8G24G 4G30G 5G 7G 8G 9G10
  20192666.959    -2738277.41049  -1697079.27448  20192667.127    20192674.372
       245.000         216.000
  21114907.301     1510139.53749   1265633.56847  21114907.664    21114914.729
       241.000         204.000
  23586099.595    -7045098.09349  -5439380.65445  23586099.953    23586108.795
       217.000         159.000
  20955814.943    -5209744.40149  -4043542.98647  20955814.701    20955821.730
       240.000         206.000
  24386408.665     2279894.69549   1774916.49845  24386408.031    24386420.072
       208.000         141.000
  21466088.417    -2712356.66349  -2093045.79347  21466088.176    21466095.484
       236.000         193.000
  22036305.992     1704857.94649   1329786.54347  22036306.023    22036314.088
       237.000         197.000
  23587366.201    -6786334.87649  -4918396.79345  23587365.227    23587377.619
       215.000         157.000
 99  5 27 17 17  0.0000000  0  8G24G 4G30G 5G 7G 8G 9G10
  20191598.741    -2743891.11749  -1701453.58548  20191598.967    20191606.184
       244.000         216.000
  21127411.518     1575849.34949   1316835.97047  21127412.097    21127418.891
       241.000         204.000
  23567651.916    -7142041.10249  -5514920.58045  23567652.164    23567660.817
       218.000         160.000
  20945068.178    -5266218.95949  -4087549.11647  20945067.801    20945074.897
       240.000         206.000
  24399082.261     2346494.04249   1826811.97845  24399082.027    24399092.825
       206.000         140.000
  21465464.374    -2715636.29449  -2095601.36847  21465464.128    21465471.822
       235.000         193.000
  22049283.479     1773055.03549   1382927.05247  22049283.619    22049291.871
       236.000         196.000
  23569520.351    -6880115.00349  -4991472.06745  23569519.691    23569531.163
       213.000         159.000
 99  5 27 17 17 30.0000000  0  8G24G 4G30G 5G 7G 8G 9G10
  20190630.861    -2748977.57049  -1705417.04548  20190630.697    20190638.191
       244.000         216.000
  21139985.788     1641927.36249   1368325.27947  21139986.202    21139993.019
       241.000         204.000
  23549217.472    -7238914.52049  -5590406.28445  23549217.536    23549226.115
       219.000         160.000
  20934379.854    -5322386.39449  -4131315.92947  20934379.691    20934386.489
       240.000         206.000
  24411754.849     2413088.22449   1878703.43545  24411755.184    24411766.330
       207.000         140.000
  21464956.247    -2718306.53649  -2097682.09847  21464955.920    21464963.305
       236.000         193.000
  22062328.543     1841607.30549   1436344.32847  22062328.548    22062336.511
       236.000         196.000
  23551694.090    -6973792.33849  -5064467.24145  23551693.042    23551705.603
       215.000         159.000
 99  5 27 17 18  0.0000000  0  8G24G 4G30G 5G 7G 8G 9G10
  20189762.966    -2753538.13249  -1708970.72548  20189763.008    20189770.574
       244.000         216.000
  21152630.518     1708375.56549   1420103.04747  21152631.058    21152638.064
       241.000         204.000
  23530794.268    -7335728.63349  -5665845.76545  23530794.480    23530803.017
       218.000         161.000
  20923753.006    -5378231.00049  -4174831.18847  20923752.588    20923759.610
       240.000         206.000
  24424427.741     2479684.07049   1930596.16845  24424425.672    24424439.239
       208.000         139.000
  21464560.663    -2720385.37549  -2099301.99347  21464560.464    21464568.057
       236.000         193.000
  22075441.260     1910515.03049   1490038.57847  22075441.650    22075449.971
       236.000         195.000
  23533887.655    -7067365.09049  -5137380.91145  23533886.809    23533898.894
       215.000         157.000
 99  5 27 17 18 30.0000000  0  8G24G 4G30G 5G 7G 8G 9G10
  20188995.851    -2757569.22849  -1712111.83748  20188995.929    20189003.213
       244.000         216.000
  21165345.903     1775195.20749   1472170.24947  21165346.456    21165352.947
       241.000         204.000
  23512384.183    -7432473.72049  -5741231.47745  23512384.195    23512392.748
       219.000         161.000
  20913188.182    -5433749.36849  -4218092.23947  20913187.931    20913194.917
       240.000         206.000
  24437099.208     2546272.34549   1982483.03345  24437099.758    24437111.073
       206.000         139.000
  21464277.054    -2721875.73249  -2100463.33747  21464277.070    21464284.259
       235.000         193.000
  22088619.749     1979767.85549   1544001.74447  22088620.286    22088628.310
       236.000         195.000
  23516098.060    -7160849.28749  -5210225.58745  23516097.095    23516109.500
       216.000         158.000
 99  5 27 17 19  0.0000000  0  8G24G 4G30G 5G 7G 8G 9G10
  20188329.298    -2761071.91449  -1714841.19848  20188329.430    20188336.662
       244.000         216.000
  21178140.480     1842430.96549   1524561.70147  21178141.028    21178147.981
       240.000         203.000
  23493987.490    -7529149.07149  -5816562.83245  23493987.761    23493996.296
       218.000         161.000
  20902690.005    -5488917.53649  -4261080.40147  20902689.769    20902696.580
       241.000         207.000
  24449775.034     2612883.64849   2034387.81445  24449774.503    24449785.853
       206.000         139.000
  21464108.961    -2722759.25749  -2101151.81747  21464108.407    21464116.280
       235.000         193.000
  22101866.744     2049380.58049   1598245.34747  22101867.126    22101875.192
       236.000         195.000
  23498324.044    -7254251.65649  -5283006.48345  23498322.580    23498335.302
       214.000         158.000
 99  5 27 17 19 30.0000000  0  8G24G 4G30G 5G 7G 8G 9G10
  20187754.978    -2764089.93449  -1717192.89948  20187755.028    20187762.523
       244.000         216.000
  21191010.833     1910064.66649   1577263.23847  21191011.388    21191018.002
       240.000         203.000
  23475600.541    -7625772.70349  -5891853.89945  23475601.279    23475609.102
       219.000         161.000
  20892255.284    -5543752.41549  -4303808.86247  20892255.103    20892262.014
       241.000         207.000
  24462455.123     2679518.32449   2086310.81145  24462454.795    24462465.766
       204.000         139.000
  21464053.868    -2723048.84749  -2101377.49147  21464053.455    21464061.338
       235.000         193.000
  22115178.641     2119334.53749   1652754.84647  22115178.810    22115187.451
       235.000         195.000
  23480562.105    -7347590.25349  -5355737.67745  23480561.406    23480574.000
       213.000         157.000
 99  5 27 17 20  0.0000000  0  8G24G 4G30G 5G 7G 8G 9G10
  20187271.713    -2766629.55549  -1719171.81648  20187271.733    20187279.064
       244.000         216.000
  21203954.915     1978086.18949   1630266.97847  21203955.527    21203962.378
       240.000         203.000
  23457223.344    -7722345.15749  -5967105.09645  23457223.612    23457231.685
       218.000         162.000
  20881880.088    -5598274.49249  -4346293.57847  20881879.975    20881886.622
       241.000         207.000
  24475134.550     2746148.35149   2138230.19045  24475134.397    24475146.169
       208.000         138.000
  21464112.255    -2722742.05049  -2101138.44247  21464112.244    21464120.032
       235.000         193.000
  22128553.550     2189619.71249   1707522.43347  22128553.601    22128561.946
       235.000         195.000
  23462811.378    -7440870.27649  -5428423.25845  23462809.885    23462821.980
       215.000         157.000
 99  5 27 17 20 30.0000000  0  8G24G 4G30G 5G 7G 8G 9G10
  20186879.114    -2768692.69549  -1720779.45348  20186879.124    20186886.490
       244.000         216.000
  21216972.914     2046496.12849   1683573.38047  21216973.475    21216980.305
       240.000         202.000
  23438856.996    -7818860.55849  -6042311.82145  23438856.557    23438865.225
       219.000         162.000
  20871563.616    -5652488.00549  -4388537.85947  20871563.427    20871570.423
       241.000         207.000
  24487813.324     2812774.38449   2190146.45145  24487813.190    24487824.386
       207.000         138.000
  21464287.289    -2721822.36049  -2100421.82247  21464286.873    21464294.486
       236.000         193.000
  22141990.573     2260231.35749   1762544.41047  22141990.839    22141999.071
       235.000         195.000
  23445071.703    -7534092.33549  -5501063.64745  23445070.655    23445083.020
       213.000         156.000
 99  5 27 17 21  0.0000000  0  8G24G 4G30G 5G 7G 8G 9G10
  20186575.668    -2770287.14149  -1722021.87648  20186575.674    20186583.087
       244.000         216.000
  21230060.528     2115271.77449   1737164.75047  21230061.304    21230068.030
       240.000         202.000
  23420498.746    -7915333.44249  -6117485.41346  23420499.426    23420507.516
       219.000         163.000
  20861304.153    -5706401.74849  -4430548.55547  20861303.930    20861310.767
       241.000         207.000
  24500492.310     2879402.05549   2242063.99445  24500493.062    24500502.723
       205.000         138.000
  21464578.372    -2720292.94649  -2099230.08547  21464578.062    21464585.945
       236.000         194.000
  22155487.658     2331158.65649   1817812.35047  22155487.975    22155496.107
       235.000         194.000
  23427343.648    -7627253.31949  -5573656.46245  23427342.758    23427354.455
       215.000         157.000
 99  5 27 17 21 30.0000000  0  8G24G 4G30G 5G 7G 8G 9G10
  20186364.040    -2771399.18349  -1722888.39548  20186364.021    20186371.449
       244.000         216.000
  21243211.318     2184379.35549   1791014.76447  21243211.910    21243218.433
       240.000         202.000
  23402153.068    -8011740.39949  -6192607.63446  23402152.967    23402162.433
       219.000         163.000
  20851099.692    -5760026.35249  -4472333.94847  20851099.354    20851106.366
       241.000         207.000
  24513166.401     2946004.94749   2293962.24545  24513165.918    24513178.401
       203.000         138.000
  21464986.673    -2718147.61649  -2097558.41647  21464986.439    21464994.091
       236.000         194.000
  22169042.239     2402387.92649   1873315.59347  22169042.641    22169050.977
       235.000         194.000
  23409629.974    -7720338.62249  -5646190.30845  23409629.431    23409640.950
       215.000         157.000
 99  5 27 17 22  0.0000000  0  8G24G 4G30G 5G 7G 8G 9G10
  20186254.357    -2771975.67849  -1723337.60848  20186254.477    20186261.770
       246.000         216.000
  21256430.672     2253847.55249   1845145.77747  21256431.139    21256437.904
       240.000         202.000
  23383825.083    -8108054.37249  -6267657.39846  23383825.484    23383833.797
       219.000         164.000
  20840958.755    -5813317.31949  -4513859.36847  20840958.395    20840965.291
       242.000         207.000
  24525839.329     3012601.50949   2345855.54645  24525839.045    24525849.994
       203.000         138.000
  21465516.546    -2715363.32349  -2095388.85447  21465516.352    21465523.897
       236.000         194.000
  22182656.924     2473932.96049   1929064.89047  22182657.266    22182665.419
       235.000         194.000
  23391935.511    -7813323.14049  -5718645.60745  23391934.271    23391947.667
       215.000         158.000
 99  5 27 17 22 30.0000000  0  8G24G 4G30G 5G 7G 8G 9G10
  20186248.729    -2772005.40949  -1723360.76948  20186248.841    20186256.079
       246.000         216.000
  21269719.195     2323678.96249   1899559.81647  21269719.829    21269726.577
       239.000         201.000
  23365514.294    -8204277.93549  -6342636.72746  23365514.191    23365523.124
       220.000         165.000
  20830884.505    -5866257.76549  -4555111.65247  20830884.409    20830891.022
       241.000         207.000
  24538513.512     3079203.51049   2397753.07045  24538513.011    24538525.603
       208.000         138.000
  21466167.547    -2711942.39749  -2092723.21947  21466166.992    21466175.314
       236.000         194.000
  22196332.371     2545797.49049   1985063.14047  22196332.869    22196340.692
       235.000         194.000
  23374261.123    -7906202.40749  -5791018.91845  23374260.007    23374271.784
       215.000         159.000
 99  5 27 17 23  0.0000000  0  7G24G 4G30G 5G 8G 9G10
  20186351.488    -2771465.26249  -1722939.86548  20186351.340    20186358.726
       246.000         216.000
  21283076.172     2393870.08149   1954254.15647  21283076.693    21283083.663
       239.000         201.000
  23347223.792    -8300395.13149  -6417533.15546  23347223.523    23347232.488
       219.000         165.000
  20820878.584    -5918839.36949  -4596084.31847  20820878.326    20820885.296
       241.000         207.000
  21466940.389    -2707880.89549  -2089558.42947  21466940.516    21466947.881
       236.000         194.000
  22210069.792     2617988.04149   2041315.43247  22210070.108    22210078.329
       235.000         193.000
  23356611.242    -7998952.11449  -5863291.25245  23356610.685    23356622.384
       215.000         159.000
 99  5 27 17 23 30.0000000  0  7G24G 4G30G 5G 8G 9G10
  20186564.419    -2770346.44749  -1722068.05448  20186564.552    20186571.899
       246.000         216.000
  21296505.326     2464440.49749   2009244.04747  21296505.866    21296512.498
       239.000         201.000
  23328957.820    -8396383.16449  -6492328.94546  23328958.248    23328966.484
       221.000         166.000
  20810944.724    -5971042.29049  -4636761.90547  20810944.403    20810951.188
       241.000         207.000
  21467836.508    -2703171.90249  -2085889.10947  21467836.386    21467844.101
       236.000         194.000
  22223871.762     2690517.44949   2097831.76747  22223872.163    22223880.378
       235.000         193.000
  23338990.202    -8091550.76549  -5935445.89845  23338989.304    23339001.164
       217.000         162.000
 99  5 27 17 24  0.0000000  0  7G24G 4G30G 5G 8G 9G10
  20186880.162    -2768687.20649  -1720775.13248  20186880.144    20186887.803
       245.000         216.000
  21310002.415     2535368.04549   2064512.22247  21310002.672    21310010.025
       239.000         201.000
  23310710.288    -8492274.08349  -6567049.06846  23310710.391    23310718.127
       220.000         166.000
  20801080.578    -6022878.71749  -4677153.91247  20801080.392    20801087.285
       241.000         208.000
  21468848.586    -2697853.37549  -2081744.82347  21468848.156    21468856.030
       235.000         194.000
  22237733.500     2763360.93749   2154592.83947  22237734.027    22237742.196
       235.000         192.000
  23321391.015    -8184034.28249  -6007510.81645  23321390.138    23321401.854
       217.000         161.000
 99  5 27 17 24 30.0000000  0  7G24G 4G30G 5G 8G 9G10
  20187299.024    -2766486.22249  -1719060.07348  20187298.834    20187306.512
       246.000         216.000
  21323568.918     2606660.58649   2120064.81047  21323569.150    21323576.508
       239.000         200.000
  23292488.100    -8588032.03449  -6641665.57246  23292488.196    23292495.800
       220.000         166.000
  20791287.890    -6074339.51849  -4717253.22747  20791287.581    20791294.643
       241.000         208.000
  21469980.669    -2691904.23649  -2077109.15047  21469980.682    21469988.000
       237.000         194.000
  22251660.140     2836545.60149   2211619.75747  22251660.496    22251668.669
       235.000         192.000
  23303820.137    -8276369.73249  -6079460.37946  23303819.721    23303830.955
       218.000         163.000
 99  5 27 17 25  0.0000000  0  7G24G 4G30G 5G 8G 9G10
  20187814.186    -2763778.73149  -1716950.33548  20187814.147    20187821.593
       245.000         216.000
  21337198.775     2678285.69249   2175876.53447  21337199.214    21337206.527
       239.000         200.000
  23274288.992    -8683668.75349  -6716187.60646  23274288.905    23274297.502
       219.000         166.000
  20781561.557    -6125451.68349  -4757080.88147  20781561.265    20781568.332
       241.000         208.000
  21471226.906    -2685355.65349  -2072006.38347  21471226.799    21471234.451
       236.000         194.000
  22265647.093     2910047.45449   2268893.83447  22265647.103    22265655.832
       234.000         192.000
  23286273.900    -8368575.42349  -6151308.80946  23286273.378    23286285.915
       218.000         164.000
 99  5 27 17 25 30.0000000  0  7G24G 4G30G 5G 8G 9G10
  20188419.415    -2760598.20449  -1714471.99648  20188419.518    20188426.830
       245.000         216.000
  21350888.159     2750223.62649   2231932.02547  21350888.607    21350895.647
       239.000         200.000
  23256108.658    -8779206.74249  -6790632.72246  23256109.041    23256117.676
       221.000         167.000
  20771899.221    -6176227.53549  -4796646.46847  20771898.864    20771905.888
       241.000         208.000
  21472581.987    -2678234.86949  -2066457.74147  21472582.071    21472589.437
       236.000         194.000
  22279691.322     2983849.98849   2326402.21247  22279691.451    22279700.036
       234.000         191.000
  23268747.285    -8460678.07849  -6223076.99046  23268747.511    23268757.997
       219.000         164.000
 99  5 27 17 26  0.0000000  0  7G24G 4G30G 5G 8G 9G10
  20189117.191    -2756931.59649  -1711614.89548  20189117.165    20189124.630
       246.000         216.000
  21364638.088     2822479.80249   2288235.49747  21364638.708    21364645.694
       239.000         200.000
  23237948.542    -8874638.87449  -6864995.33746  23237948.693    23237956.515
       221.000         167.000
  20762302.055    -6226660.94049  -4835945.21847  20762301.758    20762308.633
       241.000         208.000
  21474048.924    -2670526.00949  -2060450.85347  21474048.895    21474056.489
       236.000         194.000
  22293795.518     3057967.67249   2384156.15947  22293796.026    22293804.164
       233.000         191.000
  23251242.184    -8552667.61749  -6294757.01746  23251241.490    23251252.939
       220.000         164.000
 99  5 27 17 26 30.0000000  0  7G24G 4G30G 5G 8G 9G10
  20189908.307    -2752774.27749  -1708375.42448  20189908.407    20189915.611
       246.000         216.000
  21378450.131     2895062.23149   2344793.19147  21378450.717    21378457.516
       239.000         200.000
  23219807.778    -8969968.78249  -6939278.31346  23219808.311    23219816.390
       222.000         167.000
  20752768.656    -6276759.36449  -4874982.94347  20752768.507    20752775.364
       242.000         208.000
  21475627.995    -2662227.95049  -2053984.85547  21475627.722    21475635.286
       235.000         194.000
  22307959.638     3132400.06349   2442155.33047  22307960.290    22307968.307
       234.000         191.000
  23233759.109    -8644541.46049  -6366346.89646  23233758.434    23233770.272
       220.000         164.000
 99  5 27 17 27  0.0000000  0  7G24G 4G30G 5G 8G 9G10
  20190794.589    -2748116.82749  -1704746.23948  20190794.564    20190801.752
       246.000         216.000
  21392326.344     2967981.90649   2401613.67747  21392326.850    21392333.817
       239.000         199.000
  23201684.373    -9065207.87149  -7013490.51546  23201685.168    23201692.850
       222.000         168.000
  20743301.747    -6326508.19649  -4913748.25847  20743301.271    20743308.124
       241.000         208.000
  21477318.766    -2653342.60049  -2047061.22847  21477318.462    21477325.875
       235.000         193.000
  22322181.975     3207138.56949   2500393.03047  22322182.385    22322190.623
       233.000         190.000
  23216296.876    -8736305.88549  -6437851.52346  23216296.093    23216308.029
       220.000         165.000
 99  5 27 17 27 30.0000000  0  7G24G 4G30G 5G 8G 9G10
  20191779.308    -2742942.12749  -1700714.00248  20191779.442    20191786.570
       245.000         216.000
  21406270.218     3041257.38749   2458711.41347  21406270.917    21406277.852
       238.000         199.000
  23183579.361    -9160350.32249  -7087627.41746  23183579.442    23183588.489
       223.000         168.000
  20733903.851    -6375894.57849  -4952231.14447  20733903.527    20733910.278
       242.000         209.000
  21479124.547    -2643853.36749  -2039667.04647  21479124.412    21479131.858
       235.000         193.000
  22336462.051     3282180.42449   2558867.10447  22336462.519    22336470.896
       233.000         190.000
  23198857.736    -8827948.81449  -6509261.48546  23198856.416    23198868.645
       218.000         164.000
 99  5 27 17 28  0.0000000  0  7G24G 4G30G 5G 8G 9G10
  20192862.329    -2737250.88049  -1696279.26548  20192862.262    20192869.820
       245.000         216.000
  21420282.598     3114892.80749   2516089.62147  21420282.917    21420290.022
       238.000         199.000
  23165493.471    -9255392.10249  -7161685.88146  23165493.772    23165501.827
       224.000         168.000
  20724575.853    -6424913.61549  -4990427.78847  20724575.455    20724582.398
       242.000         209.000
  21481046.030    -2633755.77649  -2031798.81847  21481046.021    21481053.906
       235.000         193.000
  22350799.172     3357522.08649   2617574.79547  22350799.613    22350808.125
       233.000         190.000
  23181443.236    -8919461.91549  -6580570.24846  23181442.911    23181454.756
       220.000         165.000
 99  5 27 17 28 30.0000000  0  7G24G 4G30G 5G 8G 9G10
  20194044.362    -2731039.28349  -1691439.05748  20194044.344    20194051.680
       245.000         215.000
  21434364.200     3188892.01849   2573751.29847  21434364.618    21434371.783
       238.000         198.000
  23147428.061    -9350326.20549  -7235660.42646  23147428.639    23147436.771
       222.000         168.000
  20715318.680    -6473560.45249  -5028334.40547  20715318.344    20715325.246
       242.000         209.000
  21483082.436    -2623054.56849  -2023460.24647  21483082.392    21483090.535
       236.000         193.000
  22365189.082     3433141.23849   2676498.71447  22365189.202    22365197.664
       233.000         190.000
  23164054.650    -9010839.01249  -6651773.04646  23164053.839    23164064.767
       219.000         165.000
 99  5 27 17 29  0.0000000  0  8G24G 4G30G 5G 8G 9G10G 6
  20195327.943    -2724294.00949  -1686182.99748  20195328.085    20195335.331
       246.000         215.000
  21448514.459     3263252.06249   2631694.14947  21448515.152    21448521.996
       238.000         198.000
  23129385.729    -9445138.92349  -7309540.38746  23129386.469    23129394.873
       223.000         169.000
  20706135.841    -6521816.52249  -5065936.52947  20706135.521    20706142.286
       242.000         209.000
  21485237.506    -2611730.07649  -2014635.99847  21485237.270    21485244.713
       235.000         194.000
  22379633.786     3509048.29349   2735646.96847  22379634.102    22379642.545
       233.000         190.000
  23146697.137    -9102052.76849  -6722848.58746  23146696.575    23146707.533
       220.000         165.000
  24865408.055    -5973133.10949  -4344225.48745  24865408.506    24865418.988
       204.000         138.000
 99  5 27 17 29 30.0000000  0  8G24G 4G30G 5G 8G 9G10G 6
  20196707.169    -2717046.23749  -1680535.38448  20196707.370    20196714.563
       245.000         215.000
  21462726.103     3337934.41649   2689888.14447  21462726.604    21462733.682
       238.000         198.000
  23111362.918    -9539849.13549  -7383340.48246  23111363.276    23111371.988
       223.000         169.000
  20697020.214    -6569719.15049  -5103263.24347  20697020.061    20697026.886
       242.000         209.000
  21487507.092    -2599803.68349  -2005342.73647  21487507.058    21487514.898
       234.000         194.000
  22394129.286     3585222.07649   2795003.06047  22394129.547    22394137.960
       233.000         189.000
  23129367.440    -9193120.57349  -6793810.39346  23129367.102    23129378.464
       222.000         166.000
  24852513.227    -6040896.47449  -4397028.01445  24852512.574    24852524.049
       204.000         138.000
 99  5 27 17 30  0.0000000  0  8G24G 4G30G 5G 8G 9G10G 6
  20198182.190    -2709294.93349  -1674495.40348  20198182.259    20198189.591
       246.000         215.000
  21476996.841     3412927.42049   2748324.21247  21476997.384    21477004.779
       238.000         198.000
  23093360.638    -9634451.38449  -7457056.44846  23093360.859    23093368.964
       223.000         169.000
  20687972.004    -6617267.95649  -5140314.24947  20687971.695    20687978.769
       242.000         209.000
  21489891.922    -2587271.28849  -1995577.26447  21489891.518    21489899.541
       235.000         193.000
  22408677.431     3661672.73249   2854574.89847  22408677.635    22408686.335
       232.000         189.000
  23112064.507    -9284047.71349  -6864662.60746  23112063.891    23112074.503
       223.000         166.000
  24839619.796    -6108651.59149  -4449824.13645  24839620.509    24839629.105
       203.000         138.000
 99  5 27 17 30 30.0000000  0  8G24G 4G30G 5G 8G 9G10G 6
  20199757.905    -2701014.68349  -1668043.26248  20199757.729    20199765.217
       246.000         215.000
  21491328.201     3488238.81849   2807008.37347  21491328.843    21491335.757
       238.000         198.000
  23075383.620    -9728920.83649  -7530668.94646  23075383.594    23075392.439
       223.000         170.000
  20678994.777    -6664443.71049  -5177074.56847  20678994.500    20679001.487
       242.000         210.000
  21492396.834    -2574107.90149  -1985320.10647  21492396.404    21492404.339
       234.000         193.000
  22423282.656     3738423.22649   2914380.37247  22423282.924    22423291.918
       232.000         189.000
  23094793.130    -9374809.16549  -6935385.69946  23094792.368    23094804.601
       221.000         167.000
  24826730.077    -6176387.70449  -4502605.42545  24826729.583    24826740.302
       206.000         138.000
 99  5 27 17 31  0.0000000  0  8G24G 4G30G 5G 8G 9G10G 6
  20201436.517    -2692193.23149  -1661169.40448  20201436.626    20201444.037
       245.000         215.000
  21505722.499     3563881.18049   2865950.42747  21505723.108    21505730.258
       238.000         198.000
  23057437.431    -9823228.47649  -7604155.35446  23057438.108    23057446.019
       223.000         171.000
  20670092.802    -6711223.94549  -5213526.68847  20670092.613    20670099.472
       242.000         210.000
  21495024.519    -2560299.37449  -1974560.24547  21495024.354    21495032.031
       235.000         193.000
  22437954.064     3815521.84449   2974457.11847  22437954.108    22437963.000
       232.000         188.000
  23077557.321    -9465383.59249  -7005963.06546  23077556.820    23077567.130
       221.000         167.000
  24813844.587    -6244101.21249  -4555369.08545  24813843.753    24813856.223
       206.000         139.000
 99  5 27 17 31 30.0000000  0  8G24G 4G30G 5G 8G 9G10G 6
  20203212.850    -2682858.64449  -1653895.69948  20203212.957    20203220.309
       245.000         215.000
  21520176.790     3639838.71449   2925138.07047  21520177.211    21520184.284
       238.000         197.000
  23039521.251    -9917378.42049  -7677518.87846  23039521.371    23039528.927
       223.000         171.000
  20661261.489    -6757632.89849  -5249689.49447  20661261.236    20661268.107
       242.000         210.000
  21497768.833    -2545878.10049  -1963322.91947  21497768.744    21497776.545
       235.000         193.000
  22452687.373     3892945.64049   3034787.24247  22452687.738    22452696.516
       232.000         188.000
  23060352.367    -9555795.69249  -7076413.94546  23060350.951    23060362.728
       220.000         166.000
  24800963.222    -6311792.43749  -4608115.42445  24800963.920    24800973.844
       208.000         139.000
 99  5 27 17 32  0.0000000  0  8G24G 4G30G 5G 8G 9G10G 6
  20205083.228    -2673029.87249  -1646236.91448  20205083.452    20205090.685
       246.000         215.000
  21534688.761     3716099.18849   2984561.76947  21534689.595    21534695.909
       238.000         197.000
  23021634.109   -10011375.73949  -7750763.47446  23021634.284    23021641.989
       223.000         171.000
  20652498.842    -6803680.72149  -5285570.90247  20652498.633    20652505.237
       242.000         210.000
  21500624.811    -2530870.13349  -1951628.43647  21500624.627    21500632.509
       234.000         193.000
  22467478.276     3970671.89749   3095353.05847  22467478.718    22467487.637
       232.000         188.000
  23043177.316    -9646050.78449  -7146742.46846  23043176.171    23043188.247
       220.000         166.000
  24788085.668    -6379464.12649  -4660846.53145  24788085.106    24788096.954
       206.000         139.000
 99  5 27 17 32 30.0000000  0  8G24G 4G30G 5G 8G 9G10G 6
  20207039.120    -2662751.69949  -1638227.94648  20207039.268    20207046.520
       246.000         215.000
  21549254.573     3792642.99949   3044206.25347  21549255.221    21549261.930
       237.000         197.000
  23003768.726   -10105258.80049  -7823919.03446  23003768.842    23003776.403
       223.000         171.000
  20643799.404    -6849396.43949  -5321193.52047  20643799.105    20643806.003
       243.000         210.000
  21503584.422    -2515317.26949  -1939509.35147  21503584.148    21503591.984
       234.000         193.000
  22482316.840     4048648.67749   3156114.08547  22482317.216    22482325.691
       232.000         188.000
  23026029.476    -9736162.76849  -7216959.50246  23026028.312    23026039.893
       220.000         166.000
  24775207.458    -6447139.36649  -4713580.39945  24775208.450    24775218.311
       209.000         140.000
 99  5 27 17 33  0.0000000  0  8G24G 4G30G 5G 8G 9G10G 6
  20209082.467    -2652013.76149  -1629860.72348  20209082.383    20209089.667
       246.000         215.000
  21563878.846     3869494.04149   3104090.13347  21563879.397    21563886.460
       237.000         197.000
  22985926.495   -10199020.02249  -7896979.66346  22985926.514    22985934.821
       224.000         172.000
  20635165.805    -6894766.41949  -5356546.74147  20635165.682    20635172.277
       243.000         210.000
  21506649.498    -2499210.37149  -1926958.56647  21506649.137    21506657.120
       235.000         193.000
  22497201.438     4126867.24349   3217063.52247  22497201.671    22497210.503
       232.000         188.000
  23008912.276    -9826113.53649  -7287050.87946  23008912.082    23008922.122
       220.000         166.000
  24762332.062    -6514800.29749  -4766303.12745  24762331.704    24762341.572
       206.000         141.000
 99  5 27 17 33 30.0000000  0  8G24G 4G30G 5G 8G 9G10G 6
  20211207.898    -2640844.43249  -1621157.34748  20211208.002    20211215.290
       246.000         215.000
  21578556.790     3946626.76849   3164193.51247  21578557.086    21578564.439
       237.000         197.000
  22968100.541   -10292695.97449  -7969973.85046  22968100.735    22968108.812
       225.000         173.000
  20626594.243    -6939810.27549  -5391645.83447  20626593.806    20626600.772
       243.000         211.000
  21509819.502    -2482552.07549  -1913978.10747  21509819.292    21509827.091
       234.000         193.000
  22512124.155     4205286.16649   3278169.07846  22512124.291    22512133.310
       232.000         187.000
  22991823.463    -9915915.32849  -7357026.20346  22991823.192    22991833.902
       220.000         166.000
  24749457.473    -6582456.32649  -4819022.01745  24749457.987    24749467.854
       206.000         140.000
 99  5 27 17 34  0.0000000  0  8G24G 4G30G 5G 8G 9G10G 6
  20213416.781    -2629236.69349  -1612112.35548  20213416.903    20213424.250
       246.000         215.000
  21593289.258     4024046.00949   3224520.15047  21593289.487    21593297.195
       237.000         196.000
  22950289.832   -10386291.68149  -8042905.49646  22950290.365    22950298.232
       224.000         173.000
  20618089.252    -6984504.25949  -5426472.30247  20618088.874    20618095.717
       243.000         211.000
  21513098.468    -2465321.15049  -1900551.45547  21513098.302    21513106.184
       234.000         193.000
  22527085.096     4283905.94849   3339431.15246  22527085.193    22527094.080
       231.000         187.000
  22974764.963   -10005558.01449  -7426877.51046  22974764.162    22974774.692
       219.000         167.000
  24736584.516    -6650104.49149  -4871734.78745  24736583.819    24736594.165
       206.000         140.000
 99  5 27 17 34 30.0000000  0  8G24G 4G30G 5G 8G 9G10G 6
  20215712.980    -2617170.21049  -1602709.90148  20215713.043    20215720.406
       246.000         215.000
  21608076.942     4101755.63049   3285073.05047  21608077.349    21608084.582
       237.000         196.000
  22932495.089   -10479803.29449  -8115771.62746  22932494.984    22932502.681
       224.000         173.000
  20609656.473    -7028818.76449  -5461003.07247  20609656.132    20609663.028
       243.000         211.000
  21516491.322    -2447491.62249  -1886658.35547  21516491.083    21516498.791
       235.000         193.000
  22542087.230     4362742.73249   3400862.29946  22542087.677    22542096.172
       232.000         186.000
  22957738.034   -10095034.71549  -7496599.50446  22957737.689    22957747.905
       221.000         167.000
  24723717.847    -6717718.59249  -4924421.02645  24723717.896    24723727.568
       206.000         141.000
 99  5 27 17 35  0.0000000  0  8G24G 4G30G 5G 8G 9G10G 6
  20218099.664    -2604628.17049  -1592936.88448  20218099.661    20218106.880
       245.000         215.000
  21622917.122     4179741.28449   3345841.05047  21622917.436    21622925.025
       236.000         195.000
  22914721.974   -10573201.44949  -8188549.34346  22914721.668    22914729.994
       225.000         174.000
  20601299.030    -7072737.58249  -5495225.51447  20601298.728    20601305.846
       243.000         211.000
  21520000.726    -2429049.72949  -1872288.08847  21520000.454    21520008.274
       234.000         193.000
  22557135.382     4441820.98749   3462481.60946  22557135.730    22557144.957
       230.000         186.000
  22940743.282   -10184342.37449  -7566189.75546  22940741.795    22940753.431
       220.000         168.000
  24710859.160    -6785290.76449  -4977074.58045  24710858.838    24710870.184
       207.000         141.000
 99  5 27 17 35 30.0000000  0  8G24G 4G30G 5G 8G 9G10G 6
  20220579.619    -2591595.93349  -1582781.89548  20220579.604    20220586.985
       246.000         215.000
  21637810.375     4258005.79149   3406826.33047  21637810.466    21637818.030
       236.000         195.000
  22896974.676   -10666463.99449  -8261221.38646  22896975.604    22896982.678
       225.000         174.000
  20593020.886    -7116239.43649  -5529123.05447  20593020.678    20593027.571
       243.000         211.000
  21523626.481    -2409996.32749  -1857441.32747  21523626.384    21523634.447
       235.000         193.000
  22572235.293     4521170.89249   3524312.59846  22572235.407    22572244.517
       230.000         186.000
  22923783.075   -10273468.44449  -7635638.53246  22923781.666    22923792.978
       221.000         168.000
  24698009.582    -6852815.56249  -5029691.23245  24698010.033    24698021.890
       207.000         141.000
 99  5 27 17 36  0.0000000  0  8G24G 4G30G 5G 8G 9G10G 6
  20223163.011    -2578020.21149  -1572203.40948  20223163.036    20223170.342
       245.000         215.000
  21652763.611     4336585.42849   3468057.17547  21652764.023    21652771.338
       236.000         195.000
  22879263.595   -10759536.24549  -8333745.15646  22879263.835    22879271.520
       225.000         174.000
  20584828.663    -7159289.92549  -5562668.88047  20584828.310    20584835.292
       243.000         212.000
  21527369.640    -2390326.11049  -1842113.92447  21527369.562    21527377.335
       235.000         193.000
  22587393.931     4600829.39949   3586384.05546  22587394.232    22587403.763
       232.000         186.000
  22906863.172   -10362382.61849  -7704922.15246  22906862.579    22906873.414
       222.000         169.000
  24685173.696    -6920268.24949  -5082251.68345  24685173.430    24685184.627
       207.000         141.000
 99  5 27 17 36 30.0000000  0  8G24G 4G30G 5G 8G 9G10G 6
  20225847.372    -2563913.52349  -1561211.19048  20225847.257    20225854.671
       245.000         215.000
  21667773.146     4415460.80249   3529518.45747  21667773.672    21667781.254
       237.000         195.000
  22861587.946   -10852422.12449  -8406123.70146  22861588.012    22861596.050
       226.000         175.000
  20576716.982    -7201916.96649  -5595884.75047  20576716.825    20576723.667
       243.000         212.000
  21531223.592    -2370073.74849  -1826332.90647  21531223.844    21531231.167
       234.000         193.000
  22602608.020     4680779.51849   3648682.74046  22602608.190    22602617.652
       231.000         185.000
  22889981.566   -10451095.73349  -7774049.15646  22889980.546    22889991.475
       221.000         168.000
  24672346.376    -6987676.14549  -5134777.21945  24672346.240    24672356.500
       207.000         141.000
 99  5 27 17 37  0.0000000  0  8G24G 4G30G 5G 8G 9G10G 6
  20228630.468    -2549288.02249  -1549814.69948  20228630.560    20228637.828
       245.000         215.000
  21682838.614     4494630.25349   3591208.88647  21682839.053    21682846.721
       237.000         195.000
  22843947.638   -10945122.35249  -8478357.57846  22843948.194    22843955.531
       225.000         175.000
  20568683.271    -7244134.37349  -5628781.42347  20568682.897    20568689.709
       243.000         212.000
  21535183.170    -2349266.40149  -1810119.43447  21535182.993    21535190.553
       234.000         193.000
  22617876.319     4761014.54649   3711203.43346  22617876.260    22617885.157
       230.000         185.000
  22873139.577   -10539600.24549  -7843013.56746  22873139.165    22873149.904
       222.000         170.000
  24659525.229    -7055050.50249  -5187276.64945  24659523.487    24659536.097
       202.000         141.000
 99  5 27 17 37 30.0000000  0  8G24G 4G30G 5G 8G 9G10G 6
  20231509.173    -2534160.37749  -1538026.92748  20231509.258    20231516.456
       245.000         215.000
  21697960.300     4574095.04849   3653129.45947  21697960.584    21697967.891
       237.000         195.000
  22826339.512   -11037653.35549  -8550459.59446  22826339.854    22826347.560
       225.000         175.000
  20560726.885    -7285945.48049  -5661361.49947  20560726.705    20560733.432
       243.000         212.000
  21539245.460    -2327918.99349  -1793485.13147  21539245.361    21539253.299
       234.000         193.000
  22633194.619     4841512.58949   3773929.07146  22633194.965    22633203.777
       230.000         184.000
  22856337.659   -10627894.32749  -7911814.02546  22856336.817    22856348.284
       222.000         169.000
  24646709.749    -7122395.68149  -5239753.34545  24646709.368    24646720.737
       203.000         141.000
 99  5 27 17 38  0.0000000  0  8G24G 4G30G 5G 8G 9G10G 6
  20234481.336    -2518541.70049  -1525856.53548  20234481.490    20234488.693
       245.000         215.000
  21713138.650     4653857.65849   3715282.09847  21713138.957    21713146.600
       237.000         194.000
  22808764.290   -11130011.27349  -8622426.74146  22808764.491    22808772.307
       225.000         175.000
  20552847.548    -7327351.81149  -5693626.16947  20552847.230    20552854.171
       243.000         212.000
  21543414.577    -2306010.48149  -1776413.60647  21543414.574    21543422.696
       234.000         193.000
  22648559.115     4922252.91049   3836843.49346  22648559.269    22648568.510
       230.000         184.000
  22839575.415   -10715980.08849  -7980452.15446  22839573.922    22839585.529
       222.000         170.000
  24633902.156    -7189699.78549  -5292198.01445  24633902.114    24633914.092
       206.000         142.000
 99  5 27 17 38 30.0000000  0  8G24G 4G30G 5G 8G 9G10G 6
  20237540.155    -2502467.61649  -1513331.27848  20237540.242    20237547.582
       246.000         215.000
  21728370.354     4733900.44349   3777653.04947  21728370.452    21728378.004
       237.000         194.000
  22791217.848   -11222217.88449  -8694275.98046  22791217.099    22791225.738
       226.000         175.000
  20545044.563    -7368356.79549  -5725578.10247  20545044.262    20545051.119
       244.000         212.000
  21547691.808    -2283533.74549  -1758899.31047  21547691.623    21547699.465
       236.000         193.000
  22663965.272     5003212.12049   3899928.47646  22663965.723    22663974.750
       230.000         183.000
  22822853.763   -10803852.41749  -8048923.97546  22822853.477    22822863.656
       223.000         170.000
  24621103.811    -7256955.59849  -5344605.03845  24621103.884    24621114.160
       209.000         142.000
 99  5 27 17 39  0.0000000  0  8G24G 4G30G 5G 8G 9G10G 6
  20240679.062    -2485972.52849  -1500477.96748  20240679.159    20240686.536
       245.000         215.000
  21743649.678     4814193.91949   3840219.34947  21743650.214    21743657.430
       237.000         194.000
  22773696.114   -11314294.56649  -8766023.98746  22773696.508    22773704.590
       226.000         175.000
  20537313.896    -7408981.82849  -5757233.96647  20537313.694    20537320.586
       243.000         212.000
  21552074.268    -2260504.07249  -1740954.16047  21552073.960    21552082.137
       235.000         193.000
  22679406.983     5084358.53449   3963159.32846  22679406.983    22679416.542
       229.000         183.000
  22806168.117   -10891535.57449  -8117248.38946  22806166.819    22806178.179
       222.000         171.000
  24608311.077    -7324181.95649  -5396989.12845  24608311.201    24608321.043
       208.000         144.000
 99  5 27 17 39 30.0000000  0  8G24G 4G30G 5G 8G 9G10G 6
  20243893.519    -2469080.51849  -1487315.36448  20243893.714    20243900.799
       246.000         215.000
  21758970.571     4894705.57549   3902955.65547  21758971.018    21758978.109
       237.000         194.000
  22756196.043   -11406257.83049  -8837683.60946  22756196.243    22756203.986
       226.000         175.000
  20529649.178    -7449260.26549  -5788619.75747  20529648.840    20529655.571
       243.000         212.000
  21556560.272    -2236930.22949  -1722584.97947  21556560.054    21556567.730
       234.000         193.000
  22694877.208     5165654.81849   4026506.95546  22694877.413    22694887.035
       228.000         182.000
  22789511.043   -10979068.71549  -8185455.90946  22789510.380    22789521.439
       222.000         171.000
  24595515.990    -7391420.35249  -5449382.61445  24595515.849    24595526.195
       204.000         143.000
 99  5 27 17 40  0.0000000  0  8G24G 4G30G 5G 8G 9G10G 6
  20247192.672    -2451743.49249  -1473805.99448  20247192.750    20247200.170
       245.000         215.000
  21774339.479     4975469.25749   3965888.34147  21774340.148    21774347.729
       237.000         194.000
  22738725.086   -11498068.05249  -8909223.98746  22738725.418    22738732.972
       226.000         176.000
  20522056.672    -7489158.94249  -5819709.63148  20522056.206    20522062.933
       245.000         213.000
  21561158.399    -2212767.11349  -1703756.63247  21561158.391    21561166.179
       234.000         193.000
  22710384.020     5247143.26349   4090004.32146  22710384.298    22710393.599
       228.000         182.000
  22772888.821   -11066418.65649  -8253520.67846  22772888.268    22772898.818
       223.000         172.000
  24582725.508    -7458634.52249  -5501757.25045  24582724.754    24582736.181
       208.000         144.000
 99  5 27 17 40 30.0000000  0  8G24G 4G30G 5G 8G 9G10G 6
  20250586.896    -2433906.55849  -1459907.08648  20250587.000    20250594.332
       245.000         215.000
  21789761.503     5056512.28349   4029038.69847  21789762.611    21789769.591
       237.000         194.000
  22721289.770   -11589690.87949  -8980618.33146  22721290.118    22721297.483
       227.000         176.000
  20514543.728    -7528639.44249  -5850473.65348  20514543.647    20514550.440
       245.000         213.000
  21565873.649    -2187988.33949  -1684448.55547  21565873.047    21565881.811
       234.000         192.000
  22725936.845     5328873.34049   4153689.97246  22725937.501    22725946.373
       229.000         182.000
  22756309.625   -11153542.71349  -8321409.43546  22756308.665    22756320.357
       223.000         172.000
  24569944.457    -7525799.28349  -5554093.31845  24569944.901    24569954.560
       206.000         144.000
 99  5 27 17 41  0.0000000  0  8G24G 4G30G 5G 8G 9G10G 6
  20254079.756    -2415551.55049  -1445604.48548  20254079.792    20254087.195
       245.000         215.000
  21805237.261     5137837.28249   4092408.77947  21805237.868    21805245.162
       236.000         193.000
  22703892.331   -11681115.07049  -9051857.90346  22703893.012    22703900.365
       227.000         177.000
  20507110.166    -7567703.14449  -5880912.89948  20507109.813    20507116.592
       245.000         213.000
  21570705.132    -2162599.09149  -1664664.78247  21570704.922    21570712.875
       234.000         192.000
  22741535.761     5410845.68949   4217564.40646  22741536.122    22741545.245
       228.000         182.000
  22739770.445   -11240456.26949  -8389134.15446  22739769.955    22739780.310
       224.000         173.000
  24557169.337    -7592932.33249  -5606404.68445  24557169.335    24557180.114
       208.000         144.000
 99  5 27 17 41 30.0000000  0  8G24G 4G30G 5G 8G 9G10G 6
  20257673.429    -2396666.76149  -1430889.06948  20257673.435    20257680.826
       244.000         215.000
  21820766.801     5219445.22949   4155999.33547  21820767.327    21820774.933
       236.000         193.000
  22686530.665   -11772351.18449  -9122950.91646  22686530.981    22686538.918
       227.000         177.000
  20499757.583    -7606341.21149  -5911020.48148  20499757.493    20499764.173
       245.000         213.000
  21575651.835    -2136604.08549  -1644408.98547  21575651.317    21575659.370
       234.000         192.000
  22757181.044     5493061.82649   4281628.79746  22757181.451    22757190.528
       228.000         182.000
  22723272.092   -11327155.12149  -8456691.58146  22723271.147    22723282.014
       223.000         173.000
  24544400.753    -7660031.36849  -5658689.54645  24544401.025    24544411.402
       210.000         145.000
 99  5 27 17 42  0.0000000  0  8G24G 4G30G 5G 8G 9G10G 6
  20261365.581    -2377264.41949  -1415770.36348  20261365.738    20261373.262
       244.000         215.000
  21836349.676     5301333.59549   4219808.40047  21836350.419    21836357.640
       235.000         193.000
  22669202.980   -11863408.90449  -9193904.93246  22669203.697    22669210.863
       228.000         178.000
  20492486.901    -7644549.20249  -5940792.94248  20492486.627    20492493.422
       245.000         213.000
  21580709.965    -2110023.59749  -1623696.96847  21580709.716    21580717.626
       234.000         192.000
  22772872.200     5575518.87949   4345880.92646  22772872.708    22772881.312
       228.000         182.000
  22706819.316   -11413614.59349  -8524062.48146  22706818.147    22706828.892
       224.000         174.000
  24531640.662    -7727086.22149  -5710939.99545  24531640.569    24531651.269
       210.000         145.000
 99  5 27 17 42 30.0000000  0  8G24G 4G30G 5G 8G 9G10G 6
  20265154.127    -2357355.53349  -1400256.95448  20265154.126    20265161.876
       244.000         215.000
  21851987.257     5383509.48149   4283841.50247  21851987.654    21851995.070
       235.000         192.000
  22651912.705   -11954269.85249  -9264705.60846  22651913.107    22651920.669
       227.000         178.000
  20485300.623    -7682313.37249  -5970219.56648  20485300.392    20485307.170
       246.000         213.000
  21585880.318    -2082853.57349  -1602525.57447  21585880.296    21585888.429
       234.000         192.000
  22788611.522     5658228.79149   4410330.07746  22788612.232    22788620.911
       230.000         181.000
  22690418.045   -11499803.08349  -8591222.22146  22690417.491    22690428.238
       223.000         174.000
  24518889.613    -7794093.05049  -5763153.01945  24518889.346    24518900.610
       210.000         146.000
 99  5 27 17 43  0.0000000  0  8G24G 4G30G 5G 8G 9G10G 6
  20269028.000    -2336998.01549  -1384393.95648  20269028.104    20269035.547
       244.000         215.000
  21867673.737     5465942.38649   4348074.88047  21867674.384    21867681.510
       235.000         192.000
  22634653.450   -12044967.75849  -9335379.24446  22634653.965    22634661.570
       227.000         179.000
  20478192.701    -7719665.74449  -5999325.30548  20478192.133    20478199.406
       245.000         213.000
  21591156.267    -2055128.41149  -1580921.60847  21591155.894    21591164.160
       234.000         192.000
  22804391.018     5741149.86249   4474943.77746  22804390.999    22804400.906
       229.000         181.000
  22674064.423   -11585741.23249  -8658186.87546  22674063.153    22674074.593
       224.000         174.000
  24506141.574    -7861083.74549  -5815353.47345  24506140.882    24506151.383
       208.000         145.000
 99  5 27 17 43 30.0000000  0  8G24G 4G30G 5G 8G 9G10G 6
  20272976.606    -2316247.97949  -1368225.10248  20272976.640    20272984.061
       244.000         214.000
  21883401.684     5548593.06549   4412477.95547  21883402.096    21883409.572
       235.000         192.000
  22617417.396   -12135543.54549  -9405957.72646  22617417.548    22617425.237
       227.000         179.000
  20471159.367    -7756626.13049  -6028125.60848  20471159.121    20471165.867
       246.000         213.000
  21596531.052    -2026883.75449  -1558912.83847  21596530.783    21596539.334
       234.000         192.000
  22820204.433     5824249.10649   4539696.30446  22820204.991    22820214.738
       228.000         181.000
  22657755.951   -11671442.35049  -8724966.85346  22657754.953    22657766.200
       223.000         174.000
  24493390.455    -7928090.83149  -5867566.69445  24493390.708    24493401.064
       209.000         145.000
 99  5 27 17 44  0.0000000  0  8G24G 4G30G 5G 8G 9G10G 6
  20277003.051    -2295088.89649  -1351737.50948  20277002.883    20277010.266
       243.000         214.000
  21899175.350     5631483.96449   4477068.20847  21899175.586    21899183.298
       234.000         191.000
  22600213.139   -12225952.28849  -9476406.03746  22600212.908    22600220.774
       229.000         179.000
  20464206.965    -7793161.28149  -6056594.55448  20464206.724    20464213.538
       245.000         214.000
  21602011.541    -1998083.86949  -1536471.42347  21602011.469    21602019.222
       234.000         192.000
  22836057.078     5907554.75249   4604609.65946  22836057.506    22836067.218
       227.000         181.000
  22641500.585   -11756864.24149  -8791529.24046  22641499.996    22641510.173
       224.000         175.000
  24480641.435    -7995086.97949  -5919771.41545  24480640.955    24480652.023
       209.000         145.000
 99  5 27 17 44 30.0000000  0  8G24G 4G30G 5G 8G 9G10G 6
  20281101.561    -2273551.23749  -1334954.92148  20281101.825    20281109.061
       244.000         214.000
  21914985.751     5714568.08849   4541809.02947  21914986.161    21914993.734
       235.000         191.000
  22583035.230   -12316222.69349  -9546746.55746  22583035.700    22583042.927
       229.000         180.000
  20457330.545    -7829296.92749  -6084752.19848  20457330.145    20457337.044
       246.000         214.000
  21607592.783    -1968754.54349  -1513617.45747  21607592.735    21607600.868
       234.000         192.000
  22851939.828     5991018.64049   4669646.31646  22851940.151    22851949.727
       226.000         180.000
  22625285.762   -11842073.30049  -8857925.78846  22625285.241    22625295.836
       225.000         176.000
  24467887.691    -8062107.57249  -5971995.17545  24467887.304    24467898.857
       208.000         146.000
 99  5 27 17 45  0.0000000  0  8G24G 4G30G 5G 8G 9G10G 6
  20285281.915    -2251583.57849  -1317837.26848  20285281.982    20285289.160
       244.000         215.000
  21930838.555     5797874.77049   4606723.27047  21930838.916    21930846.770
       234.000         191.000
  22565890.124   -12406320.45449  -9616952.54546  22565890.269    22565897.773
       229.000         180.000
  20450537.154    -7864996.52449  -6112570.06148  20450536.938    20450543.730
       245.000         214.000
  21613279.521    -1938870.76149  -1490331.44847  21613279.498    21613287.158
       234.000         191.000
  22867856.388     6074660.28249   4734821.48546  22867856.732    22867866.053
       227.000         180.000
  22609115.237   -11927049.82649  -8924141.13646  22609114.376    22609124.256
       225.000         176.000
  24455137.748    -8129108.70149  -6024203.74645  24455137.820    24455148.128
       209.000         146.000
 99  5 27 17 45 30.0000000  0  8G24G 4G30G 5G 8G 9G10G 6
  20289553.499    -2229136.34149  -1300345.92548  20289553.544    20289560.908
       244.000         214.000
  21946738.086     5881427.36749   4671829.13247  21946738.529    21946746.125
       235.000         190.000
  22548787.261   -12496196.30349  -9686985.62346  22548787.349    22548795.068
       229.000         180.000
  20443833.387    -7900225.19949  -6140020.97448  20443833.249    20443840.121
       245.000         214.000
  21619076.456    -1908408.07449  -1466594.33947  21619076.555    21619084.538
       234.000         191.000
  22883813.847     6158516.62949   4800163.95346  22883814.805    22883823.118
       228.000         180.000
  22592995.577   -12011758.88549  -8990148.06346  22592994.865    22593005.575
       225.000         176.000
  24442399.663    -8196047.58449  -6076363.80345  24442399.459    24442410.287
       211.000         147.000
 99  5 27 17 46  0.0000000  0  8G24G 4G30G 5G 8G 9G10G 6
  20293915.177    -2206215.53649  -1282485.56148  20293915.045    20293922.428
       244.000         214.000
  21962681.040     5965207.82149   4737112.54947  21962681.312    21962689.387
       234.000         190.000
  22531724.347   -12585862.02449  -9756854.96146  22531724.632    22531732.128
       229.000         180.000
  20437212.193    -7935019.88249  -6167133.70548  20437212.003    20437218.913
       246.000         214.000
  21624978.159    -1877394.62649  -1442428.06547  21624977.999    21624986.533
       234.000         191.000
  22899808.456     6242568.33349   4865658.67046  22899808.822    22899818.507
       227.000         179.000
  22576922.157   -12096224.74049  -9055965.49346  22576920.713    22576931.741
       225.000         176.000
  24429670.024    -8262941.83749  -6128489.10545  24429670.181    24429680.522
       209.000         147.000
 99  5 27 17 46 30.0000000  0  8G24G 4G30G 5G 8G 9G10G 6
  20298369.384    -2182808.39849  -1264246.23848  20298369.451    20298376.891
       244.000         214.000
  21978670.547     6049233.00549   4802586.65747  21978670.893    21978678.618
       234.000         189.000
  22514703.365   -12675307.45949  -9826552.64946  22514703.855    22514711.503
       228.000         180.000
  20430674.207    -7969377.10349  -6193905.56148  20430674.039    20430680.635
       246.000         214.000
  21630984.569    -1845831.04249  -1417833.12147  21630984.551    21630992.753
       234.000         191.000
  22915842.015     6326824.63449   4931312.78146  22915842.322    22915852.358
       226.000         179.000
  22560894.491   -12180450.02349  -9121595.45246  22560893.568    22560905.058
       225.000         176.000
  24416949.225    -8329789.94449  -6180578.45145  24416949.717    24416959.449
       208.000         147.000
 99  5 27 17 47  0.0000000  0  8G24G 4G30G 5G 8G 9G10G 6
  20302917.666    -2158906.99549  -1245621.77648  20302917.812    20302925.130
       244.000         214.000
  21994706.444     6133501.85949   4868250.64447  21994707.031    21994714.283
       235.000         189.000
  22497722.705   -12764541.25349  -9896085.42846  22497723.010    22497730.375
       229.000         181.000
  20424216.397    -8003313.28649  -6220349.33548  20424216.209    20424222.930
       245.000         214.000
  21637093.514    -1813728.60549  -1392818.28847  21637093.602    21637101.493
       233.000         191.000
  22931915.859     6411292.91949   4997132.08946  22931916.205    22931925.775
       226.000         178.000
  22544916.352   -12264415.42849  -9187022.91046  22544915.560    22544926.153
       226.000         177.000
  24404233.400    -8396611.65949  -6232647.24145  24404233.301    24404244.049
       209.000         148.000
 99  5 27 17 47 30.0000000  0  8G24G 4G30G 5G 8G 9G10G 6
  20307558.120    -2134521.36949  -1226619.99648  20307558.120    20307565.577
       244.000         214.000
  22010788.841     6218015.25549   4934105.17847  22010789.218    22010796.435
       233.000         189.000
  22480781.630   -12853567.01849  -9965456.09746  22480781.949    22480789.893
       229.000         181.000
  20417838.649    -8036828.47349  -6246465.05848  20417838.425    20417845.128
       246.000         214.000
  21643306.991    -1781076.69049  -1367375.28747  21643306.681    21643315.152
       233.000         191.000
  22948028.867     6495967.04649   5063111.78646  22948029.300    22948039.050
       225.000         177.000
  22528989.093   -12348113.41749  -9252241.99546  22528988.426    22528998.773
       226.000         177.000
  24391520.721    -8463417.03249  -6284703.29545  24391520.722    24391530.437
       208.000         148.000
 99  5 27 17 48  0.0000000  0  8G24G 4G30G 5G 8G 9G10G 6
  20312289.454    -2109658.01649  -1207245.96448  20312289.625    20312297.083
       244.000         214.000
  22026919.069     6302779.77449   5000155.39247  22026919.761    22026927.314
       232.000         188.000
  22463879.622   -12942387.57149 -10034666.87146  22463880.489    22463887.317
       230.000         182.000
  20411541.496    -8069920.26749  -6272250.86748  20411541.344    20411547.984
       246.000         214.000
  21649627.596    -1747861.68149  -1341493.51847  21649627.505    21649635.963
       233.000         191.000
  22964177.815     6580830.26349   5129238.83246  22964178.280    22964187.866
       225.000         177.000
  22513110.697   -12431554.52049  -9317260.90746  22513110.218    22513119.963
       226.000         177.000
  24378807.912    -8530223.33549  -6336760.07645  24378808.052    24378818.494
       210.000         148.000
 99  5 27 17 48 30.0000000  0  8G24G 4G30G 5G 8G 9G10G 6
  20317112.734    -2084311.59549  -1187495.51448  20317112.536    20317120.121
       243.000         214.000
  22043095.405     6387786.86849   5066394.63647  22043096.262    22043103.405
       233.000         188.000
  22447017.219   -13031000.08049 -10103715.51846  22447017.553    22447024.748
       230.000         182.000
  20405327.065    -8102577.30949  -6297697.90748  20405326.676    20405333.554
       246.000         214.000
  21656058.417    -1714067.77049  -1315160.66047  21656058.323    21656066.315
       233.000         191.000
  22980362.576     6665881.17749   5195512.13546  22980362.906    22980372.756
       227.000         178.000
  22497282.690   -12514730.74549  -9382073.40546  22497280.787    22497292.617
       226.000         177.000
  24366096.359    -8597022.87149  -6388811.57345  24366096.073    24366106.768
       210.000         149.000
 99  5 27 17 49  0.0000000  0  8G24G 4G30G 5G 8G 9G10G 6
  20322027.096    -2058486.43449  -1167372.02048  20322027.153    20322034.578
       244.000         214.000
  22059317.878     6473036.10749   5132822.54847  22059318.182    22059325.892
       233.000         188.000
  22430194.790   -13119402.39149 -10172600.38946  22430194.969    22430202.203
       230.000         182.000
  20399196.362    -8134794.34649  -6322802.09348  20399196.280    20399203.166
       245.000         214.000
  21662601.568    -1679683.32449  -1288367.64447  21662601.323    21662610.211
       233.000         190.000
  22996581.934     6751113.80349   5261927.03846  22996582.337    22996592.570
       226.000         178.000
  22481510.713   -12597612.53649  -9446656.50746  22481509.425    22481519.825
       226.000         178.000
  24353389.307    -8663799.00349  -6440844.83345  24353388.680    24353399.457
       211.000         149.000
 99  5 27 17 49 30.0000000  0  8G24G 4G30G 5G 8G 9G10G 6
  20327021.793    -2032239.39849  -1146919.79648  20327022.115    20327029.368
       244.000         214.000
  22075582.331     6558506.14249   5199422.51947  22075582.732    22075590.616
       232.000         188.000
  22413409.735   -13207608.39549 -10241332.28746  22413410.549    22413417.779
       229.000         182.000
  20393146.275    -8166587.83549  -6347576.23848  20393146.169    20393153.018
       244.000         214.000
  21669252.728    -1644731.65549  -1261132.63847  21669252.699    21669260.697
       233.000         190.000
  23012828.713     6836490.62949   5328454.30046  23012828.690    23012838.941
       225.000         177.000
  22465791.423   -12680217.27449  -9511023.69646  22465790.107    22465801.029
       226.000         178.000
  24340683.225    -8730569.55349  -6492873.74045  24340682.936    24340693.182
       210.000         149.000
 99  5 27 17 50  0.0000000  0  8G24G 4G30G 5G 8G 9G10G 6
  20332097.725    -2005565.27449  -1126134.77148  20332097.842    20332105.186
       244.000         214.000
  22091887.143     6644188.32649   5266187.79946  22091887.485    22091895.113
       233.000         187.000
  22396664.493   -13295604.96449 -10309900.99446  22396664.802    22396672.069
       230.000         183.000
  20387177.425    -8197954.39749  -6372017.71448  20387177.181    20387184.005
       244.000         214.000
  21676009.090    -1609227.00149  -1233466.74047  21676009.211    21676017.218
       233.000         190.000
  23029106.281     6922029.28349   5395107.65246  23029106.102    23029116.369
       226.000         177.000
  22450125.912   -12762539.80549  -9575170.99846  22450124.662    22450135.004
       227.000         178.000
  24327979.515    -8797327.49649  -6544892.83545  24327979.290    24327988.731
       208.000         149.000
 99  5 27 17 50 30.0000000  0  8G24G 4G30G 5G 8G 9G10G 6
  20337250.166    -1978489.29449  -1105036.61648  20337250.405    20337257.668
       244.000         214.000
  22108228.198     6730061.02049   5333101.51646  22108228.512    22108236.503
       233.000         187.000
  22379955.517   -13383411.11849 -10378321.32546  22379956.199    22379963.363
       230.000         183.000
  20381287.676    -8228905.11749  -6396135.16248  20381287.458    20381294.133
       244.000         214.000
  21682863.955    -1573204.78049  -1205397.54047  21682863.876    21682871.806
       233.000         190.000
  23045411.976     7007715.85249   5461876.27246  23045412.143    23045422.030
       227.000         176.000
  22434513.878   -12844581.12449  -9639099.17146  22434512.970    22434523.261
       226.000         179.000
  24315278.667    -8864070.14249  -6596900.00245  24315278.643    24315287.682
       210.000         148.000
 99  5 27 17 51  0.0000000  0  8G24G 4G30G 5G 8G 9G10G 6
  20342471.796    -1951049.48249  -1083654.95248  20342471.860    20342479.252
       244.000         214.000
  22124601.277     6816101.87349   5400146.28146  22124601.827    22124609.658
       232.000         187.000
  22363280.662   -13471038.01149 -10446601.97246  22363281.203    22363287.988
       230.000         184.000
  20375476.389    -8259443.52949  -6419931.32648  20375476.341    20375482.951
       244.000         214.000
  21689810.164    -1536702.33149  -1176954.13447  21689809.917    21689818.489
       233.000         190.000
  23061739.908     7093519.52449   5528736.13446  23061739.770    23061750.480
       225.000         175.000
  22418951.522   -12926361.35649  -9702823.88546  22418951.013    22418961.264
       227.000         179.000
  24302576.407    -8930820.80149  -6648913.42945  24302576.796    24302586.215
       210.000         149.000
 99  5 27 17 51 30.0000000  0  8G24G 4G30G 5G 8G 9G10G 6
  20347771.187    -1923200.96449  -1061954.81748  20347771.201    20347778.527
       244.000         214.000
  22141010.281     6902331.52649   5467338.15446  22141010.607    22141018.699
       233.000         186.000
  22346647.274   -13558446.89649 -10514712.74146  22346647.878    22346655.320
       231.000         184.000
  20369754.122    -8289514.34149  -6443363.12548  20369754.143    20369760.720
       244.000         214.000
  21696852.135    -1499697.14349  -1148118.98847  21696852.072    21696860.218
       233.000         190.000
  23078098.113     7179482.23049   5595719.92146  23078098.515    23078108.315
       226.000         175.000
  22403442.545   -13007861.15149  -9766330.07946  22403441.730    22403451.884
       227.000         180.000
  24289880.206    -8997539.34149  -6700901.83945  24289880.885    24289890.783
       210.000         149.000
 99  5 27 17 52  0.0000000  0  8G24G 4G30G 5G 8G 9G10G 6
  20353155.463    -1894906.44549  -1039907.15348  20353155.564    20353162.864
       244.000         214.000
  22157458.664     6988767.97549   5534691.17846  22157459.050    22157467.137
       232.000         186.000
  22330059.196   -13645617.70849 -10582637.99946  22330059.282    22330066.835
       230.000         185.000
  20364127.098    -8319084.77749  -6466405.02248  20364126.798    20364133.629
       244.000         214.000
  21703993.979    -1462166.86749  -1118874.68547  21703993.848    21704002.019
       233.000         190.000
  23094492.015     7265632.33049   5662849.72746  23094492.336    23094502.589
       224.000         175.000
  22387990.436   -13089061.89649  -9829603.26246  22387989.228    22387999.661
       229.000         180.000
  24277196.592    -9064192.00849  -6752838.89745  24277196.726    24277206.533
       210.000         150.000
 99  5 27 17 52 30.0000000  0  8G24G 4G30G 5G 8G 9G10G 6
  20358624.596    -1866166.05849  -1017512.05648  20358624.677    20358631.937
       244.000         214.000
  22173949.950     7075429.81149   5602219.81846  22173950.783    22173958.350
       232.000         186.000
  22313517.040   -13732547.20249 -10650375.21446  22313517.783    22313525.247
       231.000         185.000
  20358599.280    -8348133.72049  -6489040.56348  20358599.075    20358605.859
       244.000         214.000
  21711241.032    -1424083.35549  -1089199.28547  21711240.731    21711249.027
       233.000         190.000
  23110920.317     7351962.75849   5730120.05446  23110920.543    23110930.774
       226.000         175.000
  22372598.053   -13169948.85849  -9892631.92746  22372597.163    22372606.947
       228.000         180.000
  24264526.334    -9130774.62749  -6804721.38445  24264526.088    24264536.868
       208.000         150.000
 99  5 27 17 53  0.0000000  0  8G24G 4G30G 5G 8G 9G10G 6
  20364174.532    -1837001.14749   -994786.16248  20364174.615    20364182.121
       244.000         214.000
  22190478.360     7162287.02549   5669900.70846  22190478.731    22190486.331
       232.000         185.000
  22297015.465   -13819263.43149 -10717946.25546  22297015.407    22297023.495
       231.000         185.000
  20353164.937    -8376691.29449  -6511293.21748  20353164.797    20353171.385
       244.000         214.000
  21718588.046    -1385474.84949  -1059114.79947  21718587.805    21718596.135
       233.000         190.000
  23127378.539     7438450.56949   5797513.00946  23127378.669    23127389.256
       225.000         175.000
  22357260.861   -13250545.77049  -9955434.58546  22357259.841    22357270.298
       228.000         180.000
  24251861.800    -9197326.60349  -6856579.97945  24251860.786    24251871.550
       210.000         149.000
 99  5 27 17 53 30.0000000  0  8G24G 4G30G 5G 8G 9G10G 6
  20369811.945    -1807376.41449   -971701.96748  20369812.003    20369819.506
       244.000         214.000
  22207051.296     7249378.18549   5737763.89146  22207051.918    22207059.635
       231.000         185.000
  22280559.443   -13905740.38049 -10785330.84246  22280559.859    22280567.141
       232.000         186.000
  20347826.408    -8404745.46849  -6533153.61448  20347826.213    20347832.847
       244.000         214.000
  21726040.605    -1346311.77549  -1028598.18747  21726040.675    21726048.899
       232.000         190.000
  23143873.148     7525129.49749   5865054.88846  23143873.070    23143883.558
       225.000         175.000
  22341985.626   -13330816.93549 -10017983.42846  22341985.205    22341994.578
       227.000         180.000
  24239207.378    -9263825.69949  -6908397.38145  24239207.776    24239217.752
       210.000         150.000
 99  5 27 17 54  0.0000000  0  8G24G 4G30G 5G 8G 9G10G 6
  20375530.633    -1777324.44449   -948284.86648  20375530.814    20375538.065
       244.000         214.000
  22223666.417     7336691.11649   5805799.87346  22223666.626    22223674.883
       231.000         184.000
  22264145.863   -13991994.01549 -10852541.41946  22264146.402    22264153.363
       232.000         186.000
  20342576.318    -8432334.86049  -6554651.84648  20342576.218    20342582.923
       244.000         215.000
  21733593.605    -1306620.87549   -997670.27947  21733593.496    21733601.799
       233.000         190.000
  23160397.229     7611963.34449   5932717.47146  23160397.720    23160407.792
       224.000         175.000
  22326768.264   -13410784.26549 -10080295.51046  22326767.141    22326777.571
       227.000         180.000
  24226554.122    -9330318.78149  -6960210.10445  24226553.926    24226563.662
       210.000         150.000
 99  5 27 17 54 30.0000000  0  8G24G 4G30G 5G 8G 9G10G 6
  20381332.359    -1746836.24549   -924527.84348  20381332.397    20381339.769
       244.000         214.000
  22240323.804     7424226.17849   5874008.95446  22240324.384    22240331.504
       231.000         184.000
  22247777.602   -14078009.32649 -10919566.29046  22247778.154    22247784.897
       233.000         186.000
  20337413.329    -8459466.65749  -6575793.50948  20337413.042    20337420.108
       244.000         215.000
  21741245.572    -1266409.93249   -966337.14647  21741245.489    21741253.610
       234.000         190.000
  23176949.677     7698946.14549   6000496.13946  23176949.742    23176960.673
       223.000         173.000
  22311610.169   -13490440.05149 -10142364.84146  22311608.975    22311619.646
       228.000         181.000
  24213902.364    -9396803.72249  -7012016.47545  24213902.264    24213912.807
       210.000         150.000
 99  5 27 17 55  0.0000000  0  8G24G 4G30G 5G 8G 9G10G 6
  20387219.440    -1715899.62849   -900421.40548  20387219.422    20387226.889
       244.000         214.000
  22257024.128     7511986.62949   5942393.66046  22257024.592    22257032.758
       231.000         184.000
  22231457.672   -14163770.85849 -10986393.42146  22231458.382    22231465.462
       233.000         186.000
  20332337.831    -8486138.47749  -6596576.75348  20332337.616    20332344.270
       244.000         215.000
  21748994.825    -1225687.65149   -934605.57347  21748994.974    21749003.138
       233.000         189.000
  23193532.010     7786086.43749   6068397.50646  23193532.312    23193542.380
       222.000         172.000
  22296514.182   -13569769.52649 -10204179.90746  22296512.835    22296522.866
       228.000         181.000
  24201255.250    -9463264.64649  -7063804.13245  24201255.699    24201265.614
       209.000         151.000
 99  5 27 17 55 30.0000000  0  8G24G 4G30G 5G 8G 9G10G 6
  20393186.494    -1684542.42749   -875987.23948  20393186.671    20393193.975
       244.000         214.000
  22273762.251     7599945.99849   6010933.37346  22273762.425    22273770.363
       231.000         184.000
  22215184.020   -14249289.33549 -11053031.14746  22215184.148    22215192.078
       233.000         187.000
  20327345.654    -8512372.69149  -6617019.00448  20327345.561    20327352.198
       244.000         215.000
  21756838.903    -1184466.98949   -902485.65047  21756838.774    21756846.679
       232.000         189.000
  23210136.675     7873344.05349   6136390.30446  23210136.797    23210147.098
       223.000         172.000
  22281474.792   -13648801.55649 -10265763.19946  22281473.717    22281483.740
       229.000         182.000
  24188607.205    -9529730.29249  -7115595.49145  24188607.665    24188616.737
       210.000         152.000
 99  5 27 17 56  0.0000000  0  8G24G 4G30G 5G 8G 9G10G 6
  20399228.357    -1652792.25449   -851246.86148  20399228.418    20399235.863
       244.000         214.000
  22290530.046     7688061.04849   6079594.39146  22290530.747    22290538.281
       231.000         184.000
  22198952.731   -14334585.25149 -11119495.45246  22198953.234    22198960.173
       233.000         187.000
  20322431.375    -8538197.48849  -6637142.22548  20322431.094    20322437.860
       244.000         215.000
  21764771.208    -1142782.66549   -870004.43247  21764771.192    21764779.787
       232.000         189.000
  23226755.465     7960676.05749   6204441.06346  23226755.941    23226766.300
       222.000         172.000
  22266488.539   -13727554.32949 -10327128.89446  22266487.362    22266497.844
       229.000         181.000
  24175955.687    -9596214.43749  -7167401.32045  24175955.524    24175965.479
       211.000         151.000
 99  5 27 17 56 30.0000000  0  8G24G 4G30G 5G 8G 9G10G 6
  20405349.092    -1620627.77749   -826183.64648  20405349.161    20405356.479
       244.000         214.000
  22307329.261     7776341.19749   6148384.05146  22307329.587    22307337.859
       230.000         184.000
  22182768.523   -14419633.72349 -11185766.95347  22182768.819    22182775.981
       234.000         188.000
  20317601.728    -8563577.27349  -6656918.68648  20317601.497    20317608.255
       244.000         215.000
  21772796.703    -1100608.69649   -837141.67047  21772796.457    21772805.096
       233.000         189.000
  23243392.348     8048102.51549   6272565.43046  23243392.534    23243403.074
       224.000         172.000
  22251563.729   -13805984.25349 -10388243.01946  22251562.854    22251572.497
       230.000         181.000
  24163308.076    -9662678.00049  -7219190.96145  24163307.610    24163318.364
       212.000         152.000
 99  5 27 17 57  0.0000000  0  8G24G 4G30G 5G 8G 9G10G 6
  20411549.192    -1588045.98249   -800795.24748  20411549.079    20411556.563
       244.000         214.000
  22324159.958     7864786.67249   6217302.54146  22324160.176    22324169.138
       230.000         183.000
  22166634.135   -14504420.41549 -11251834.46247  22166635.098    22166641.722
       234.000         188.000
  20312859.174    -8588499.47349  -6676338.58748  20312858.870    20312865.612
       244.000         215.000
  21780918.348    -1057929.14949   -803884.96247  21780918.434    21780926.273
       232.000         188.000
  23260048.524     8135630.25249   6340768.70346  23260049.633    23260059.114
       224.000         172.000
  22236703.488   -13884074.96549 -10449092.81846  22236701.992    22236712.876
       229.000         182.000
  24150662.825    -9729128.47749  -7270970.51245  24150662.784    24150672.899
       210.000         152.000
 99  5 27 17 57 30.0000000  0  8G24G 4G30G 5G 8G 9G10G 6
  20417829.556    -1555042.19449   -775078.02648  20417829.581    20417837.149
       244.000         213.000
  22341021.628     7953394.93049   6286347.87546  22341021.852    22341029.947
       230.000         182.000
  22150551.993   -14588932.55249 -11317688.03947  22150552.612    22150559.610
       233.000         188.000
  20308203.724    -8612964.13649  -6695401.96848  20308203.453    20308210.416
       244.000         215.000
  21789136.356    -1014743.40349   -770233.80547  21789136.525    21789144.507
       232.000         188.000
  23276723.895     8223259.09249   6409050.75446  23276723.849    23276734.462
       222.000         172.000
  22221907.890   -13961825.97749 -10509677.92346  22221907.204    22221916.845
       230.000         183.000
  24138021.610    -9795558.21149  -7322733.92945  24138021.585    24138030.574
       211.000         152.000
 99  5 27 17 58  0.0000000  0  8G24G 4G30G 5G 8G 9G10G 6
  20424188.165    -1521627.41249   -749040.54948  20424188.239    20424195.802
       244.000         213.000
  22357912.982     8042159.39349   6355514.92046  22357913.808    22357921.481
       229.000         182.000
  22134519.658   -14673182.93649 -11383337.65747  22134519.771    22134527.465
       234.000         188.000
  20303635.661    -8636969.56049  -6714107.50348  20303635.516    20303642.350
       245.000         215.000
  21797448.743     -971061.91049   -736196.35747  21797448.301    21797457.320
       231.000         188.000
  23293420.834     8311001.58749   6477421.37046  23293421.540    23293431.473
       222.000         171.000
  22207177.269   -14039235.55449 -10569996.98346  22207176.602    22207186.993
       230.000         183.000
  24125386.120    -9861957.88949  -7374473.80745  24125386.263    24125396.096
       212.000         152.000
 99  5 27 17 58 30.0000000  0  8G24G 4G30G 5G 8G 9G10G 6
  20430623.166    -1487811.52949   -722690.52448  20430623.374    20430630.821
       244.000         213.000
  22374834.119     8131080.39049   6424803.94446  22374834.514    22374842.419
       228.000         181.000
  22118535.805   -14757178.35349 -11448788.59647  22118536.006    22118543.451
       234.000         188.000
  20299155.541    -8660512.86149  -6732452.94048  20299155.297    20299162.228
       244.000         215.000
  21805860.547     -926857.85349   -701751.71347  21805860.597    21805869.250
       232.000         188.000
  23310142.169     8398872.42849   6545892.00046  23310142.644    23310153.938
       221.000         171.000
  22192508.950   -14116317.85049 -10630061.02246  22192508.266    22192518.409
       230.000         183.000
  24112754.489    -9928337.63049  -7426198.17745  24112754.238    24112764.640
       212.000         153.000
 99  5 27 17 59  0.0000000  0  8G24G 4G30G 5G 8G 9G10G 6
  20437137.218    -1453580.20849   -696016.78048  20437137.354    20437144.588
       244.000         213.000
  22391790.045     8220184.11849   6494235.36246  22391790.776    22391798.908
       229.000         181.000
  22102600.728   -14840917.47349 -11514039.82347  22102600.808    22102608.012
       234.000         188.000
  20294763.708    -8683592.16149  -6750436.82348  20294763.578    20294770.389
       244.000         215.000
  21814373.536     -882122.26349   -666892.89247  21814373.473    21814382.076
       232.000         188.000
  23326892.157     8486893.66949   6614479.80846  23326893.338    23326903.367
       223.000         171.000
  22177902.458   -14193075.09249 -10689871.76646  22177901.448    22177911.121
       230.000         184.000
  24100128.665    -9994686.57849  -7477898.58045  24100128.658    24100138.114
       212.000         153.000
 99  5 27 17 59 30.0000000  0  8G24G 4G30G 5G 8G 9G10G 6
  20443722.995    -1418971.87749   -669049.26748  20443723.075    20443730.487
       244.000         213.000
  22408777.769     8309454.72349   6563796.81746  22408778.426    22408786.411
       228.000         181.000
  22086705.745   -14924446.02649 -11579126.97847  22086706.321    22086713.355
       233.000         189.000
  20290456.806    -8706225.23649  -6768072.99848  20290456.729    20290463.470
       244.000         215.000
  21822982.084     -836884.15049   -631642.49747  21822982.314    21822990.715
       232.000         188.000
  23343666.828     8575044.54749   6683168.64446  23343666.576    23343678.710
       222.000         171.000
  22163352.616   -14269534.91549 -10749450.75746  22163352.101    22163361.346
       231.000         185.000
  24087508.085   -10061008.16149  -7529577.66945  24087508.475    24087517.504
       212.000         153.000
 99  5 27 18  0  0.0000000  0  8G24G 4G30G 5G 8G 9G10G 6
  20450378.172    -1383998.67449   -641797.43648  20450378.258    20450385.760
       244.000         213.000
  22425794.581     8398878.29649   6633477.46746  22425795.485    22425803.130
       229.000         181.000
  22070847.016   -15007784.08949 -11644065.69647  22070847.570    22070854.574
       233.000         189.000
  20286232.860    -8728422.29149  -6785369.41348  20286232.623    20286239.433
       244.000         215.000
  21831683.670     -791157.44149   -596011.37146  21831683.910    21831692.244
       231.000         187.000
  23360463.772     8663312.24449   6751948.49646  23360464.877    23360474.519
       223.000         171.000
  22148857.836   -14345705.42849 -10808804.31146  22148856.985    22148866.717
       231.000         185.000
  24074887.352   -10127330.30149  -7581257.17945  24074887.512    24074896.644
       212.000         154.000
 99  5 27 18  0 30.0000000  0  8G24G 4G30G 5G 8G 9G10G 6
  20457113.085    -1348606.55249   -614219.17748  20457113.215    20457120.606
       244.000         213.000
  22442847.075     8488489.43949   6703304.25846  22442847.560    22442856.057
       228.000         180.000
  22055033.346   -15090885.47449 -11708819.99247  22055033.578    22055040.971
       234.000         190.000
  20282098.531    -8750148.36449  -6802298.83648  20282098.186    20282105.111
       244.000         215.000
  21840480.978     -744927.75349   -559988.31846  21840480.690    21840489.476
       231.000         187.000
  23377287.181     8751719.07549   6820836.77046  23377287.641    23377298.000
       223.000         171.000
  22134425.957   -14421545.05049 -10867900.04746  22134425.576    22134435.151
       231.000         185.000
  24062270.649   -10193631.47249  -7632920.36645  24062270.147    24062280.326
       210.000         154.000
 99  5 27 18  1  0.0000000  0  8G24G 4G30G 5G 8G 9G10G 6
  20463926.604    -1312801.30249   -586318.99848  20463926.748    20463934.124
       244.000         213.000
  22459933.589     8578279.22849   6773270.26446  22459933.811    22459941.810
       228.000         180.000
  22039264.589   -15173750.75649 -11773390.30647  22039265.364    22039272.178
       234.000         190.000
  20278053.634    -8771404.30249  -6818861.92148  20278053.476    20278060.465
       244.000         215.000
  21849363.874     -698247.89749   -523614.48146  21849363.900    21849372.558
       230.000         187.000
  23394132.323     8840240.14649   6889814.06146  23394133.069    23394142.927
       222.000         171.000
  22120056.882   -14497054.68449 -10926738.64446  22120055.954    22120065.436
       231.000         185.000
  24049655.785   -10259922.22349  -7684575.45845  24049655.630    24049665.493
       211.000         154.000
 99  5 27 18  1 30.0000000  0  8G24G 4G30G 5G 8G 9G10G 6
  20470814.134    -1276607.21749   -558115.83248  20470814.090    20470821.618
       244.000         213.000
  22477046.198     8668206.44449   6843343.36246  22477047.254    22477054.406
       229.000         180.000
  22023541.819   -15256374.50949 -11837772.41347  22023541.939    22023549.102
       234.000         190.000
  20274096.690    -8792198.26849  -6835065.02848  20274096.515    20274103.459
       244.000         215.000
  21858327.350     -651144.93849   -486910.95646  21858327.125    21858335.518
       231.000         187.000
  23410993.283     8928844.43549   6958856.20446  23410993.247    23411004.565
       223.000         170.000
  22105750.886   -14572232.76749 -10985318.89246  22105750.218    22105759.247
       230.000         185.000
  24037037.897   -10326228.98649  -7736242.98445  24037037.425    24037048.118
       212.000         154.000
 99  5 27 18  2  0.0000000  0  8G24G 4G30G 5G 8G 9G10G 6
  20477784.695    -1239976.70649   -529572.58948  20477784.895    20477792.384
       244.000         213.000
  22494189.593     8758295.16149   6913542.30546  22494189.956    22494197.944
       228.000         179.000
  22007876.834   -15338694.25249 -11901917.63147  22007877.154    22007884.120
       234.000         191.000
  20270235.276    -8812490.39149  -6850877.08548  20270235.098    20270242.042
       245.000         216.000
  21867376.322     -603592.65349   -449857.30946  21867376.151    21867385.092
       231.000         187.000
  23427875.859     9017562.24349   7027986.80046  23427876.269    23427887.255
       222.000         170.000
  22091515.810   -14647038.09349 -11043608.67646  22091514.962    22091524.785
       230.000         185.000
  24024418.738   -10392543.01549  -7787916.15345  24024418.891    24024428.543
       213.000         154.000
 99  5 27 18  2 30.0000000  0  8G24G 4G30G 5G 8G 9G10G 6
  20484843.993    -1202880.05949   -500666.13448  20484844.018    20484851.493
       244.000         213.000
  22511373.835     8848598.76949   6983908.67246  22511374.210    22511382.796
       227.000         179.000
  21992280.352   -15420653.89549 -11965782.25747  21992280.601    21992288.166
       234.000         191.000
  20266481.894    -8832214.64749  -6866246.65548  20266481.817    20266488.614
       244.000         216.000
  21876523.244     -555525.82349   -412402.72546  21876523.058    21876531.794
       231.000         187.000
  23444786.770     9106429.02649   7097233.46746  23444787.202    23444798.516
       221.000         170.000
  22077362.344   -14721414.85849 -11101564.53546  22077361.491    22077371.015
       231.000         186.000
  24011810.463   -10458799.84049  -7839544.79445  24011810.490    24011820.676
       214.000         154.000
 99  5 27 18  3  0.0000000  0  8G24G 4G30G 5G 8G 9G10G 6
  20491972.633    -1165419.03549   -471475.74748  20491972.872    20491980.191
       244.000         213.000
  22528583.056     8939033.68349   7054377.38346  22528583.286    22528591.539
       227.000         179.000
  21976738.617   -15502326.01449 -12029422.83147  21976739.150    21976746.465
       234.000         191.000
  20262822.626    -8851444.26749  -6881230.78848  20262822.400    20262829.313
       244.000         215.000
  21885758.245     -506995.94949   -374587.31946  21885758.045    21885766.963
       231.000         186.000
  23461710.511     9195363.18949   7166532.63946  23461710.546    23461722.413
       220.000         170.000
  22063278.125   -14795427.55849 -11159236.70346  22063277.601    22063287.119
       231.000         186.000
  23999199.979   -10525068.34049  -7891182.53445  23999200.199    23999209.629
       213.000         155.000
 99  5 27 18  3 30.0000000  0  8G24G 4G30G 5G 8G 9G10G 6
  20499176.750    -1127561.27149   -441976.21348  20499176.765    20499184.227
       244.000         213.000
  22545822.444     9029627.00749   7124969.51546  22545823.541    22545831.137
       227.000         178.000
  21961257.819   -15583678.03649 -12092813.98347  21961258.377    21961265.878
       235.000         192.000
  20259264.605    -8870141.80549  -6895800.31248  20259264.373    20259271.138
       244.000         215.000
  21895094.014     -457936.50849   -336359.26446  21895093.972    21895102.727
       231.000         186.000
  23478654.416     9284403.65249   7235914.63846  23478654.875    23478666.459
       220.000         169.000
  22049271.768   -14869031.13149 -11216590.07846  22049270.937    22049280.796
       231.000         186.000
  23986595.011   -10591307.64049  -7942797.50745  23986595.605    23986604.833
       212.000         155.000
 99  5 27 18  4  0.0000000  0  8G24G 4G30G 5G 8G 9G10G 6
  20506452.233    -1089328.36649   -412184.35848  20506452.398    20506459.853
       244.000         213.000
  22563090.144     9120369.11049   7195677.58046  22563091.107    22563098.823
       226.000         178.000
  21945832.265   -15664740.02149 -12155979.13547  21945832.706    21945839.704
       235.000         192.000
  20255802.655    -8888334.60249  -6909976.52848  20255802.490    20255809.251
       244.000         215.000
  21904529.974     -408350.56449   -297720.94546  21904529.670    21904538.600
       231.000         186.000
  23495614.616     9373529.50749   7305363.16546  23495614.824    23495626.652
       221.000         169.000
  22035337.774   -14942254.51149 -11273647.20046  22035337.004    22035346.761
       231.000         186.000
  23973994.575   -10657523.18549  -7994393.97145  23973994.369    23974004.865
       212.000         155.000
 99  5 27 18  4 30.0000000  0  8G24G 4G30G 5G 8G 9G10G 6
  20513793.129    -1050751.76449   -382124.69047  20513793.087    20513800.581
       244.000         212.000
  22580382.916     9211243.04849   7266488.38346  22580383.106    22580391.454
       226.000         177.000
  21930457.317   -15745535.96949 -12218936.98147  21930457.760    21930465.063
       236.000         193.000
  20252430.391    -8906055.93949  -6923785.37448  20252430.184    20252437.040
       245.000         216.000
  21914063.274     -358252.96949   -258683.94046  21914063.520    21914071.760
       231.000         186.000
  23512587.377     9462721.10749   7374862.93146  23512588.114    23512598.813
       221.000         169.000
  22021475.638   -15015100.50749 -11330410.25746  22021475.080    22021484.103
       231.000         187.000
  23961397.557   -10723720.53249  -8045976.25245  23961397.809    23961407.272
       215.000         155.000
 99  5 27 18  5  0.0000000  0  8G24G 4G30G 5G 8G 9G10G 6
  20521202.866    -1011813.48449   -351783.19447  20521202.967    20521210.468
       243.000         212.000
  22597699.771     9302243.59749   7337397.83146  22597700.258    22597708.369
       226.000         177.000
  21915133.999   -15826060.74849 -12281683.53147  21915134.348    21915141.940
       236.000         193.000
  20249144.614    -8923323.02049  -6937240.25548  20249144.399    20249151.300
       244.000         216.000
  21923688.869     -307670.65049   -219269.23546  21923689.406    21923697.562
       231.000         186.000
  23529575.360     9551992.59849   7444424.95346  23529576.603    23529587.230
       222.000         168.000
  22007684.905   -15087571.14149 -11386880.82446  22007683.848    22007693.467
       231.000         187.000
  23948800.855   -10789916.30249  -8097557.31545  23948800.710    23948809.915
       215.000         156.000
 99  5 27 18  5 30.0000000  0  8G24G 4G30G 5G 8G 9G10G 6
  20528680.903     -972516.05049   -321161.83847  20528680.960    20528688.511
       244.000         212.000
  22615041.554     9393375.26549   7408409.45046  22615042.322    22615050.678
       227.000         177.000
  21899860.260   -15906324.62049 -12344226.77747  21899860.642    21899867.649
       237.000         194.000
  20245943.403    -8940145.53649  -6950348.72448  20245943.035    20245949.973
       245.000         216.000
  21933399.874     -256639.52249   -179504.80746  21933399.743    21933408.266
       231.000         186.000
  23546575.216     9641326.44549   7514035.54446  23546575.285    23546586.928
       221.000         167.000
  21993960.198   -15159694.61849 -11443080.89146  21993959.409    21993968.827
       231.000         187.000
  23936202.310   -10856121.99149  -8149146.10645  23936202.352    23936212.624
       215.000         156.000
 99  5 27 18  6  0.0000000  0  8G24G 4G30G 5G 8G 9G10G 6
  20536224.140     -932876.10549   -290273.58847  20536224.218    20536231.852
       243.000         212.000
  22632406.434     9484628.07549   7479515.47446  22632406.631    22632415.323
       226.000         176.000
  21884634.668   -15986335.58249 -12406572.94547  21884635.052    21884642.123
       236.000         194.000
  20242823.896    -8956538.70349  -6963122.63648  20242823.875    20242830.660
       245.000         216.000
  21943188.886     -205198.01149   -139420.59446  21943188.806    21943197.408
       230.000         186.000
  23563580.898     9730691.28849   7583670.29846  23563581.912    23563592.715
       219.000         166.000
  21980297.814   -15231490.94649 -11499026.02947  21980297.507    21980306.908
       232.000         188.000
  23923598.888   -10922353.35749  -8200754.90045  23923599.407    23923608.694
       215.000         156.000
 99  5 27 18  6 30.0000000  0  8G24G 4G30G 5G 8G 9G10G 6
  20543839.000     -892859.85649   -259092.11347  20543838.946    20543846.704
       243.000         212.000
  22649799.560     9576029.26149   7550737.10946  22649800.050    22649808.201
       226.000         176.000
  21869462.577   -16066065.48349 -12468700.10547  21869463.156    21869469.809
       235.000         194.000
  20239795.563    -8972452.95249  -6975523.36148  20239795.311    20239802.362
       245.000         216.000
  21953059.216     -153329.27949    -99003.48546  21953058.934    21953067.445
       230.000         186.000
  23580597.023     9820111.06449   7653347.84446  23580598.042    23580608.474
       219.000         165.000
  21966704.591   -15302923.67049 -11554687.84547  21966704.167    21966713.091
       232.000         188.000
  23910996.585   -10988578.44849  -8252358.80445  23910996.492    23911006.685
       214.000         157.000
 99  5 27 18  7  0.0000000  0  8G24G 4G30G 5G 8G 9G10G 6
  20551528.866     -852449.43849   -227603.50247  20551529.013    20551536.360
       243.000         212.000
  22667221.658     9667582.90249   7622077.53346  22667222.249    22667231.014
       226.000         175.000
  21854346.427   -16145501.43149 -12530598.21347  21854347.080    21854354.042
       236.000         194.000
  20236864.891    -8987853.75049  -6987524.00148  20236864.660    20236871.809
       245.000         216.000
  21963013.113     -101021.30149    -58244.11446  21963012.883    21963021.597
       230.000         185.000
  23597624.947     9909592.69949   7723073.60146  23597625.624    23597636.950
       219.000         164.000
  21953179.669   -15373997.28149 -11610069.83947  21953178.791    21953188.775
       232.000         189.000
  23898402.324   -11054761.58349  -8303930.00045  23898402.660    23898412.504
       215.000         156.000
 99  5 27 18  7 30.0000000  0  8G24G 4G30G 5G 8G 9G10G 6
  20559291.902     -811654.25549   -195815.06747  20559292.108    20559299.546
       243.000         212.000
  22684670.986     9759279.45549   7693529.33046  22684672.718    22684678.900
       225.000         175.000
  21839287.345   -16224637.41249 -12592262.58047  21839287.516    21839295.091
       236.000         195.000
  20234034.349    -9002728.50049  -6999114.73448  20234034.260    20234041.193
       245.000         216.000
  21973053.456      -48259.06049    -17130.76846  21973053.232    21973062.642
       230.000         185.000
  23614664.190     9999133.68949   7792845.60046  23614664.088    23614675.742
       218.000         164.000
  21939726.384   -15444694.36149 -11665158.43347  21939725.634    21939735.147
       232.000         188.000
  23885820.644   -11120878.53449  -8355449.62845  23885820.491    23885830.062
       216.000         156.000
 99  5 27 18  8  0.0000000  0  8G24G 4G30G 5G 8G 9G10G 6
  20567131.395     -770457.55649   -163713.76247  20567131.441    20567138.999
       243.000         212.000
  22702146.763     9851114.99349   7765089.42046  22702147.680    22702155.612
       225.000         175.000
  21824288.452   -16303456.77249 -12653680.23647  21824288.539    21824295.396
       235.000         195.000
  20231307.923    -9017056.12949  -7010279.13848  20231307.677    20231314.461
       244.000         216.000
  21983185.797        4986.36149     24359.08046  21983185.827    21983194.729
       231.000         185.000
  23631719.563    10088759.54749   7862683.72646  23631720.570    23631731.298
       219.000         164.000
  21926351.579   -15514979.42349 -11719925.97147  21926350.813    21926360.305
       232.000         189.000
  23873255.076   -11186910.28349  -8406902.85645  23873254.750    23873264.943
       216.000         156.000
 99  5 27 18  8 30.0000000  0  8G24G 4G30G 5G 8G 9G10G 6
  20575042.892     -728882.46049   -131317.60347  20575042.904    20575050.623
       243.000         212.000
  22719645.150     9943069.14549   7836741.92846  22719645.727    22719653.744
       225.000         174.000
  21809347.314   -16381972.75749 -12714861.49947  21809347.873    21809354.709
       236.000         195.000
  20228679.811    -9030867.01249  -7021040.88248  20228679.666    20228686.570
       245.000         216.000
  21993405.956       58692.80849     66208.17846  21993405.902    21993414.726
       230.000         185.000
  23648788.848    10178458.38049   7932578.70546  23648790.093    23648800.436
       220.000         165.000
  21913052.908   -15584864.20949 -11774381.60147  21913052.020    21913061.435
       232.000         189.000
  23860699.529   -11252890.24849  -8458315.72845  23860699.412    23860709.381
       215.000         157.000
 99  5 27 18  9  0.0000000  0  8G24G 4G30G 5G 8G 9G10G 6
  20583026.569     -686928.07149    -98625.89347  20583026.707    20583034.295
       243.000         211.000
  22737166.500    10035144.09049   7908488.57346  22737167.007    22737174.595
       225.000         174.000
  21794467.906   -16460164.21649 -12775789.88247  21794467.974    21794475.138
       236.000         195.000
  20226149.191    -9044165.62149  -7031403.45348  20226148.908    20226155.788
       245.000         216.000
  22003713.149      112857.04749    108413.98946  22003713.306    22003721.890
       230.000         185.000
  23665873.771    10268239.35249   8002537.70046  23665874.156    23665886.082
       218.000         165.000
  21899833.418   -15654332.94949 -11828513.04647  21899832.641    21899842.085
       232.000         189.000
  23848150.541   -11318835.11749  -8509701.26345  23848150.219    23848159.309
       215.000         157.000
 99  5 27 18  9 30.0000000  0  8G24G 4G30G 5G 8G 9G10G 6
  20591079.082     -644612.19149    -65652.49747  20591079.282    20591086.689
       243.000         211.000
  22754709.551    10127333.06049   7980324.07146  22754710.262    22754717.342
       225.000         174.000
  21779648.236   -16538042.07449 -12836473.90247  21779648.933    21779655.551
       236.000         195.000
  20223711.502    -9056975.84649  -7041385.46348  20223711.236    20223718.041
       245.000         216.000
  22014105.454      167468.49649    150968.27746  22014105.462    22014114.096
       230.000         185.000
  23682970.480    10358082.36549   8072545.00746  23682971.260    23682982.736
       219.000         164.000
  21886692.584   -15723388.25549 -11882322.33047  21886692.258    21886701.399
       232.000         189.000
  23835599.393   -11384792.03249  -8561096.18545  23835599.378    23835608.344
       216.000         158.000
 99  5 27 18 10  0.0000000  0  8G24G 4G30G 5G 8G 9G10G 6
  20599203.844     -601916.55049    -32383.18647  20599203.988    20599211.538
       243.000         211.000
  22772278.651    10219658.82549   8052266.15046  22772279.329    22772287.487
       225.000         174.000
  21764891.121   -16615591.18049 -12896901.74947  21764891.769    21764898.942
       236.000         196.000
  20221368.725    -9069287.24149  -7050978.77648  20221368.508    20221375.208
       245.000         216.000
  22024585.073      222538.74849    193880.07446  22024584.857    22024594.271
       230.000         184.000
  23700080.746    10447996.43449   8142607.69946  23700081.765    23700093.579
       218.000         163.000
  21873632.708   -15792018.19249 -11935800.15847  21873632.369    21873642.356
       232.000         190.000
  23823046.407   -11450758.67649  -8612498.68545  23823046.378    23823055.825
       218.000         158.000
 99  5 27 18 10 30.0000000  0  8G24G 4G30G 5G 8G 9G10G 6
  20607393.887     -558877.67649      1153.57747  20607393.898    20607401.400
       243.000         211.000
  22789866.832    10312084.80149   8124286.31346  22789867.733    22789876.305
       224.000         173.000
  21750192.622   -16692832.36549 -12957089.66447  21750193.155    21750200.057
       237.000         196.000
  20219114.687    -9081132.40549  -7060208.79148  20219114.458    20219121.405
       245.000         216.000
  22035146.036      278036.72049    237125.15646  22035145.766    22035155.155
       230.000         184.000
  23717198.740    10537951.22649   8212702.11745  23717199.135    23717210.817
       218.000         162.000
  21860647.851   -15860253.95249 -11988970.83647  21860647.129    21860657.056
       232.000         190.000
  23810485.402   -11516766.91849  -8663933.61045  23810485.374    23810494.771
       217.000         158.000
 99  5 27 18 11  0.0000000  0  8G24G 4G30G 5G 8G 9G10G 6
  20615647.748     -515503.33849     34951.73847  20615648.054    20615655.308
       244.000         211.000
  22807469.900    10404589.48549   8196367.81546  22807470.647    22807478.133
       223.000         173.000
  21735551.515   -16769771.68449 -13017042.36047  21735551.861    21735558.945
       237.000         196.000
  20216951.352    -9092500.90449  -7069067.38148  20216951.096    20216958.086
       244.000         216.000
  22045790.496      333973.52349    280712.19646  22045790.047    22045799.117
       229.000         184.000
  23734324.081    10627944.84749   8282826.80445  23734325.378    23734335.559
       216.000         161.000
  21847735.626   -15928107.86149 -12041843.96147  21847735.098    21847744.732
       232.000         190.000
  23797919.285   -11582802.00549  -8715389.45045  23797919.333    23797928.972
       216.000         158.000
 99  5 27 18 11 30.0000000  0  8G24G 4G30G 5G 8G 9G10G 6
  20623975.296     -471741.96649     69051.48547  20623975.539    20623982.989
       243.000         211.000
  22825098.554    10497228.46749   8268553.96246  22825098.713    22825107.124
       224.000         172.000
  21720977.049   -16846360.92549 -13076722.26247  21720977.690    21720984.227
       238.000         196.000
  20214889.976    -9103333.45649  -7077508.35148  20214889.633    20214896.708
       244.000         216.000
  22056528.990      390404.50649    324684.30446  22056528.823    22056538.033
       230.000         183.000
  23751466.927    10718030.13349   8353022.90745  23751467.091    23751479.120
       217.000         161.000
  21834905.225   -15995531.85749 -12094382.09047  21834904.520    21834914.265
       233.000         190.000
  23785363.396   -11648783.10649  -8766803.22245  23785362.826    23785372.548
       214.000         158.000
 99  5 27 18 12  0.0000000  0  8G24G 4G30G 5G 8G 9G10G 6
  20632365.312     -427652.31949    103407.03247  20632365.441    20632373.018
       243.000         211.000
  22842741.309    10589941.40149   8340797.73646  22842741.979    22842750.626
       224.000         172.000
  21706458.880   -16922654.49149 -13136171.76847  21706459.371    21706466.158
       238.000         197.000
  20212923.268    -9113668.69149  -7085561.79748  20212923.144    20212930.022
       244.000         216.000
  22067347.949      447257.97149    368985.61446  22067348.303    22067356.993
       229.000         183.000
  23768616.575    10808151.30449   8423246.98145  23768618.188    23768628.810
       217.000         160.000
  21822145.427   -16062584.90249 -12146631.16947  21822144.724    21822154.074
       233.000         191.000
  23772810.363   -11714749.30349  -8818205.38345  23772810.396    23772819.885
       216.000         159.000
 99  5 27 18 12 30.0000000  0  8G24G 4G30G 5G 8G 9G10G 6
  20640821.101     -383216.94649    138031.97447  20640821.327    20640828.932
       243.000         211.000
  22860401.692    10682746.93749   8413113.66846  22860402.363    22860409.743
       224.000         172.000
  21692001.121   -16998630.56349 -13195373.87647  21692001.310    21692008.436
       237.000         197.000
  20211057.262    -9123474.63249  -7093202.81048  20211057.116    20211063.988
       244.000         216.000
  22078249.595      504546.04249    413625.58246  22078249.626    22078258.041
       230.000         183.000
  23785776.278    10898325.14649   8493512.09545  23785776.600    23785788.601
       217.000         160.000
  21809461.109   -16129241.38249 -12198571.23347  21809460.205    21809469.801
       233.000         191.000
  23760263.938   -11780680.82649  -8869580.52945  23760264.081    23760273.156
       215.000         159.000
 99  5 27 18 13  0.0000000  0  8G24G 4G30G 5G 8G 9G10G 6
  20649349.404     -338400.48549    172953.86947  20649349.643    20649356.991
       243.000         211.000
  22878088.886    10775693.66349   8485539.63046  22878089.488    22878097.520
       224.000         171.000
  21677608.791   -17074262.64849 -13254307.95047  21677609.173    21677616.146
       237.000         197.000
  20209299.064    -9132714.14749  -7100402.44848  20209298.923    20209305.708
       245.000         216.000
  22089237.236      562286.00349    458617.66746  22089237.319    22089245.927
       230.000         183.000
  23802949.089    10988568.10849   8563831.05945  23802949.131    23802961.633
       216.000         160.000
  21796859.258   -16195464.39549 -12250173.52447  21796858.609    21796867.990
       233.000         191.000
  23747729.963   -11846547.05449  -8920904.80945  23747729.699    23747739.181
       214.000         159.000
 99  5 27 18 13 30.0000000  0  8G24G 4G30G 5G 8G 9G10G 6
  20657949.758     -293205.53049    208170.69347  20657949.939    20657957.284
       244.000         211.000
  22895803.063    10868782.07749   8558075.98446  22895802.935    22895811.348
       223.000         171.000
  21663281.535   -17149552.80749 -13312975.58547  21663282.272    21663289.062
       237.000         197.000
  20207646.089    -9141400.68949  -7107171.20248  20207645.868    20207652.894
       244.000         216.000
  22100305.380      620448.96849    503939.36146  22100305.627    22100314.117
       229.000         183.000
  23820131.227    11078860.18949   8634188.29245  23820132.066    23820143.913
       216.000         160.000
  21784340.691   -16261249.77549 -12301434.80947  21784339.935    21784349.406
       234.000         192.000
  23735204.657   -11912367.73849  -8972193.59445  23735204.370    23735213.644
       217.000         160.000
 99  5 27 18 14  0.0000000  0  8G24G 4G30G 5G 8G 9G10G 6
  20666623.666     -247624.00749    243688.74147  20666623.774    20666631.186
       243.000         211.000
  22913544.241    10962012.25249   8630722.79646  22913545.133    22913553.029
       223.000         171.000
  21649023.224   -17224480.92049 -13371361.10847  21649023.783    21649030.705
       238.000         197.000
  20206097.843    -9149536.80749  -7113511.05248  20206097.590    20206104.682
       244.000         216.000
  22111455.263      679041.60549    549595.86346  22111455.448    22111464.344
       229.000         183.000
  23837321.491    11169194.49349   8704578.41045  23837322.375    23837334.605
       217.000         160.000
  21771908.343   -16326582.00749 -12352342.98847  21771907.752    21771916.624
       234.000         192.000
  23722685.037   -11978158.58949  -9023459.13445  23722685.547    23722694.568
       216.000         160.000
 99  5 27 18 14 30.0000000  0  8G24G 4G30G 5G 8G 9G10G 6
  20675365.251     -201686.83349    279483.91947  20675365.572    20675372.753
       243.000         211.000
  22931304.739    11055344.08249   8703448.82446  22931305.318    22931313.138
       223.000         170.000
  21634827.817   -17299078.22949 -13429488.85447  21634828.190    21634835.022
       239.000         197.000
  20204644.708    -9157173.29749  -7119461.58048  20204644.496    20204651.443
       244.000         216.000
  22122680.302      738029.18349    595560.11046  22122680.127    22122689.987
       229.000         183.000
  23854512.153    11259530.75549   8774970.07945  23854513.194    23854524.874
       217.000         161.000
  21759558.606   -16391480.13849 -12402912.90047  21759558.161    21759567.356
       233.000         192.000
  23710163.203   -12043960.65349  -9074733.41545  23710162.736    23710172.287
       215.000         160.000
 99  5 27 18 15  0.0000000  0  8G24G 4G30G 5G 8G 9G10G 6
  20684177.885     -155376.23849    315570.07247  20684178.091    20684185.453
       243.000         210.000
  22949089.526    11148803.25249   8776274.07246  22949090.655    22949098.322
       223.000         170.000
  21620701.352   -17373313.15949 -13487334.23247  21620701.490    21620708.754
       238.000         198.000
  20203290.643    -9164289.01849  -7125006.31948  20203290.543    20203297.376
       245.000         216.000
  22133984.993      797435.32949    641850.50946  22133985.061    22133993.982
       229.000         182.000
  23871707.814    11349893.38049   8845382.28245  23871708.240    23871720.131
       217.000         161.000
  21747296.488   -16455917.87049 -12453124.06647  21747295.780    21747304.987
       234.000         192.000
  23697646.060   -12109738.62249  -9125988.91945  23697646.161    23697655.600
       216.000         161.000
 99  5 27 18 15 30.0000000  0  8G24G 4G30G 5G 8G 9G10G 6
  20693052.926     -108737.66049    351911.79947  20693052.938    20693060.547
       243.000         210.000
  22966889.355    11242341.84849   8849161.21246  22966889.393    22966898.250
       222.000         170.000
  21606638.161   -17447215.73449 -13544920.62947  21606638.405    21606645.282
       238.000         198.000
  20202028.040    -9170924.15549  -7130176.57748  20202027.907    20202034.774
       245.000         216.000
  22145362.858      857226.02549    688440.56446  22145362.994    22145371.851
       228.000         182.000
  23888902.494    11440251.07749   8915790.64445  23888902.567    23888914.982
       218.000         160.000
  21735115.783   -16519927.73749 -12503001.82947  21735115.213    21735124.441
       234.000         192.000
  23685126.022   -12175531.85049  -9177256.31245  23685126.468    23685135.034
       216.000         161.000
 99  5 27 18 16  0.0000000  0  8G24G 4G30G 5G 8G 9G10G 6
  20701989.536      -61775.55449    388505.62247  20701989.751    20701997.317
       243.000         210.000
  22984707.596    11335976.95749   8922123.55846  22984707.828    22984717.198
       222.000         170.000
  21592640.292   -17520774.50449 -13602239.12247  21592640.556    21592647.656
       238.000         198.000
  20200860.908    -9177057.74549  -7134956.01848  20200860.755    20200867.730
       245.000         216.000
  22156818.506      917425.49149    735349.14046  22156818.124    22156827.276
       229.000         182.000
  23906100.222    11530624.96549   8986211.62345  23906100.011    23906112.940
       216.000         160.000
  21723021.160   -16583485.19349 -12552527.06447  21723020.416    21723029.622
       233.000         192.000
  23672606.304   -12241323.51549  -9228522.48245  23672606.745    23672615.093
       218.000         161.000
 99  5 27 18 16 30.0000000  0  8G24G 4G30G 5G 8G 9G10G 6
  20710984.576      -14506.33549    425338.75747  20710984.634    20710992.251
       243.000         210.000
  23002542.864    11429701.35149   8995155.47246  23002543.021    23002552.474
       222.000         169.000
  21578704.986   -17594004.78449 -13659301.64447  21578705.483    21578712.386
       238.000         198.000
  20199787.500    -9182698.51849  -7139351.44548  20199787.318    20199794.173
       244.000         216.000
  22168349.480      978020.64149    782566.03946  22168349.131    22168358.373
       228.000         181.000
  23923301.725    11621018.68549   9056648.06245  23923302.582    23923315.261
       216.000         159.000
  21711011.330   -16646597.02149 -12601705.04647  21711010.760    21711020.067
       234.000         193.000
  23660087.624   -12307109.53949  -9279784.26145  23660087.802    23660096.835
       216.000         161.000
 99  5 27 18 17  0.0000000  0  8G24G 4G30G 5G 8G 9G10G 6
  20720032.413       33040.17549    462387.96247  20720032.550    20720040.122
       243.000         210.000
  23020391.561    11523496.73149   9068242.69546  23020392.004    23020400.214
       221.000         169.000
  21564830.508   -17666915.57249 -13716115.21647  21564830.788    21564837.702
       238.000         199.000
  20198803.232    -9187871.11049  -7143382.05648  20198802.950    20198809.870
       245.000         216.000
  22179951.250     1038988.21149    830073.13346  22179951.579    22179959.955
       228.000         181.000
  23940504.212    11711417.61349   9127088.58145  23940504.823    23940516.905
       217.000         158.000
  21699079.469   -16709299.53549 -12650564.08947  21699079.050    21699087.588
       235.000         194.000
  23647564.330   -12372919.29249  -9331064.52345  23647563.792    23647573.573
       216.000         161.000
 99  5 27 18 17 30.0000000  0  8G24G 4G30G 5G 8G 9G10G 6
  20729134.418       80871.48149    499659.08047  20729134.339    20729141.900
       243.000         210.000
  23038253.628    11617362.30549   9141384.61646  23038253.489    23038262.667
       222.000         168.000
  21551019.828   -17739491.01849 -13772667.48247  21551020.429    21551027.131
       239.000         199.000
  20197908.705    -9192572.05649  -7147045.15848  20197908.399    20197915.462
       245.000         216.000
  22191625.114     1100334.47849    877875.31646  22191624.808    22191634.380
       228.000         181.000
  23957708.197    11801824.16549   9197535.06845  23957707.934    23957720.887
       216.000         158.000
  21687226.659   -16771586.30249 -12699099.17847  21687225.796    21687235.388
       235.000         194.000
  23635036.162   -12438754.83749  -9382364.88645  23635035.915    23635045.768
       218.000         161.000
 99  5 27 18 18  0.0000000  0  8G24G 4G30G 5G 8G 9G10G 6
  20738287.296      128970.25649    537138.62047  20738287.242    20738294.743
       243.000         210.000
  23056123.066    11711266.51149   9214556.64346  23056123.248    23056132.504
       223.000         168.000
  21537267.779   -17811758.67549 -13828979.91547  21537268.409    21537275.068
       239.000         200.000
  20197098.171    -9196831.44149  -7150364.18048  20197098.000    20197104.940
       245.000         216.000
  22203365.567     1162030.54049    925950.05746  22203365.130    22203374.838
       228.000         181.000
  23974906.434    11892200.50549   9267957.98945  23974906.847    23974919.163
       218.000         157.000
  21675448.051   -16833483.31349 -12747330.55647  21675447.370    21675455.965
       235.000         194.000
  23622499.093   -12504637.35949  -9433701.85045  23622499.614    23622508.755
       217.000         161.000
 99  5 27 18 18 30.0000000  0  8G24G 4G30G 5G 8G 9G10G 6
  20747500.340      177385.01049    574864.37547  20747500.464    20747507.947
       243.000         210.000
  23074005.114    11805236.84449   9287780.20246  23074006.318    23074014.721
       223.000         168.000
  21523582.596   -17883674.73649 -13885018.37647  21523583.303    21523589.821
       238.000         200.000
  20196378.719    -9200612.54949  -7153310.52248  20196378.588    20196385.574
       245.000         217.000
  22215178.526     1224107.76249    974321.81546  22215178.122    22215188.302
       227.000         181.000
  23992101.915    11982562.43449   9338369.67745  23992103.332    23992114.827
       218.000         158.000
  21663749.516   -16894959.10649 -12795233.71547  21663748.989    21663757.955
       235.000         194.000
  23609960.509   -12570528.16449  -9485045.27745  23609960.225    23609969.549
       217.000         161.000
 99  5 27 18 19  0.0000000  0  8G24G 4G30G 5G 8G 9G10G 6
  20756776.996      226133.93549    612850.51847  20756777.182    20756784.626
       243.000         210.000
  23091902.265    11899286.70449   9361065.72146  23091903.268    23091910.673
       220.000         167.000
  21509967.076   -17955224.65149 -13940771.53247  21509967.509    21509974.371
       239.000         200.000
  20195757.468    -9203877.30749  -7155854.51448  20195757.178    20195764.214
       245.000         217.000
  22227067.353     1286583.64049   1023004.21746  22227067.711    22227076.945
       226.000         180.000
  24009295.134    12072912.44849   9408772.06645  24009295.800    24009307.872
       218.000         158.000
  21652135.766   -16955989.57849 -12842789.86947  21652135.059    21652143.780
       235.000         194.000
  23597423.386   -12636411.03149  -9536382.51545  23597423.264    23597432.567
       217.000         162.000
 99  5 27 18 19 30.0000000  0  8G24G 4G30G 5G 8G 9G10G 6
  20766121.903      275241.32149    651115.98347  20766122.163    20766129.626
       243.000         210.000
  23109816.639    11993427.06749   9434421.76346  23109817.456    23109826.083
       222.000         167.000
  21496421.405   -18026407.64249 -13996238.77747  21496421.897    21496428.838
       239.000         200.000
  20195242.280    -9206584.65349  -7157964.16048  20195242.135    20195249.079
       245.000         217.000
  22239037.256     1349485.83049   1072018.79346  22239036.565    22239046.666
       227.000         180.000
  24026487.833    12163259.77549   9479172.37045  24026488.928    24026501.114
       216.000         158.000
  21640614.507   -17016533.92149 -12889967.22347  21640613.915    21640622.742
       235.000         195.000
  23584896.367   -12702240.31549  -9587677.98745  23584895.477    23584905.086
       217.000         162.000
 99  5 27 18 20  0.0000000  0  8G24G 4G30G 5G 8G 9G10G 6
  20775529.741      324679.51849    689639.22347  20775529.800    20775537.250
       242.000         210.000
  23127742.469    12087627.26049   9507824.43846  23127742.767    23127751.029
       221.000         166.000
  21482937.523   -18097265.72749 -14051452.84547  21482937.862    21482944.631
       239.000         200.000
  20194830.071    -9208750.93749  -7159652.19448  20194829.860    20194836.940
       245.000         217.000
  22251082.809     1412785.20249   1121342.87546  22251083.036    22251092.217
       226.000         180.000
  24043674.918    12253577.67149   9549549.73745  24043675.310    24043688.225
       217.000         157.000
  21629180.374   -17076620.51449 -12936787.88447  21629179.770    21629188.630
       236.000         195.000
  23572374.616   -12768042.46849  -9638952.33446  23572374.884    23572384.207
       217.000         163.000
 99  5 27 18 20 30.0000000  0  8G24G 4G30G 5G 8G 9G10G 6
  20785006.813      374482.08249    728446.38647  20785006.869    20785014.470
       243.000         209.000
  23145687.472    12181928.41149   9581305.76046  23145687.384    23145696.159
       220.000         166.000
  21469525.902   -18167744.25249 -14106371.15647  21469526.466    21469533.216
       240.000         201.000
  20194530.535    -9210325.17949  -7160878.89848  20194530.338    20194537.485
       245.000         217.000
  22263210.446     1476515.63649   1171002.85046  22263210.300    22263220.133
       227.000         180.000
  24060866.456    12343919.03649   9619945.40945  24060868.467    24060879.358
       216.000         157.000
  21617840.084   -17136213.99849 -12983224.30947  21617839.611    21617848.331
       236.000         195.000
  23559865.427   -12833778.52749  -9690175.15546  23559865.295    23559874.908
       216.000         163.000
 99  5 27 18 21  0.0000000  0  8G24G 4G30G 5G 8G 9G10G 6
  20794552.804      424646.48549    767535.49947  20794552.861    20794560.479
       243.000         209.000
  23163649.434    12276318.88749   9654856.69646  23163649.389    23163658.654
       222.000         165.000
  21456185.242   -18237849.84849 -14160998.86747  21456185.702    21456192.458
       240.000         201.000
  20194340.478    -9211323.95649  -7161657.18748  20194340.359    20194347.218
       245.000         217.000
  22275416.164     1540656.53249   1220982.65146  22275416.050    22275426.268
       227.000         179.000
  24078065.214    12434298.45749   9690370.71945  24078066.332    24078078.017
       216.000         156.000
  21606591.564   -17195325.02949 -13029284.79047  21606590.888    21606599.975
       235.000         196.000
  23547368.124   -12899451.90349  -9741349.16146  23547368.116    23547376.275
       217.000         163.000
 99  5 27 18 21 30.0000000  0  8G24G 4G30G 5G 8G 9G10G 6
  20804165.723      475162.52449    806898.61747  20804165.736    20804173.215
       242.000         209.000
  23181626.337    12370787.99049   9728468.90546  23181626.804    23181635.211
       219.000         165.000
  21442916.861   -18307575.61749 -14215330.61747  21442917.307    21442924.178
       240.000         201.000
  20194256.952    -9211763.05949  -7161999.36448  20194256.777    20194263.868
       245.000         217.000
  22287697.897     1605197.07449   1271273.87346  22287698.308    22287707.364
       227.000         179.000
  24095271.541    12524717.28149   9760826.73745  24095272.350    24095284.964
       216.000         155.000
  21595432.625   -17253965.47449 -13074978.57547  21595431.834    21595441.001
       235.000         196.000
  23534879.874   -12965077.73249  -9792486.09946  23534879.662    23534888.718
       219.000         163.000
 99  5 27 18 22  0.0000000  0  8G24G 4G30G 5G 8G 9G10G 6
  20813840.889      526005.90049    846516.80147  20813841.058    20813848.628
       243.000         209.000
  23199615.310    12465320.74349   9802130.70846  23199616.090    23199624.458
       220.000         164.000
  21429722.320   -18376913.28549 -14269359.94947  21429722.932    21429729.569
       240.000         201.000
  20194272.327    -9211682.42649  -7161936.55348  20194272.096    20194279.183
       245.000         217.000
  22300046.698     1670089.95849   1321839.64546  22300046.669    22300055.883
       226.000         179.000
  24112480.244    12615148.92249   9831292.73545  24112480.857    24112493.092
       216.000         155.000
  21584356.960   -17312168.20549 -13120331.28147  21584356.301    21584365.551
       236.000         196.000
  23522391.588   -13030704.37549  -9843623.68046  23522391.747    23522400.157
       218.000         163.000
 99  5 27 18 22 30.0000000  0  8G24G 4G30G 5G 8G 9G10G 6
  20823579.290      577181.29049    886393.70147  20823579.576    20823587.144
       243.000         209.000
  23217619.899    12559935.23149   9875856.20146  23217620.636    23217629.388
       219.000         164.000
  21416606.801   -18445835.81849 -14323065.79847  21416607.191    21416613.905
       241.000         202.000
  20194389.219    -9211068.11449  -7161457.88348  20194389.015    20194396.045
       245.000         217.000
  22312464.318     1735344.59949   1372687.30346  22312463.803    22312474.070
       227.000         179.000
  24129692.516    12705599.29549   9901773.32445  24129692.511    24129705.604
       215.000         155.000
  21573370.772   -17369900.77849 -13165317.62347  21573369.867    21573379.011
       236.000         196.000
  23509905.639   -13096318.29749  -9894751.35946  23509905.751    23509914.885
       218.000         164.000
 99  5 27 18 23  0.0000000  0  8G24G 4G30G 5G 8G 9G10G 6
  20833374.633      628656.12249    926503.92947  20833374.935    20833382.406
       242.000         209.000
  23235637.874    12654619.99549   9949636.45646  23235638.252    23235647.022
       220.000         163.000
  21403565.441   -18514368.70149 -14376468.02447  21403566.070    21403572.662
       240.000         202.000
  20194604.563    -9209936.59649  -7160576.20148  20194604.506    20194611.353
       245.000         217.000
  22324948.916     1800950.93349   1423809.00946  22324948.120    22324958.606
       226.000         178.000
  24146901.674    12796032.99649   9972240.93645  24146902.307    24146914.618
       215.000         155.000
  21562474.147   -17427162.64549 -13209937.19247  21562473.460    21562482.546
       236.000         196.000
  23497418.937   -13161935.73749  -9945881.76546  23497419.095    23497427.528
       217.000         163.000
 99  5 27 18 23 30.0000000  0  8G24G 4G30G 5G 8G 9G10G 6
  20843222.150      680405.14449    966827.81547  20843222.158    20843229.886
       242.000         208.000
  23253670.351    12749381.06949  10023476.16546  23253670.469    23253680.582
       219.000         163.000
  21390598.478   -18582510.48249 -14429565.49347  21390598.847    21390605.538
       241.000         203.000
  20194919.899    -9208279.57749  -7159285.03748  20194919.768    20194926.657
       245.000         217.000
  22337501.287     1866913.41049   1475208.23346  22337501.869    22337510.958
       227.000         178.000
  24164104.049    12886431.26149  10042680.93845  24164105.268    24164116.564
       216.000         155.000
  21551669.863   -17483939.33149 -13254178.69847  21551668.970    21551678.355
       237.000         197.000
  23484931.149   -13227559.28149  -9997016.93546  23484931.660    23484940.014
       218.000         163.000
 99  5 27 18 24  0.0000000  0  8G24G 4G30G 5G 8G 9G10G 6
  20853126.665      732453.56149   1007385.00047  20853127.031    20853134.554
       242.000         208.000
  23271722.613    12844246.15549  10097396.92546  23271723.341    23271731.760
       219.000         163.000
  21377709.949   -18650240.14149 -14482341.83247  21377710.559    21377717.308
       240.000         203.000
  20195340.511    -9206069.32149  -7157562.77848  20195340.167    20195347.230
       245.000         217.000
  22350125.645     1933254.17649   1526902.22446  22350125.530    22350135.065
       226.000         178.000
  24181303.077    12976811.57749  10113106.96345  24181303.192    24181316.625
       215.000         155.000
  21540965.273   -17540192.11449 -13298011.96447  21540964.640    21540973.590
       236.000         197.000
  23472451.748   -13293138.74549 -10048117.74846  23472451.150    23472460.577
       218.000         163.000
 99  5 27 18 24 30.0000000  0  8G24G 4G30G 5G 8G 9G10G 6
  20863074.760      784730.86149   1048120.53247  20863074.864    20863082.500
       242.000         208.000
  23289780.978    12939143.14149  10171342.53946  23289781.580    23289790.466
       218.000         163.000
  21364884.470   -18717638.42649 -14534859.95647  21364884.928    21364892.008
       241.000         203.000
  20195855.301    -9203364.28649  -7155454.97848  20195855.180    20195862.159
       245.000         217.000
  22362814.363     1999933.40549   1578859.94646  22362814.426    22362823.869
       226.000         177.000
  24198487.980    13067118.04749  10183475.43445  24198488.255    24198501.374
       214.000         154.000
  21530350.342   -17595973.77749 -13341478.12747  21530349.679    21530358.826
       237.000         197.000
  23459972.073   -13358719.74449 -10099219.78646  23459972.049    23459980.852
       218.000         164.000
 99  5 27 18 25  0.0000000  0  8G24G 4G30G 5G 8G 9G10G 6
  20873066.979      837240.37049   1089037.00947  20873066.976    20873074.614
       242.000         208.000
  23307844.452    13034066.83149  10245308.97046  23307844.555    23307853.818
       217.000         163.000
  21352119.260   -18784720.07349 -14587131.34847  21352119.855    21352126.584
       242.000         203.000
  20196461.533    -9200178.64749  -7152972.68148  20196461.301    20196468.408
       245.000         217.000
  22375564.824     2066937.58549   1631070.88446  22375564.869    22375574.270
       226.000         177.000
  24215659.304    13157353.24449  10253788.38645  24215660.397    24215673.360
       215.000         154.000
  21519821.200   -17651304.53749 -13384592.94047  21519820.698    21519829.590
       236.000         197.000
  23447491.902   -13424303.26249 -10150323.77046  23447491.509    23447500.276
       220.000         165.000
 99  5 27 18 25 30.0000000  0  8G24G 4G30G 5G 8G 9G10G 6
  20883110.272      890018.09149   1130162.48247  20883110.294    20883117.984
       242.000         208.000
  23325913.486    13129019.76349  10319298.17245  23325914.126    23325923.185
       216.000         162.000
  21339418.968   -18851460.52349 -14639136.87247  21339419.387    21339426.131
       242.000         204.000
  20197162.612    -9196494.37449  -7150101.83848  20197162.305    20197169.512
       245.000         217.000
  22388377.434     2134267.99349   1683536.02546  22388377.159    22388386.666
       226.000         177.000
  24232819.828    13247531.75949  10324057.14545  24232820.667    24232834.110
       213.000         153.000
  21509379.946   -17706173.48549 -13427347.90147  21509379.197    21509388.168
       236.000         198.000
  23435014.522   -13489872.60349 -10201416.71546  23435014.717    23435023.723
       218.000         165.000
 99  5 27 18 26  0.0000000  0  8G24G 4G30G 5G 8G 9G10G 6
  20893212.289      943104.36649   1171528.38947  20893212.490    20893220.041
       242.000         208.000
  23343992.181    13224023.60049  10393327.04945  23343992.540    23344002.122
       219.000         162.000
  21326791.098   -18917820.37449 -14690845.82647  21326791.589    21326798.142
       242.000         204.000
  20197963.216    -9192287.34849  -7146823.65648  20197963.081    20197970.109
       245.000         217.000
  22401256.688     2201948.47749   1736273.95146  22401256.393    22401266.025
       226.000         177.000
  24249972.847    13337670.97949  10394295.29145  24249973.593    24249986.068
       212.000         152.000
  21499029.738   -17760563.94549 -13469730.01547  21499029.042    21499037.812
       237.000         197.000
  23422543.865   -13555406.20949 -10252481.80346  23422544.670    23422553.026
       219.000         166.000
 99  5 27 18 26 30.0000000  0  8G24G 4G30G 5G 8G 9G10G 6
  20903371.217      996489.66449   1213127.29747  20903371.287    20903379.066
       242.000         208.000
  23362080.269    13319076.54849  10467394.19245  23362080.938    23362089.835
       219.000         162.000
  21314235.973   -18983798.00449 -14742256.94647  21314236.401    21314242.923
       242.000         204.000
  20198862.775    -9187560.15549  -7143140.15348  20198862.698    20198869.707
       245.000         217.000
  22414202.484     2269978.57849   1789284.30846  22414203.200    22414211.940
       226.000         177.000
  24267118.356    13427770.27049  10464502.31645  24267118.423    24267131.794
       212.000         152.000
  21488768.799   -17814485.15649 -13511746.48147  21488767.866    21488776.879
       237.000         197.000
  23410073.658   -13620937.60949 -10303545.18546  23410073.603    23410082.342
       219.000         166.000
 99  5 27 18 27  0.0000000  0  8G24G 4G30G 5G 8G 9G10G 6
  20913590.044     1050189.92249   1254971.63247  20913590.163    20913597.835
       243.000         208.000
  23380180.130    13414191.56949  10541509.70045  23380180.698    23380189.750
       216.000         162.000
  21301758.099   -19049369.69949 -14793351.75147  21301758.499    21301765.157
       242.000         204.000
  20199865.935    -9182288.78149  -7139032.61248  20199865.954    20199872.822
       245.000         217.000
  22427213.774     2338352.68749   1842562.71246  22427213.593    22427223.356
       226.000         177.000
  24284256.298    13517829.86049  10534678.39345  24284256.269    24284269.492
       212.000         151.000
  21478599.787   -17867923.31049 -13553386.53447  21478599.085    21478608.184
       237.000         197.000
  23397605.318   -13686459.31049 -10354601.00646  23397604.905    23397614.121
       220.000         167.000
 99  5 27 18 27 30.0000000  0  8G24G 4G30G 5G 8G 9G10G 6
  20923872.141     1104222.45749   1297074.88347  20923872.265    20923880.112
       242.000         208.000
  23398294.292    13509381.86049  10615683.86845  23398295.267    23398304.079
       218.000         161.000
  21289367.189   -19114484.26249 -14844090.35347  21289367.568    21289374.047
       242.000         205.000
  20200978.277    -9176443.27049  -7134477.69348  20200978.034    20200985.139
       245.000         217.000
  22440296.162     2407100.68849   1896132.46346  22440296.236    22440306.485
       225.000         176.000
  24301389.102    13607862.72749  10604833.64345  24301390.008    24301402.617
       213.000         152.000
  21468530.588   -17920837.09449 -13594617.99647  21468529.656    21468538.797
       237.000         198.000
  23385142.383   -13751952.46349 -10405634.58646  23385142.173    23385150.950
       219.000         167.000
 99  5 27 18 28  0.0000000  0  8G24G 4G30G 5G 8G 9G10G 6
  20934205.421     1158524.05349   1339387.79447  20934205.511    20934213.570
       243.000         208.000
  23416413.192    13604597.08849  10689877.45045  23416413.464    23416422.834
       218.000         162.000
  21277052.234   -19179199.60649 -14894517.87947  21277052.573    21277059.389
       243.000         205.000
  20202187.662    -9170087.92649  -7129525.50248  20202187.277    20202194.667
       245.000         217.000
  22453440.911     2476176.49649   1949957.65846  22453440.996    22453450.761
       226.000         176.000
  24318509.251    13697828.82649  10674936.84945  24318509.476    24318522.603
       213.000         152.000
  21458551.700   -17973276.33949 -13635479.68547  21458551.004    21458560.150
       237.000         198.000
  23372672.505   -13817481.81249 -10456696.37546  23372672.006    23372681.500
       219.000         167.000
 99  5 27 18 28 30.0000000  0  8G24G 4G30G 5G 8G 9G10G 6
  20944594.545     1213119.22249   1381929.45947  20944594.729    20944602.441
       242.000         208.000
  23434540.606    13699856.98149  10764105.84245  23434541.465    23434549.549
       218.000         161.000
  21264816.630   -19243498.06449 -14944620.55247  21264816.994    21264823.893
       243.000         205.000
  20203500.323    -9163189.99949  -7124150.52348  20203500.158    20203507.134
       245.000         217.000
  22466651.913     2545600.07949   2004053.84446  22466651.891    22466661.980
       226.000         176.000
  24335624.059    13787766.81649  10745018.15545  24335623.968    24335637.423
       211.000         153.000
  21448670.468   -18025202.28649 -13675941.40947  21448669.695    21448678.572
       237.000         198.000
  23360201.756   -13883015.84349 -10507761.80046  23360201.539    23360211.104
       220.000         167.000
 99  5 27 18 29  0.0000000  0  8G24G 4G30G 5G 8G 9G10G 6
  20955045.015     1268036.57549   1424722.17747  20955044.954    20955052.847
       241.000         207.000
  23452679.172    13795175.26249  10838379.74745  23452680.557    23452688.169
       219.000         161.000
  21252665.064   -19307355.01449 -14994379.19947  21252665.566    21252672.111
       243.000         205.000
  20204919.116    -9155734.31049  -7118340.92348  20204918.776    20204925.966
       245.000         217.000
  22479930.319     2615378.03049   2058426.15646  22479930.448    22479940.007
       226.000         176.000
  24352735.542    13877687.20649  10815085.75445  24352735.972    24352749.971
       213.000         153.000
  21438893.376   -18076581.19949 -13715976.86747  21438892.773    21438901.614
       237.000         198.000
  23347737.018   -13948517.89849 -10558802.32346  23347736.858    23347746.549
       219.000         167.000
 99  5 27 18 29 30.0000000  0  8G24G 4G30G 5G 8G 9G10G 6
  20965551.892     1323250.56249   1467746.03747  20965551.990    20965559.644
       242.000         207.000
  23470825.330    13890532.98049  10912684.37345  23470825.526    23470835.047
       217.000         160.000
  21240593.807   -19370790.00949 -15043809.05047  21240594.303    21240600.884
       243.000         206.000
  20206438.688    -9147748.88249  -7112118.54048  20206438.484    20206445.546
       245.000         217.000
  22493274.636     2685502.35449   2113068.37146  22493274.810    22493284.763
       226.000         176.000
  24369840.263    13967572.20649  10885125.75845  24369841.530    24369854.168
       214.000         154.000
  21429216.655   -18127432.42849 -13755601.14747  21429215.653    21429224.909
       238.000         198.000
  23335274.222   -14014010.19049 -10609835.23346  23335274.036    23335282.969
       218.000         167.000
 99  5 27 18 30  0.0000000  0  8G24G 4G30G 5G 8G 9G10G 6
  20976105.982     1378712.84149   1510963.37847  20976105.614    20976113.839
       242.000         207.000
  23488971.790    13985892.80849  10986990.63945  23488973.222    23488980.820
       217.000         160.000
  21228593.250   -19433853.32949 -15092949.28547  21228593.790    21228600.058
       243.000         206.000
  20208053.121    -9139265.16149  -7105507.87548  20208053.046    20208060.095
       245.000         217.000
  22506676.083     2755926.98149   2167944.57046  22506675.982    22506686.111
       225.000         176.000
  24386930.426    14057380.54149  10955106.03545  24386930.719    24386945.260
       214.000         154.000
  21419630.142   -18177809.69749 -13794856.10547  21419629.699    21419638.366
       238.000         198.000
  23322807.805   -14079521.00649 -10660882.57846  23322807.616    23322817.178
       218.000         167.000
 99  5 27 18 30 30.0000000  0  8G24G 4G30G 5G 8G 9G10G 6
  20986712.826     1434452.20449   1554396.62547  20986712.901    20986720.748
       241.000         207.000
  23507125.297    14081289.75349  11061325.82845  23507126.195    23507134.206
       217.000         160.000
  21216671.681   -19496501.32949 -15141765.89647  21216672.094    21216678.843
       243.000         206.000
  20209769.524    -9130245.74849  -7098479.78948  20209769.448    20209776.488
       245.000         217.000
  22520139.440     2826676.61149   2223074.02746  22520139.632    22520149.177
       225.000         175.000
  24404008.653    14147126.24749  11025037.51345  24404008.996    24404022.595
       214.000         154.000
  21410141.370   -18227673.19549 -13833710.72647  21410140.608    21410149.446
       238.000         199.000
  23310346.701   -14145004.09449 -10711908.32246  23310346.773    23310355.681
       219.000         167.000
 99  5 27 18 31  0.0000000  0  8G24G 4G30G 5G 8G 9G10G 6
  20997368.583     1490448.47149   1598030.05747  20997368.814    20997376.647
       241.000         207.000
  23525283.300    14176710.37549  11135679.46445  23525284.684    23525293.057
       216.000         159.000
  21204828.301   -19558738.39549 -15190262.30047  21204828.643    21204835.492
       243.000         206.000
  20211584.823    -9120706.51849  -7091046.65448  20211584.901    20211591.787
       245.000         217.000
  22533662.330     2897739.30149   2278447.42146  22533662.820    22533672.458
       226.000         175.000
  24421070.482    14236785.81649  11094901.87545  24421070.934    24421084.544
       212.000         153.000
  21400747.818   -18277036.48849 -13872175.57847  21400747.001    21400755.913
       239.000         199.000
  23297887.431   -14210477.99949 -10762926.91046  23297887.428    23297896.230
       221.000         168.000
 99  5 27 18 31 30.0000000  0  8G24G 4G30G 5G 8G 9G10G 6
  21008073.535     1546703.15349   1641864.85547  21008073.563    21008081.459
       241.000         207.000
  23543447.577    14272163.69849  11210058.57745  23543448.870    23543457.753
       217.000         159.000
  21193067.546   -19620541.38249 -15238420.46047  21193067.874    21193074.692
       243.000         206.000
  20213504.539    -9110618.38549  -7083185.80348  20213504.322    20213511.390
       245.000         217.000
  22547248.291     2969133.52949   2334079.16246  22547247.945    22547257.604
       224.000         175.000
  24438119.457    14326377.83149  11164713.59345  24438120.701    24438134.730
       213.000         153.000
  21391451.230   -18325890.20049 -13910243.35347  21391450.647    21391459.462
       239.000         199.000
  23285434.778   -14275917.37649 -10813918.58946  23285435.548    23285443.544
       221.000         168.000
 99  5 27 18 32  0.0000000  0  8G24G 4G30G 5G 8G 9G10G 6
  21018840.803     1603285.44249   1685954.92547  21018841.149    21018848.770
       241.000         206.000
  23561628.875    14367706.36049  11284507.31645  23561629.693    23561638.593
       216.000         159.000
  21181401.083   -19681849.11949 -15286192.71547  21181401.841    21181408.364
       242.000         206.000
  20215541.781    -9099912.76249  -7074843.79048  20215541.682    20215548.703
       245.000         217.000
  22560906.177     3040905.36649   2390005.13946  22560906.220    22560916.240
       224.000         174.000
  24455168.279    14415968.93949  11234524.60545  24455168.519    24455182.602
       211.000         151.000
  21382265.272   -18374162.48849 -13947858.06147  21382264.736    21382273.381
       239.000         199.000
  23273001.239   -14341255.84749 -10864831.64546  23273000.997    23273010.609
       221.000         169.000
 99  5 27 18 32 30.0000000  0  8G24G 4G30G 5G 8G 9G10G 6
  21029646.831     1660071.35249   1730203.66547  21029647.078    21029654.633
       241.000         206.000
  23579802.208    14463207.95349  11358924.05345  23579802.153    23579810.693
       216.000         159.000
  21169802.081   -19742802.50549 -15333688.84247  21169802.661    21169809.453
       242.000         207.000
  20217670.998    -9088723.95649  -7066125.26948  20217670.778    20217677.892
       245.000         217.000
  22574609.277     3112915.05249   2446116.45546  22574609.373    22574619.035
       223.000         174.000
  24472191.999    14505428.43049  11304233.06345  24472192.564    24472206.834
       210.000         149.000
  21373167.894   -18421969.40749 -13985110.14447  21373167.204    21373176.305
       239.000         199.000
  23260558.752   -14406641.63649 -10915781.56046  23260558.950    23260567.268
       222.000         169.000
 99  5 27 18 33  0.0000000  0  8G24G 4G30G 5G 8G 9G10G 6
  21040506.367     1717138.47449   1774671.52447  21040506.430    21040514.309
       241.000         206.000
  23597981.825    14558742.26749  11433366.28245  23597981.837    23597991.966
       215.000         158.000
  21158285.542   -19803322.40249 -15380847.19547  21158286.013    21158292.731
       243.000         207.000
  20219910.284    -9076956.52549  -7056955.87848  20219910.167    20219917.269
       246.000         217.000
  22588371.073     3185233.64349   2502468.47846  22588370.417    22588381.110
       223.000         173.000
  24489207.476    14594844.96949  11373908.04745  24489207.944    24489221.487
       209.000         147.000
  21364173.609   -18469234.56249 -14021940.07847  21364172.831    21364181.768
       239.000         200.000
  23248122.476   -14471995.05649 -10966706.27346  23248122.390    23248130.631
       221.000         169.000
 99  5 27 18 33 30.0000000  0  8G24G 4G30G 5G 8G 9G10G 6
  21051422.267     1774501.85549   1819370.23847  21051422.443    21051430.225
       241.000         206.000
  23616171.123    14654327.53649  11507848.21345  23616171.475    23616181.007
       216.000         157.000
  21146852.524   -19863403.29549 -15427663.46047  21146853.158    21146859.673
       243.000         207.000
  20222261.457    -9064601.24549  -7047328.42148  20222261.350    20222268.466
       245.000         217.000
  22602192.339     3257864.47449   2559063.79746  22602192.048    22602203.080
       224.000         173.000
  24506216.218    14684225.78649  11443555.18845  24506216.279    24506231.252
       208.000         145.000
  21355284.703   -18515945.93849 -14058338.50347  21355284.194    21355292.674
       239.000         200.000
  23235694.642   -14537303.67349 -11017596.06946  23235694.673    23235703.418
       222.000         169.000
 99  5 27 18 34  0.0000000  0  8G24G 4G30G 5G 8G 9G10G 6
  21062391.855     1832147.15949   1864288.63347  21062392.209    21062399.832
       241.000         206.000
  23634367.884    14749951.75549  11582360.47745  23634369.267    23634377.198
       215.000         157.000
  21135496.391   -19923080.46849 -15474165.13747  21135496.840    21135503.487
       243.000         207.000
  20224716.756    -9051698.67049  -7037274.50448  20224716.470    20224723.530
       245.000         217.000
  22616066.824     3330775.21749   2615877.22246  22616067.192    22616077.067
       222.000         173.000
  24523212.202    14773539.34649  11513149.90745  24523212.893    24523226.956
       208.000         144.000
  21346496.220   -18562129.63749 -14094325.74447  21346495.389    21346504.091
       239.000         200.000
  23223267.710   -14602607.45049 -11068482.07946  23223267.407    23223276.562
       222.000         169.000
 99  5 27 18 34 30.0000000  0  8G24G 4G30G 5G 8G 9G10G 6
  21073419.386     1890097.10149   1909444.41047  21073419.355    21073426.966
       241.000         206.000
  23652579.021    14845651.77249  11656931.83445  23652579.590    23652588.464
       215.000         156.000
  21124227.109   -19982300.88849 -15520310.90247  21124227.582    21124234.336
       243.000         208.000
  20227281.585    -9038220.48249  -7026772.05448  20227281.494    20227288.572
       245.000         217.000
  22630001.149     3403999.83049   2672935.23946  22630001.546    22630011.501
       223.000         172.000
  24540200.668    14862813.15349  11582713.64945  24540201.982    24540214.802
       208.000         143.000
  21337813.318   -18607758.53849 -14129880.67747  21337812.500    21337821.205
       239.000         200.000
  23210850.100   -14667861.99449 -11119329.73446  23210850.093    23210858.838
       221.000         169.000
 99  5 27 18 35  0.0000000  0  8G24G 4G30G 5G 8G 9G10G 6
  21084493.872     1948293.84549   1954792.49447  21084494.078    21084501.835
       241.000         205.000
  23670793.969    14941371.61349  11731518.63445  23670795.160    23670803.503
       215.000         155.000
  21113038.014   -20041099.97649 -15566128.36747  21113038.458    21113045.291
       243.000         208.000
  20229943.725    -9024231.00149  -7015871.19748  20229943.591    20229950.715
       245.000         217.000
  22643986.714     3477494.00949   2730203.27646  22643986.594    22643996.881
       222.000         173.000
  24557172.024    14951997.01849  11652207.29545  24557171.974    24557186.396
       209.000         143.000
  21329226.037   -18652884.65149 -14165043.82947  21329225.544    21329234.192
       239.000         201.000
  23198437.448   -14733090.65749 -11170157.21446  23198437.696    23198445.915
       222.000         169.000
 99  5 27 18 35 30.0000000  0  8G24G 4G30G 5G 8G 9G10G 6
  21095611.583     2006717.68449   2000317.53547  21095611.672    21095619.627
       241.000         205.000
  23689008.772    15037090.82049  11806104.93545  23689009.080    23689017.728
       214.000         155.000
  21101924.784   -20099500.31749 -15611635.11747  21101925.271    21101932.057
       243.000         208.000
  20232695.391    -9009771.14749  -7004603.81148  20232695.237    20232702.395
       245.000         217.000
  22658020.489     3551241.53749   2787668.74146  22658020.449    22658031.048
       222.000         172.000
  24574121.590    15041066.24449  11721611.62345  24574122.539    24574137.615
       206.000         145.000
  21320730.285   -18697530.07849 -14199832.42547  21320729.666    21320738.415
       241.000         201.000
  23186027.066   -14798307.09649 -11220975.17246  23186027.487    23186035.803
       221.000         169.000
 99  5 27 18 36  0.0000000  0  8G24G 4G30G 5G 8G 9G10G 6
  21106770.379     2065357.28049   2046010.69547  21106770.487    21106778.451
       241.000         205.000
  23707221.690    15132800.02749  11880683.44145  23707221.982    23707232.201
       214.000         155.000
  21090892.113   -20157477.25049 -15656811.94247  21090892.579    21090899.033
       243.000         208.000
  20235537.663    -8994835.03549  -6992965.31648  20235537.539    20235544.746
       245.000         217.000
  22672102.912     3625244.73549   2845333.43346  22672103.080    22672113.413
       223.000         173.000
  24591051.270    15130031.24149  11790934.72245  24591052.359    24591066.399
       209.000         145.000
  21312326.506   -18741691.95449 -14234244.23447  21312325.764    21312334.479
       239.000         201.000
  23173621.002   -14863500.97149 -11271775.55746  23173620.966    23173629.113
       222.000         169.000
 99  5 27 18 36 30.0000000  0  8G24G 4G30G 5G 8G 9G10G 6
  21117964.104     2124180.57649   2091846.99847  21117964.347    21117971.992
       241.000         205.000
  23725426.924    15228468.45949  11955230.18345  23725427.928    23725436.729
       215.000         155.000
  21079939.288   -20215034.63149 -15701661.84447  21079939.452    21079946.147
       243.000         208.000
  20238468.635    -8979432.88949  -6980963.67848  20238468.400    20238475.700
       245.000         217.000
  22686231.244     3699488.92649   2903185.89946  22686231.669    22686241.986
       223.000         172.000
  24607958.566    15218878.54549  11860166.11145  24607958.915    24607973.424
       210.000         146.000
  21304014.976   -18785369.11349 -14268278.34047  21304014.288    21304022.995
       239.000         201.000
  23161215.613   -14928691.83449 -11322573.58446  23161215.674    23161224.546
       221.000         169.000
 99  5 27 18 37  0.0000000  0  8G24G 4G30G 5G 8G 9G10G 6
  21129199.239     2183221.45449   2137852.84647  21129199.280    21129207.129
       241.000         205.000
  23743629.816    15324124.58649  12029767.32745  23743630.217    23743640.235
       215.000         155.000
  21069068.559   -20272160.46049 -15746175.46847  21069069.007    21069075.739
       243.000         208.000
  20241494.118    -8963533.87549  -6968574.87148  20241493.875    20241501.198
       245.000         217.000
  22700409.801     3773996.94949   2961243.95346  22700409.454    22700419.973
       222.000         172.000
  24624847.325    15307628.37049  11929321.54345  24624848.532    24624862.857
       211.000         147.000
  21295802.277   -18828526.86749 -14301907.72047  21295801.713    21295810.345
       240.000         201.000
  23148812.313   -14993871.53049 -11373362.91246  23148812.780    23148821.040
       223.000         169.000
 99  5 27 18 37 30.0000000  0  8G24G 4G30G 5G 8G 9G10G 6
  21140474.811     2242474.75149   2184024.21247  21140475.014    21140482.903
       241.000         205.000
  23761829.395    15419763.55449  12104291.09045  23761830.407    23761839.226
       214.000         155.000
  21058282.365   -20328842.20049 -15790343.05047  21058282.834    21058289.363
       243.000         208.000
  20244617.665    -8947119.72149  -6955784.65848  20244617.473    20244624.752
       245.000         217.000
  22714638.431     3848768.48749   3019507.33246  22714638.653    22714648.904
       223.000         171.000
  24641715.054    15396267.61749  11998390.82645  24641715.965    24641730.611
       210.000         147.000
  21287688.698   -18871163.95249 -14335131.38447  21287688.010    21287696.740
       238.000         202.000
  23136405.962   -15059067.29549 -11424164.75546  23136406.619    23136414.402
       221.000         170.000
 99  5 27 18 38  0.0000000  0  8G24G 4G30G 5G 8G 9G10G 6
  21151794.167     2301958.33449   2230375.02647  21151794.367    21151802.047
       241.000         205.000
  23780030.194    15515409.11749  12178820.01145  23780031.257    23780040.032
       213.000         154.000
  21047588.125   -20385040.70849 -15834134.08347  21047588.877    21047595.331
       243.000         209.000
  20247846.891    -8930150.32849  -6942561.78648  20247846.837    20247853.904
       245.000         217.000
  22728923.987     3923839.08549   3078003.74446  22728923.913    22728935.102
       222.000         171.000
  24658565.646    15484816.67949  12067389.83545  24658566.550    24658580.336
       212.000         147.000
  21279682.347   -18913237.56049 -14367915.97147  21279681.723    21279690.449
       239.000         202.000
  23123998.437   -15124269.00149 -11474971.23246  23123998.449    23124007.460
       221.000         170.000
 99  5 27 18 38 30.0000000  0  8G24G 4G30G 5G 8G 9G10G 6
  21163164.511     2361709.81749   2276934.58647  21163164.656    21163172.356
       241.000         204.000
  23798237.544    15611089.13649  12253375.77145  23798238.582    23798247.523
       213.000         154.000
  21036989.414   -20440737.60449 -15877534.25047  21036990.045    21036996.832
       243.000         209.000
  20251186.717    -8912599.47449  -6928885.83448  20251186.495    20251193.694
       245.000         217.000
  22743269.554     3999225.32949   3136746.11646  22743269.612    22743280.216
       221.000         171.000
  24675400.289    15573282.15549  12136323.71245  24675401.935    24675416.462
       211.000         146.000
  21271788.404   -18954720.49149 -14400240.29747  21271787.678    21271796.664
       238.000         202.000
  23111592.256   -15189463.21849 -11525771.86746  23111592.168    23111600.655
       222.000         170.000
 99  5 27 18 39  0.0000000  0  8G24G 4G30G 5G 8G 9G10G 6
  21174584.261     2421720.82649   2323696.37747  21174584.320    21174592.178
       240.000         204.000
  23816450.255    15706796.55349  12327952.88845  23816450.315    23816459.352
       213.000         153.000
  21026485.063   -20495938.42249 -15920547.86247  21026485.437    21026492.109
       243.000         209.000
  20254636.717    -8894469.76349  -6914758.82148  20254636.567    20254643.699
       245.000         217.000
  22757672.771     4074914.16749   3195724.27346  22757672.751    22757683.544
       221.000         170.000
  24692214.029    15661637.81549  12205172.01945  24692215.255    24692230.253
       209.000         145.000
  21264002.169   -18995637.33949 -14432123.51447  21264001.498    21264009.893
       239.000         202.000
  23099187.319   -15254651.56049 -11576567.92846  23099187.865    23099196.103
       223.000         170.000
 99  5 27 18 39 30.0000000  0  8G24G 4G30G 5G 8G 9G10G 6
  21186051.683     2481982.34949   2370653.36847  21186051.861    21186059.784
       240.000         204.000
  23834668.464    15802533.48649  12402553.00245  23834668.822    23834677.847
       210.000         153.000
  21016075.564   -20550640.77749 -15963173.06347  21016075.833    21016082.867
       244.000         209.000
  20258197.246    -8875759.17349  -6900179.17548  20258197.052    20258204.205
       245.000         217.000
  22772134.751     4150911.56749   3254942.86446  22772135.549    22772144.961
       221.000         170.000
  24709006.934    15749884.37849  12273935.29545  24709007.530    24709021.915
       208.000         145.000
  21256324.921   -19035981.03949 -14463560.12547  21256324.023    21256332.615
       238.000         201.000
  23086787.055   -15319815.14949 -11627344.70046  23086786.410    23086795.361
       221.000         171.000
 99  5 27 18 40  0.0000000  0  8G24G 4G30G 5G 8G 9G10G 6
  21197569.039     2542506.29349   2417814.84847  21197569.078    21197576.903
       240.000         204.000
  23852893.002    15898304.05449  12477179.31545  23852892.726    23852902.851
       214.000         153.000
  21005756.829   -20604866.10749 -16005426.55547  21005757.427    21005763.959
       244.000         209.000
  20261865.057    -8856484.81849  -6885160.23248  20261864.713    20261872.038
       245.000         217.000
  22786651.825     4227198.59449   3314387.15146  22786651.829    22786662.808
       222.000         170.000
  24725780.818    15838030.84449  12342620.58545  24725781.668    24725796.224
       210.000         145.000
  21248758.710   -19075741.40249 -14494542.18947  21248758.101    21248766.491
       239.000         202.000
  23074393.694   -15384942.51849 -11678093.23746  23074393.260    23074401.922
       223.000         171.000
 99  5 27 18 40 30.0000000  0  8G24G 4G30G 5G 8G 9G10G 6
  21209130.972     2603264.35049   2465158.74747  21209130.964    21209138.782
       240.000         204.000
  23871118.884    15994081.18549  12551810.74545  23871119.808    23871128.810
       211.000         152.000
  20995519.745   -20658662.27649 -16047345.64047  20995520.114    20995526.774
       244.000         209.000
  20265633.363    -8836682.38849  -6869729.80648  20265633.224    20265640.587
       245.000         217.000
  22801214.066     4303722.93049   3374016.35246  22801214.158    22801225.167
       221.000         170.000
  24742530.079    15926048.03749  12411205.16045  24742531.342    24742546.021
       207.000         145.000
  21241296.444   -19114955.81149 -14525098.84347  21241295.847    21241304.378
       238.000         202.000
  23062003.664   -15450052.63949 -11728828.35746  23062003.317    23062011.953
       222.000         171.000
 99  5 27 18 41  0.0000000  0  8G24G 4G30G 5G 8G 9G10G 6
  21220735.955     2664249.02249   2512679.23047  21220735.630    21220744.079
       240.000         203.000
  23889345.207    16089860.73149  12626444.05445  23889345.750    23889354.431
       212.000         152.000
  20985361.033   -20712046.51249 -16088943.73847  20985361.287    20985368.122
       243.000         209.000
  20269500.967    -8816358.17349  -6853892.79248  20269500.727    20269508.133
       245.000         217.000
  22815822.704     4380491.33649   3433835.74346  22815823.464    22815834.111
       222.000         170.000
  24759258.404    16013954.50649  12479703.44445  24759258.352    24759273.425
       208.000         145.000
  21233939.200   -19153618.32549 -14555225.43947  21233938.550    21233947.142
       239.000         202.000
  23049619.456   -15515131.49549 -11779539.10746  23049619.041    23049627.456
       223.000         171.000
 99  5 27 18 41 30.0000000  0  8G24G 4G30G 5G 8G 9G10G 6
  21232383.530     2725457.30949   2560373.96247  21232383.527    21232391.385
       240.000         203.000
  23907567.270    16185617.91649  12701059.94145  23907567.555    23907576.665
       212.000         151.000
  20975278.145   -20765032.38049 -16130231.41947  20975278.577    20975285.047
       244.000         210.000
  20273462.996    -8795537.84649  -6837669.19948  20273462.934    20273470.187
       245.000         217.000
  22830474.303     4457484.96149   3493830.60646  22830474.292    22830484.793
       221.000         169.000
  24775965.970    16101752.40549  12548117.11945  24775966.595    24775981.480
       208.000         146.000
  21226685.329   -19191737.34149 -14584928.52947  21226684.592    21226693.585
       238.000         202.000
  23037236.949   -15580201.89349 -11830243.26046  23037236.083    23037245.698
       224.000         171.000
 99  5 27 18 42  0.0000000  0  8G24G 4G30G 5G 8G 9G10G 6
  21244071.936     2786879.97649   2608235.74247  21244072.105    21244080.108
       240.000         203.000
  23925778.856    16281320.68249  12775633.42245  23925779.977    23925788.887
       211.000         151.000
  20965271.711   -20817616.52149 -16171206.06047  20965272.224    20965278.974
       243.000         210.000
  20277517.532    -8774231.40749  -6821066.81748  20277517.297    20277524.668
       245.000         217.000
  22845162.721     4534672.47449   3553976.55846  22845164.212    22845173.470
       221.000         169.000
  24792648.980    16189421.11549  12616430.12745  24792649.656    24792665.172
       209.000         146.000
  21219528.240   -19229348.13149 -14614235.60647  21219527.797    21219536.264
       239.000         203.000
  23024850.263   -15645294.20649 -11880964.51146  23024849.768    23024858.577
       223.000         171.000
 99  5 27 18 42 30.0000000  0  8G24G 4G30G 5G 8G 9G10G 6
  21255809.104     2848558.91149   2656297.21247  21255809.369    21255817.104
       240.000         203.000
  23943987.559    16377007.74449  12850194.65545  23943988.022    23943997.969
       211.000         150.000
  20955356.394   -20869721.77349 -16211807.54647  20955356.738    20955363.523
       244.000         210.000
  20281676.749    -8752374.68149  -6804035.64448  20281676.468    20281683.965
       245.000         217.000
  22859900.040     4612117.01749   3614322.77746  22859900.570    22859910.365
       221.000         169.000
  24809316.527    16277008.11449  12684679.46145  24809317.217    24809332.447
       204.000         145.000
  21212475.201   -19266412.09349 -14643116.58647  21212474.639    21212483.082
       239.000         203.000
  23012470.179   -15710351.73549 -11931658.63446  23012470.168    23012477.869
       224.000         171.000
 99  5 27 18 43  0.0000000  0  8G24G 4G30G 5G 8G 9G10G 6
  21267592.089     2910478.76649   2704546.40947  21267592.262    21267600.147
       240.000         203.000
  23962188.166    16472652.12349  12924722.64045  23962189.052    23962198.140
       211.000         150.000
  20945533.860   -20921339.44049 -16252029.09347  20945534.308    20945541.039
       244.000         210.000
  20285937.041    -8729986.84849  -6786590.62048  20285936.818    20285944.079
       245.000         217.000
  22874684.212     4689807.38149   3674860.54646  22874684.386    22874695.456
       221.000         168.000
  24825963.630    16364488.15149  12752845.45545  24825964.213    24825978.947
       207.000         144.000
  21205524.696   -19302937.25049 -14671577.72047  21205524.071    21205532.708
       239.000         203.000
  23000094.183   -15775387.84249 -11982336.07046  23000094.376    23000102.809
       224.000         172.000
 99  5 27 18 43 30.0000000  0  8G24G 4G30G 5G 8G 9G10G 6
  21279421.475     2972642.32549   2752985.50447  21279421.623    21279429.544
       239.000         203.000
  23980385.132    16568276.95249  12999235.38645  23980384.925    23980394.056
       211.000         150.000
  20935811.010   -20972433.41649 -16291842.57147  20935811.559    20935818.160
       244.000         210.000
  20290303.666    -8707040.14349  -6768710.10948  20290303.505    20290310.760
       245.000         216.000
  22889517.184     4767754.65449   3735598.50546  22889517.577    22889527.929
       221.000         168.000
  24842589.578    16451856.82649  12820924.66745  24842589.623    24842605.804
       205.000         142.000
  21198679.223   -19338910.33349 -14699608.66147  21198678.730    21198687.132
       238.000         202.000
  22987724.123   -15840392.89949 -12032989.32746  22987724.190    22987733.221
       225.000         172.000
 99  5 27 18 44  0.0000000  0  8G24G 4G30G 5G 8G 9G10G 6
  21291291.941     3035021.96049   2801592.97347  21291291.965    21291299.943
       240.000         203.000
  23998577.959    16663880.62649  13073731.64945  23998578.280    23998588.367
       212.000         150.000
  20926184.222   -21023022.43249 -16331262.57147  20926184.894    20926191.305
       244.000         210.000
  20294776.657    -8683534.48149  -6750394.04548  20294776.529    20294783.863
       245.000         216.000
  22904397.826     4845952.46549   3796531.69346  22904397.715    22904409.369
       219.000         168.000
  24859192.415    16539104.37849  12888909.51445  24859192.129    24859208.458
       202.000         141.000
  21191938.568   -19374332.59049 -14727210.39047  21191938.047    21191946.452
       239.000         203.000
  22975360.732   -15905362.71049 -12083615.11846  22975360.179    22975369.345
       224.000         173.000
 99  5 27 18 44 30.0000000  0  8G24G 4G30G 5G 8G 9G10G 6
  21303201.151     3097605.26849   2850359.14447  21303201.071    21303209.059
       239.000         203.000
  24016769.888    16759479.00449  13148223.77945  24016771.035    24016779.270
       211.000         150.000
  20916650.849   -21073120.95749 -16370300.37747  20916651.344    20916657.985
       244.000         210.000
  20299353.684    -8659482.26349  -6731652.10148  20299353.520    20299360.877
       245.000         216.000
  22919326.702     4924403.79749   3857662.43846  22919326.660    22919337.673
       220.000         168.000
  24875772.427    16626232.24149  12956801.10745  24875773.350    24875787.305
       201.000         139.000
  21185308.536   -19409173.45349 -14754359.08947  21185307.956    21185316.558
       239.000         203.000
  22963006.763   -15970283.42649 -12134202.65346  22963006.991    22963015.254
       223.000         173.000
 99  5 27 18 45  0.0000000  0  8G24G 4G30G 5G 8G 9G10G 6
  21315145.199     3160371.38049   2899267.76547  21315145.342    21315153.197
       240.000         202.000
  24034960.463    16855070.62649  13222710.66845  24034961.003    24034970.412
       211.000         150.000
  20907204.014   -21122764.39049 -16408983.56247  20907204.314    20907211.098
       244.000         210.000
  20304033.850    -8634888.08949  -6712487.85148  20304033.760    20304041.191
       245.000         216.000
  22934297.910     5003077.30449   3918966.31146  22934298.176    22934309.135
       223.000         167.000
  24892324.254    16713212.89149  13024577.98045  24892323.903    24892340.702
       206.000         138.000
  21178787.431   -19443441.94849 -14781061.78947  21178786.991    21178795.363
       239.000         203.000
  22950657.652   -16035178.32749 -12184770.06746  22950658.000    22950665.852
       225.000         173.000
 99  5 27 18 45 30.0000000  0  8G24G 4G30G 5G 8G 9G10G 6
  21327125.485     3223328.18049   2948324.97047  21327125.528    21327133.485
       239.000         202.000
  24053151.520    16950664.77149  13297199.49745  24053151.210    24053161.134
       213.000         150.000
  20897844.823   -21171947.09849 -16447307.74347  20897845.213    20897851.967
       244.000         211.000
  20308820.107    -8609736.45949  -6692889.21948  20308819.857    20308827.142
       245.000         216.000
  22949311.665     5081974.12649   3980444.20246  22949312.442    22949323.007
       222.000         167.000
  24908850.112    16800055.97849  13092247.67345  24908849.752    24908865.076
       204.000         137.000
  21172375.018   -19477139.32249 -14807319.45147  21172374.310    21172382.814
       239.000         203.000
  22938315.690   -16100035.56949 -12235308.14546  22938315.575    22938324.574
       222.000         174.000
 99  5 27 18 46  0.0000000  0  8G24G 4G30G 5G 8G 9G10G 6
  21339150.306     3286518.77949   2997564.35547  21339150.623    21339158.414
       239.000         202.000
  24071347.026    17046282.02949  13371706.35645  24071347.323    24071357.834
       212.000         149.000
  20888580.938   -21220629.14049 -16485241.79947  20888581.596    20888587.997
       244.000         211.000
  20313715.989    -8584008.42949  -6672841.44448  20313715.707    20313723.036
       245.000         216.000
  22964370.146     5161105.95549   4042105.21646  22964370.777    22964380.762
       222.000         167.000
  24925356.274    16886794.58149  13159835.95145  24925357.884    24925371.682
       208.000         137.000
  21166077.882   -19510230.76649 -14833104.96047  21166077.260    21166085.941
       239.000         203.000
  22925987.604   -16164819.65849 -12285789.21746  22925987.959    22925996.363
       223.000         174.000
 99  5 27 18 46 30.0000000  0  8G24G 4G30G 5G 8G 9G10G 6
  21351214.711     3349917.40049   3046965.84347  21351214.602    21351222.456
       239.000         202.000
  24089541.407    17141894.03449  13446209.09545  24089541.937    24089552.347
       212.000         149.000
  20879409.383   -21268825.87349 -16522797.68447  20879409.745    20879416.523
       244.000         211.000
  20318716.007    -8557733.15349  -6652367.23948  20318715.766    20318723.253
       244.000         216.000
  22979465.643     5240432.69549   4103918.09546  22979465.297    22979476.687
       221.000         166.000
  24941832.878    16973378.76249  13227303.90345  24941834.387    24941848.927
       207.000         136.000
  21159889.978   -19542748.51549 -14858443.43147  21159889.393    21159897.843
       240.000         204.000
  22913666.364   -16229567.99949 -12336242.43246  22913666.759    22913674.612
       224.000         174.000
 99  5 27 18 47  0.0000000  0  7G24G 4G30G 5G 8G10G 6
  21363313.948     3413499.06849   3096509.95247  21363314.225    21363322.039
       239.000         201.000
  24107729.253    17237471.78749  13520685.15345  24107729.476    24107739.501
       213.000         148.000
  20870328.869   -21316544.31549 -16559980.88847  20870329.362    20870335.935
       244.000         211.000
  20323816.422    -8530930.58749  -6631482.17148  20323816.255    20323823.716
       245.000         216.000
  22994593.070     5319927.43249   4165861.87846  22994593.514    22994605.156
       221.000         166.000
  21153806.107   -19574719.39949 -14883355.77847  21153805.495    21153813.916
       240.000         204.000
  22901346.327   -16294310.12949 -12386690.80946  22901346.098    22901355.285
       224.000         174.000
 99  5 27 18 47 30.0000000  0  7G24G 4G30G 5G 8G10G 6
  21375456.922     3477310.48649   3146233.09147  21375456.899    21375464.797
       239.000         201.000
  24125920.880    17333068.65349  13595176.11445  24125921.842    24125930.834
       213.000         149.000
  20861353.617   -21363709.72349 -16596733.15647  20861354.175    20861360.621
       244.000         211.000
  20329022.626    -8503571.96649  -6610163.80548  20329022.571    20329029.913
       245.000         216.000
  23009764.311     5399652.02749   4227984.76146  23009764.811    23009776.048
       222.000         166.000
  21147837.360   -19606085.18649 -14907796.62947  21147836.867    21147845.238
       239.000         204.000
  22889036.616   -16358997.82749 -12437096.77346  22889036.530    22889045.181
       224.000         175.000
 99  5 27 18 48  0.0000000  0  7G24G 4G30G 5G 8G10G 6
  21387629.587     3541278.29849   3196078.10347  21387629.942    21387637.713
       239.000         201.000
  24144105.882    17428630.76849  13669639.98745  24144106.833    24144116.303
       214.000         148.000
  20852469.177   -21410397.86249 -16633113.52047  20852469.586    20852476.339
       244.000         212.000
  20334320.162    -8475733.34949  -6588471.41848  20334320.023    20334327.377
       244.000         216.000
  23024968.237     5479548.25349   4290241.39046  23024968.126    23024979.836
       222.000         166.000
  21141974.390   -19636895.28249 -14931804.46647  21141973.826    21141981.978
       240.000         204.000
  22876721.278   -16423715.39349 -12487526.01146  22876721.955    22876729.941
       225.000         175.000
 99  5 27 18 48 30.0000000  0  7G24G 4G30G 5G 8G10G 6
  21399838.036     3605433.70249   3246069.28847  21399838.360    21399846.096
       239.000         201.000
  24162291.382    17524196.17849  13744106.42345  24162292.603    24162301.951
       210.000         148.000
  20843681.131   -21456579.44249 -16669099.16747  20843681.590    20843688.071
       245.000         212.000
  20339716.765    -8447374.17349  -6566373.40248  20339716.647    20339724.162
       245.000         216.000
  23040215.745     5559673.54649   4352676.51546  23040215.691    23040226.300
       220.000         165.000
  21136226.298   -19667101.73949 -14955341.92947  21136225.815    21136233.909
       240.000         204.000
  22864406.470   -16488430.17449 -12537953.07346  22864405.971    22864415.431
       225.000         176.000
 99  5 27 18 49  0.0000000  0  7G24G 4G30G 5G 8G10G 6
  21412073.456     3669731.21449   3296171.20647  21412073.700    21412081.690
       239.000         200.000
  24180467.326    17619711.01049  13818533.44745  24180467.431    24180479.326
       211.000         148.000
  20834979.651   -21502306.08949 -16704730.31947  20834980.233    20834986.914
       245.000         212.000
  20345202.180    -8418548.49049  -6543911.87448  20345202.100    20345209.539
       245.000         216.000
  23055498.043     5639982.17249   4415254.49546  23055497.611    23055509.886
       220.000         165.000
  21130582.195   -19696761.66749 -14978453.53147  21130581.713    21130590.190
       239.000         204.000
  22852083.156   -16553189.69549 -12588414.99546  22852083.152    22852092.025
       224.000         176.000
 99  5 27 18 49 30.0000000  0  7G24G 4G30G 5G 8G10G 6
  21424342.972     3734207.77249   3346412.64647  21424343.456    21424351.146
       238.000         200.000
  24198637.177    17715193.55349  13892935.30845  24198637.042    24198648.227
       210.000         147.000
  20826366.169   -21547570.23149 -16740001.07147  20826366.716    20826373.093
       245.000         212.000
  20350779.578    -8389239.30749  -6521073.58948  20350779.499    20350786.694
       245.000         216.000
  23070819.077     5720494.31349   4477991.05846  23070819.104    23070830.510
       219.000         164.000
  21125044.803   -19725860.74149 -15001128.09247  21125044.036    21125052.573
       240.000         204.000
  22839755.873   -16617969.84049 -12638892.99646  22839756.226    22839764.047
       225.000         176.000
 99  5 27 18 50  0.0000000  0  7G24G 4G30G 5G 8G10G 6
  21436650.016     3798881.57849   3396807.78147  21436649.936    21436657.916
       238.000         200.000
  24216798.156    17810629.63749  13967300.96545  24216799.668    24216808.475
       210.000         147.000
  20817838.489   -21592383.50249 -16774920.50147  20817839.060    20817845.595
       245.000         212.000
  20356453.587    -8359422.48549  -6497839.74348  20356453.431    20356460.980
       245.000         216.000
  23086177.352     5801202.00149   4540879.99746  23086177.172    23086188.696
       220.000         164.000
  21119616.129   -19754388.39149 -15023357.39747  21119615.395    21119623.934
       239.000         204.000
  22827429.520   -16682745.29949 -12689367.34346  22827430.079    22827438.394
       225.000         177.000
 99  5 27 18 50 30.0000000  0  7G24G 4G30G 5G 8G10G 6
  21448989.371     3863725.34849   3447335.35547  21448989.633    21448997.320
       238.000         200.000
  24234939.823    17905964.04549  14041587.40045  24234940.620    24234950.322
       209.000         146.000
  20809392.019   -21636770.01349 -16809507.38947  20809392.377    20809398.828
       245.000         212.000
  20362220.122    -8329119.34849  -6474226.95348  20362219.998    20362227.333
       245.000         216.000
  23101563.366     5882055.39149   4603882.45146  23101563.630    23101574.837
       221.000         164.000
  21114286.662   -19782394.76249 -15045180.50947  21114286.164    21114294.674
       239.000         205.000
  22815101.456   -16747529.73249 -12739848.68846  22815101.654    22815109.710
       225.000         177.000
 99  5 27 18 51  0.0000000  0  7G24G 4G30G 5G 8G10G 6
  21461370.153     3928786.78949   3498032.54347  21461369.983    21461378.112
       238.000         199.000
  24253070.545    18001241.34549  14115829.34645  24253071.468    24253081.302
       211.000         146.000
  20801036.158   -21680680.10749 -16843723.04547  20801036.442    20801043.176
       244.000         212.000
  20368088.352    -8298281.67849  -6450197.64648  20368088.196    20368095.579
       245.000         216.000
  23116981.766     5963078.74349   4667017.36546  23116981.986    23116993.204
       220.000         164.000
  21109063.415   -19809843.07649 -15066568.77247  21109062.760    21109071.049
       240.000         205.000
  22802782.028   -16812268.94949 -12790294.78746  22802782.222    22802790.950
       225.000         177.000
 99  5 27 18 51 30.0000000  0  7G24G 4G30G 5G 8G10G 6
  21473799.322     3994102.60549   3548927.94847  21473799.438    21473807.443
       238.000         199.000
  24271196.599    18096493.79949  14190051.93145  24271197.250    24271207.081
       210.000         146.000
  20792781.924   -21724056.26049 -16877522.64347  20792782.556    20792788.934
       245.000         212.000
  20374068.994    -8266853.47149  -6425708.17248  20374068.876    20374076.361
       245.000         216.000
  23132438.825     6044305.10849   4730310.46246  23132438.716    23132450.860
       217.000         163.000
  21103958.506   -19836669.56849 -15087472.49947  21103957.804    21103966.180
       239.000         205.000
  22790479.522   -16876919.02149 -12840671.43746  22790479.759    22790487.679
       225.000         177.000
 99  5 27 18 52  0.0000000  0  8G24G17G 4G30G 5G 8G10G 6
  21486279.172     4059684.51249   3600030.69347  21486279.408    21486287.626
       238.000         199.000
  25046177.606    -5166659.86849  -3664933.81345  25046176.972    25046191.592
       204.000         136.000
  24289322.614    18191746.10749  14264274.39145  24289322.852    24289334.068
       211.000         145.000
  20784638.018   -21766852.91849 -16910870.68847  20784638.484    20784644.966
       245.000         212.000
  20380170.019    -8234792.55449  -6400725.68148  20380169.742    20380177.373
       245.000         216.000
  23147938.989     6125758.39549   4793780.37646  23147938.196    23147950.485
       218.000         163.000
  21098977.564   -19862844.39149 -15107868.43547  21098977.232    21098985.305
       240.000         205.000
  22778199.216   -16941452.18449 -12890956.98546  22778199.511    22778207.746
       225.000         178.000
 99  5 27 18 52 30.0000000  0  8G24G17G 4G30G 5G 8G10G 6
  21498790.439     4125431.58549   3651262.13947  21498790.617    21498798.785
       238.000         199.000
  25028973.121    -5257069.45749  -3735382.54045  25028972.513    25028987.037
       205.000         137.000
  24307436.628    18286935.82949  14338448.09445  24307436.792    24307447.132
       211.000         145.000
  20776591.919   -21809135.35149 -16943818.04047  20776592.324    20776598.779
       245.000         212.000
  20386372.574    -8202198.05649  -6375327.41748  20386372.298    20386379.857
       245.000         216.000
  23163466.269     6207354.57649   4857361.63945  23163466.786    23163478.552
       219.000         162.000
  21094104.185   -19888454.11549 -15127824.02747  21094103.596    21094111.939
       240.000         205.000
  22765922.022   -17005969.17449 -12941229.93546  22765922.590    22765930.667
       226.000         178.000
 99  5 27 18 53  0.0000000  0  8G24G17G 4G30G 5G 8G10G 6
  21511337.694     4191367.68249   3702640.87547  21511338.011    21511346.168
       238.000         199.000
  25011800.454    -5347311.56549  -3805700.77245  25011798.872    25011813.945
       205.000         137.000
  24325550.599    18382125.02949  14412621.38745  24325551.001    24325561.422
       211.000         145.000
  20768653.221   -21850853.52949 -16976325.71348  20768653.670    20768660.403
       245.000         213.000
  20392683.373    -8169034.68849  -6349485.87748  20392683.109    20392690.647
       245.000         216.000
  23179029.638     6289139.90849   4921090.29645  23179029.911    23179041.725
       218.000         162.000
  21089350.321   -19913435.81649 -15147290.25747  21089349.757    21089358.183
       240.000         205.000
  22753652.954   -17070443.37449 -12991469.53346  22753652.444    22753661.198
       225.000         178.000
 99  5 27 18 53 30.0000000  0  8G24G17G 4G30G 5G 8G10G 6
  21523912.989     4257450.85349   3754134.21347  21523913.345    21523921.309
       237.000         198.000
  24994654.968    -5437410.07449  -3875907.12545  24994653.891    24994669.622
       206.000         138.000
  24343658.190    18477280.89649  14486768.70545  24343659.095    24343669.198
       210.000         144.000
  20760816.059   -21892037.96549 -17008417.48648  20760816.526    20760823.446
       245.000         213.000
  20399094.933    -8135341.84949  -6323231.76148  20399094.801    20399102.209
       245.000         215.000
  23194624.839     6371092.29649   4984949.10545  23194625.085    23194637.113
       218.000         162.000
  21084709.727   -19937822.15049 -15166292.56747  21084709.299    21084717.272
       240.000         205.000
  22741385.387   -17134909.83949 -13041703.10246  22741385.267    22741393.918
       226.000         178.000
 99  5 27 18 54  0.0000000  0  8G24G17G 4G30G 5G 8G10G 6
  21536518.605     4323693.53549   3805751.84847  21536518.748    21536527.265
       238.000         198.000
  24977538.470    -5527356.73249  -3945995.14945  24977537.690    24977553.853
       208.000         138.000
  24361764.795    18572431.93749  14560912.25445  24361765.721    24361775.454
       209.000         144.000
  20753082.454   -21932678.31249 -17040085.29148  20753082.810    20753089.546
       245.000         213.000
  20405605.624    -8101128.14349  -6296571.77748  20405605.483    20405612.895
       245.000         215.000
  23210254.577     6453226.42849   5048949.54245  23210255.095    23210267.161
       217.000         162.000
  21080184.662   -19961601.48349 -15184821.88847  21080184.052    21080192.476
       240.000         205.000
  22729122.489   -17199351.39049 -13091917.26346  22729122.706    22729130.937
       226.000         179.000
 99  5 27 18 54 30.0000000  0  8G24G17G 4G30G 5G 8G10G 6
  21549150.547     4390074.56349   3857477.28447  21549150.504    21549159.236
       237.000         198.000
  24960445.538    -5617180.25549  -4015987.25245  24960444.724    24960459.663
       206.000         139.000
  24379866.217    18667554.97149  14635034.00145  24379867.999    24379877.166
       207.000         143.000
  20745448.001   -21972797.74349 -17071347.19448  20745448.505    20745455.088
       245.000         213.000
  20412209.525    -8066424.72049  -6269530.20148  20412209.282    20412216.864
       245.000         215.000
  23225914.628     6535519.94249   5113074.16945  23225914.514    23225926.687
       220.000         161.000
  21075772.353   -19984788.09649 -15202889.35247  21075771.857    21075780.222
       240.000         205.000
  22716860.051   -17263790.79749 -13142129.75346  22716859.755    22716868.685
       227.000         179.000
 99  5 27 18 55  0.0000000  0  8G24G17G 4G30G 5G 8G10G 6
  21561816.163     4456632.77249   3909340.78247  21561816.405    21561824.681
       237.000         198.000
  24943382.869    -5706844.31949  -4085855.09845  24943381.077    24943397.110
       203.000         138.000
  24397963.626    18762656.64249  14709139.08245  24397963.861    24397974.984
       210.000         142.000
  20737917.555   -22012370.43749 -17102183.06348  20737918.108    20737924.684
       245.000         213.000
  20418913.754    -8031193.99449  -6242077.73948  20418913.690    20418921.021
       245.000         215.000
  23241610.502     6618001.61549   5177345.41845  23241610.568    23241622.639
       218.000         161.000
  21071476.722   -20007361.65849 -15220479.10947  21071476.191    21071484.298
       240.000         206.000
  22704605.353   -17328189.31749 -13192310.37346  22704605.409    22704613.685
       226.000         179.000
 99  5 27 18 55 30.0000000  0  8G24G17G 4G30G 5G 8G10G 6
  21574514.854     4523364.49049   3961339.47947  21574515.314    21574523.198
       237.000         198.000
  24926349.014    -5796357.10549  -4155605.08145  24926348.368    24926362.261
       204.000         138.000
  24416051.035    18857705.61049  14783203.10245  24416052.169    24416062.556
       206.000         142.000
  20730485.234   -22051427.86449 -17132617.43548  20730485.893    20730492.227
       245.000         213.000
  20425713.747    -7995459.91449  -6214233.05448  20425713.643    20425721.070
       245.000         215.000
  23257336.703     6700642.48949   5241740.71845  23257336.061    23257348.864
       219.000         161.000
  21067291.751   -20029353.66649 -15237615.71547  21067291.148    21067299.408
       240.000         206.000
  22692356.912   -17392555.25249 -13242465.61946  22692357.028    22692365.078
       226.000         179.000
 99  5 27 18 56  0.0000000  0  8G24G17G 4G30G 5G 8G10G 6
  21587244.476     4590258.91249   4013464.96247  21587244.622    21587252.916
       237.000         197.000
  24909343.034    -5885722.60149  -4225240.28645  24909340.722    24909356.967
       207.000         138.000
  24434126.585    18952692.60449  14857218.80945  24434127.286    24434137.263
       211.000         141.000
  20723148.393   -22089983.12149 -17162660.49648  20723148.982    20723155.527
       245.000         213.000
  20432610.101    -7959219.52249  -6185993.83848  20432609.948    20432617.455
       244.000         215.000
  23273090.663     6783429.20849   5306249.66445  23273090.994    23273102.813
       219.000         161.000
  21063215.543   -20050774.20149 -15254307.01447  21063215.110    21063223.009
       240.000         206.000
  22680112.675   -17456898.91349 -13292603.49846  22680112.965    22680121.428
       226.000         179.000
 99  5 27 18 56 30.0000000  0  8G24G17G 4G30G 5G 8G10G 6
  21600012.627     4657355.86149   4065748.25747  21600012.932    21600020.786
       237.000         197.000
  24892374.609    -5974890.84649  -4294721.79645  24892374.358    24892388.806
       207.000         138.000
  24452195.406    19047644.15249  14931206.92145  24452195.447    24452206.206
       208.000         141.000
  20715912.896   -22128005.89649 -17192288.64248  20715913.312    20715919.816
       245.000         213.000
  20439613.517    -7922416.42249  -6157316.15248  20439613.280    20439620.967
       245.000         215.000
  23288879.512     6866399.11549   5370901.35845  23288879.384    23288892.008
       218.000         161.000
  21059251.593   -20071604.87949 -15270538.69047  21059251.044    21059259.325
       241.000         206.000
  22667879.712   -17521183.36349 -13342695.25146  22667879.633    22667887.669
       227.000         180.000
 99  5 27 18 57  0.0000000  0  8G24G17G 4G30G 5G 8G10G 6
  21612810.125     4724606.90749   4118151.62347  21612810.323    21612818.329
       237.000         197.000
  24875433.913    -6063913.97349  -4364090.24945  24875433.356    24875446.962
       206.000         138.000
  24470246.771    19142504.39649  15005123.88045  24470245.861    24470256.948
       207.000         141.000
  20708768.110   -22165552.09449 -17221545.43148  20708768.628    20708775.227
       246.000         214.000
  20446715.554    -7885095.12849  -6128234.68148  20446715.423    20446723.182
       246.000         215.000
  23304693.055     6949498.93049   5435654.26745  23304692.717    23304705.755
       217.000         161.000
  21055390.843   -20091893.15749 -15286347.72247  21055390.377    21055398.459
       240.000         206.000
  22655650.157   -17585450.25849 -13392773.32146  22655650.589    22655658.748
       227.000         180.000
 99  5 27 18 57 30.0000000  0  8G24G17G 4G30G 5G 8G10G 6
  21625640.030     4792028.41049   4170687.82447  21625639.881    21625648.393
       236.000         196.000
  24858524.822    -6152771.05749  -4433329.32845  24858524.342    24858537.464
       206.000         139.000
  24488286.716    19237304.15049  15078993.69845  24488286.862    24488296.831
       206.000         141.000
  20701719.083   -22202595.15749 -17250410.16248  20701719.608    20701726.338
       246.000         214.000
  20453921.469    -7847228.06949  -6098727.93648  20453921.445    20453928.952
       246.000         215.000
  23320535.549     7032751.18849   5500525.96745  23320535.549    23320548.023
       217.000         160.000
  21051642.164   -20111592.55049 -15301697.87547  21051641.592    21051649.973
       240.000         206.000
  22643428.941   -17649673.05549 -13442817.02146  22643429.520    22643437.715
       227.000         180.000
 99  5 27 18 58  0.0000000  0  8G24G17G 4G30G 5G 8G10G 6
  21638496.885     4859591.44649   4223334.30247  21638497.140    21638505.202
       236.000         196.000
  24841641.622    -6241491.76049  -4502462.12445  24841639.221    24841655.307
       207.000         139.000
  24506307.925    19332006.20749  15152787.39645  24506307.746    24506317.504
       206.000         140.000
  20694764.449   -22239142.02349 -17278888.25048  20694765.172    20694771.697
       246.000         214.000
  20461227.142    -7808836.86149  -6068812.76248  20461227.087    20461234.667
       246.000         215.000
  23336400.952     7116123.62949   5565491.31745  23336400.656    23336413.139
       218.000         160.000
  21048001.452   -20130724.37249 -15316605.77147  21048000.822    21048009.005
       240.000         206.000
  22631210.486   -17713881.56549 -13492849.59746  22631210.759    22631218.769
       228.000         181.000
 99  5 27 18 58 30.0000000  0  8G24G17G 4G30G 5G 8G10G 6
  21651385.858     4927323.30449   4276112.33047  21651385.937    21651394.403
       236.000         196.000
  24824787.670    -6330058.84649  -4571475.23445  24824787.767    24824801.645
       206.000         140.000
  24524314.184    19426629.57849  15226519.78045  24524315.200    24524325.547
       206.000         140.000
  20687910.207   -22275161.48749 -17306955.37548  20687910.687    20687917.228
       245.000         214.000
  20468633.943    -7769914.07849  -6038483.37248  20468633.970    20468641.341
       246.000         215.000
  23352292.138     7199631.81449   5630562.44445  23352292.294    23352303.800
       217.000         160.000
  21044476.718   -20149246.84549 -15331038.84347  21044476.252    21044484.279
       240.000         206.000
  22618999.254   -17778052.11249 -13542852.58146  22618999.642    22619007.676
       227.000         181.000
 99  5 27 18 59  0.0000000  0  8G24G17G 4G30G 5G 8G10G 6
  21664305.794     4995217.94249   4329017.20047  21664306.063    21664313.923
       236.000         196.000
  24807961.059    -6418482.40749  -4640376.48845  24807960.866    24807974.720
       207.000         140.000
  24542308.245    19521188.40749  15300201.85745  24542308.593    24542318.552
       206.000         140.000
  20681160.009   -22310634.10649 -17334596.38948  20681160.590    20681167.184
       246.000         214.000
  20476139.804    -7730470.58149  -6007748.23448  20476139.514    20476147.183
       246.000         214.000
  23368208.725     7283273.40849   5695737.50845  23368208.516    23368221.350
       216.000         159.000
  21041073.625   -20167130.24249 -15344973.92847  21041072.828    21041081.164
       240.000         206.000
  22606796.820   -17842176.56349 -13592819.65246  22606797.070    22606805.099
       228.000         181.000
 99  5 27 18 59 30.0000000  0  8G24G17G 4G30G 5G 8G10G 6
  21677252.685     5063254.26649   4382032.47447  21677252.660    21677261.196
       236.000         195.000
  24791159.956    -6506772.07949  -4709173.42945  24791158.698    24791173.942
       204.000         140.000
  24560291.742    19615692.17949  15373841.04745  24560292.034    24560302.229
       206.000         139.000
  20674516.293   -22345547.05449 -17361801.29448  20674516.800    20674523.480
       245.000         214.000
  20483741.140    -7690525.42249  -5976622.18748  20483740.901    20483748.484
       246.000         214.000
  23384151.191     7367050.88549   5761018.45945  23384151.419    23384163.550
       216.000         159.000
  21037788.216   -20184395.01849 -15358426.96647  21037787.613    21037795.915
       240.000         206.000
  22594601.502   -17906263.23749 -13642757.28346  22594601.603    22594609.456
       229.000         181.000
 99  5 27 19  0  0.0000000  0  8G24G17G 4G30G 5G 8G10G 6
  21690226.202     5131430.44049   4435156.71647  21690226.029    21690234.534
       236.000         195.000
  24774381.622    -6594941.98849  -4777877.04745  24774380.273    24774395.118
       207.000         141.000
  24578266.298    19710148.85649  15447443.53245  24578266.750    24578277.706
       206.000         139.000
  20667980.008   -22379895.39149 -17388566.24548  20667980.545    20667987.165
       245.000         214.000
  20491437.408    -7650081.46849  -5945107.47048  20491437.293    20491444.829
       246.000         214.000
  23400120.486     7450969.23449   5826409.19245  23400120.344    23400133.253
       217.000         159.000
  21034618.292   -20201053.10349 -15371407.26347  21034617.817    21034625.932
       240.000         206.000
  22582411.731   -17970320.96649 -13692672.36146  22582411.412    22582419.519
       229.000         182.000
 99  5 27 19  0 30.0000000  0  8G24G17G 4G30G 5G 8G10G 6
  21703227.306     5199751.41649   4488393.79147  21703227.578    21703235.738
       235.000         195.000
  24757630.290    -6682969.78849  -4846469.91745  24757630.389    24757643.632
       205.000         140.000
  24596239.142    19804596.25449  15521038.77945  24596239.128    24596250.856
       206.000         139.000
  20661553.200   -22413668.53349 -17414882.99348  20661553.924    20661560.454
       246.000         214.000
  20499233.159    -7609114.60449  -5913185.29348  20499233.126    20499240.804
       246.000         214.000
  23416123.897     7535066.98449   5891939.71345  23416124.614    23416136.424
       216.000         159.000
  21031569.922   -20217072.32849 -15383889.74847  21031569.377    21031577.798
       241.000         206.000
  22570232.734   -18034321.87649 -13742543.16646  22570232.493    22570240.665
       228.000         181.000
 99  5 27 19  1  0.0000000  0  8G24G17G 4G30G 5G 8G10G 6
  21716254.442     5268209.19049   4541737.46547  21716254.370    21716263.100
       236.000         194.000
  24740905.423    -6770858.47549  -4914954.40045  24740904.278    24740918.660
       207.000         141.000
  24614210.269    19899034.02049  15594626.53945  24614211.296    24614221.637
       205.000         138.000
  20655235.266   -22446869.58749 -17440753.95448  20655235.768    20655242.470
       246.000         214.000
  20507129.368    -7567620.38849  -5880852.18948  20507129.270    20507137.157
       246.000         214.000
  23432159.337     7619333.03649   5957601.36845  23432159.703    23432171.295
       215.000         159.000
  21028640.002   -20232469.06449 -15395887.18147  21028639.206    21028647.756
       240.000         206.000
  22558064.176   -18098267.83949 -13792371.15646  22558064.127    22558072.346
       230.000         182.000
 99  5 27 19  1 30.0000000  0  8G24G17G 4G30G 5G 8G10G 6
  21729305.467     5336792.81549   4595179.19547  21729305.685    21729314.015
       236.000         194.000
  24724206.295    -6858612.45249  -4983333.92845  24724205.449    24724219.767
       207.000         141.000
  24632172.040    19993423.04649  15668176.31345  24632173.211    24632182.709
       206.000         138.000
  20649017.347   -22479545.20849 -17466215.49248  20649018.012    20649024.343
       246.000         214.000
  20515123.389    -7525611.79149  -5848118.27648  20515123.326    20515131.056
       245.000         214.000
  23448221.053     7703737.25649   6023370.68445  23448221.444    23448233.814
       216.000         158.000
  21025821.817   -20247278.63449 -15407427.08547  21025821.457    21025829.575
       241.000         206.000
  22545898.491   -18162198.78149 -13842187.44146  22545898.219    22545906.474
       229.000         182.000
 99  5 27 19  2  0.0000000  0  8G24G17G 4G30G 5G 8G10G 6
  21742384.516     5405523.51349   4648735.53347  21742384.730    21742393.172
       236.000         194.000
  24707539.143    -6946198.14249  -5051582.32545  24707538.397    24707552.018
       207.000         142.000
  24650124.572    20087763.95849  15741688.59545  24650124.574    24650136.793
       206.000         138.000
  20642897.467   -22511705.40849 -17491275.40448  20642897.929    20642904.594
       246.000         214.000
  20523219.533    -7483066.54449  -5814966.19148  20523219.461    20523227.114
       245.000         214.000
  23464307.182     7788269.47949   6089239.73645  23464307.888    23464319.258
       215.000         158.000
  21023120.602   -20261473.67249 -15418488.13047  21023119.817    21023128.183
       240.000         206.000
  22533737.490   -18226104.94549 -13891984.42146  22533738.008    22533746.103
       228.000         182.000
 99  5 27 19  2 30.0000000  0  7G24G17G30G 5G 8G10G 6
  21755492.545     5474406.31949   4702410.39947  21755492.766    21755501.081
       236.000         194.000
  24690910.038    -7033584.11749  -5119675.11445  24690909.599    24690922.953
       206.000         143.000
  20636873.990   -22543359.06149 -17515940.60348  20636874.559    20636881.152
       246.000         214.000
  20531415.624    -7439995.99249  -5781404.77848  20531415.667    20531423.461
       245.000         213.000
  23480412.964     7872905.19649   6155189.43945  23480413.188    23480425.511
       215.000         158.000
  21020535.993   -20275055.72049 -15429071.52347  21020535.456    21020543.426
       241.000         206.000
  22521583.040   -18289976.77149 -13941754.64046  22521583.042    22521591.576
       229.000         182.000
 99  5 27 19  3  0.0000000  0  7G24G17G30G 5G 8G10G 6
  21768630.754     5543447.84349   4756208.94047  21768630.990    21768638.746
       236.000         193.000
  24674317.492    -7120777.91949  -5187618.15045  24674316.236    24674331.083
       205.000         143.000
  20630947.169   -22574504.73949 -17540209.97648  20630947.722    20630954.406
       246.000         214.000
  20539707.874    -7396420.11949  -5747449.60848  20539707.716    20539715.537
       245.000         213.000
  23496532.341     7957612.53249   6221194.95345  23496533.179    23496545.139
       216.000         158.000
  21018063.136   -20288050.76349 -15439197.50547  21018062.468    21018070.753
       241.000         206.000
  22509433.445   -18353823.53049 -13991505.32446  22509433.593    22509441.954
       229.000         183.000
 99  5 27 19  3 30.0000000  0  7G24G17G30G 5G 8G10G 6
  21781793.631     5612619.05549   4810108.54047  21781793.888    21781801.952
       236.000         193.000
  24657757.546    -7207800.25349  -5255427.59045  24657756.600    24657771.004
       207.000         143.000
  20625114.999   -22605153.06549 -17564091.80148  20625115.710    20625122.246
       246.000         215.000
  20548090.728    -7352368.01849  -5713123.35648  20548090.573    20548098.501
       245.000         213.000
  23512661.808     8042372.39849   6287241.39245  23512662.103    23512674.475
       216.000         158.000
  21015697.651   -20300481.44749 -15448883.73247  21015697.196    21015705.235
       240.000         206.000
  22497284.830   -18417664.80149 -14041251.72846  22497284.684    22497292.869
       229.000         183.000
 99  5 27 19  4  0.0000000  0  7G24G17G30G 5G 8G10G 6
  21794979.652     5681911.61749   4864102.68947  21794979.720    21794988.476
       236.000         193.000
  24641230.586    -7294648.80449  -5323101.61445  24641229.882    24641243.504
       208.000         143.000
  20619386.088   -22635258.78249 -17587550.81448  20619386.526    20619393.141
       246.000         215.000
  20556563.579    -7307843.08249  -5678428.66048  20556563.517    20556571.245
       245.000         213.000
  23528802.620     8127192.00049   6353334.37945  23528802.689    23528815.301
       214.000         157.000
  21013443.498   -20312326.95949 -15458113.98147  21013442.876    21013451.086
       240.000         206.000
  22485142.986   -18481470.59749 -14090970.50146  22485142.700    22485151.377
       229.000         183.000
 99  5 27 19  4 30.0000000  0  7G24G17G30G 5G 8G10G 6
  21808189.031     5751326.90649   4918192.47347  21808189.535    21808197.662
       236.000         193.000
  24624732.078    -7381348.07549  -5390659.32645  24624731.853    24624745.254
       209.000         144.000
  20613763.939   -22664803.65549 -17610572.80748  20613764.398    20613771.018
       246.000         215.000
  20565125.634    -7262849.58349  -5643368.85248  20565125.410    20565133.251
       245.000         213.000
  23544953.971     8212067.16649   6419470.65945  23544954.397    23544966.792
       215.000         157.000
  21011300.157   -20323590.12549 -15466890.45347  21011299.570    21011307.866
       240.000         206.000
  22473008.840   -18545235.79949 -14140657.64146  22473008.630    22473016.864
       230.000         184.000
 99  5 27 19  5  0.0000000  0  7G24G17G30G 5G 8G10G 6
  21821424.668     5820880.34249   4972389.90547  21821424.682    21821433.174
       236.000         193.000
  24608263.266    -7467891.74249  -5458095.79945  24608262.754    24608276.397
       209.000         144.000
  20608256.386   -22693746.06049 -17633125.34648  20608256.911    20608263.465
       246.000         215.000
  20573784.117    -7217349.35349  -5607914.18447  20573784.016    20573791.843
       245.000         212.000
  23561122.779     8297033.97149   6485678.34845  23561122.714    23561136.140
       215.000         156.000
  21009274.705   -20334233.97949 -15475184.34547  21009274.052    21009282.315
       240.000         206.000
  22460889.027   -18608925.88649 -14190286.24746  22460888.710    22460897.361
       230.000         184.000
 99  5 27 19  5 30.0000000  0  7G24G17G30G 5G 8G10G 6
  21834687.335     5890575.75249   5026697.96447  21834687.350    21834696.043
       236.000         193.000
  24591827.151    -7554264.04649  -5525398.73145  24591826.513    24591839.895
       208.000         145.000
  20602864.631   -22722080.22549 -17655203.93448  20602865.053    20602871.655
       246.000         215.000
  20582544.014    -7171315.90549  -5572044.02547  20582543.861    20582551.708
       244.000         212.000
  23577313.968     8382118.41449   6551977.70445  23577313.725    23577327.970
       215.000         157.000
  21007372.166   -20344231.86549 -15482974.89447  21007371.839    21007379.611
       240.000         206.000
  22448785.845   -18672528.54149 -14239846.72546  22448786.299    22448793.975
       229.000         184.000
 99  5 27 19  6  0.0000000  0  7G24G17G30G 5G 8G10G 6
  21847980.685     5960432.38149   5081131.65047  21847980.928    21847988.918
       236.000         193.000
  24575425.118    -7640456.77249  -5592561.74245  24575425.527    24575438.271
       210.000         145.000
  20597586.339   -22749818.00649 -17676817.80248  20597586.907    20597593.445
       248.000         215.000
  20591408.214    -7124734.49449  -5535746.88547  20591408.215    20591416.050
       245.000         212.000
  23593527.372     8467319.28549   6618367.78845  23593528.000    23593540.213
       214.000         157.000
  21005594.222   -20353575.01349 -15490255.25147  21005593.380    21005601.809
       240.000         206.000
  22436698.716   -18736046.63749 -14289341.31546  22436698.757    22436706.922
       229.000         184.000
 99  5 27 19  6 30.0000000  0  7G24G17G30G 5G 8G10G 6
  21861309.894     6030477.67749   5135712.35647  21861310.180    21861318.047
       236.000         192.000
  24559060.697    -7726451.84049  -5659570.73845  24559059.707    24559073.563
       208.000         145.000
  20592420.641   -22776963.89649 -17697970.45948  20592421.273    20592427.857
       248.000         215.000
  20600379.856    -7077588.53849  -5499009.83947  20600379.864    20600387.564
       245.000         212.000
  23609765.099     8552648.40149   6684857.79045  23609764.760    23609778.252
       213.000         156.000
  21003940.625   -20362264.55449 -15497026.30847  21003940.055    21003948.249
       240.000         206.000
  22424629.136   -18799472.58649 -14338764.10346  22424628.902    22424637.263
       230.000         184.000
 99  5 27 19  7  0.0000000  0  7G24G17G30G 5G 8G10G 6
  21874667.424     6100671.79349   5190409.01947  21874667.643    21874675.732
       236.000         192.000
  24542729.693    -7812271.09349  -5726442.75045  24542729.172    24542742.723
       208.000         145.000
  20587359.329   -22803561.27549 -17718695.70348  20587359.787    20587366.482
       248.000         215.000
  20609448.851    -7029930.81949  -5461874.01547  20609448.766    20609456.616
       244.000         212.000
  23626023.064     8638083.79849   6751430.61045  23626023.015    23626036.926
       214.000         156.000
  21002403.224   -20370343.65649 -15503321.69947  21002402.689    21002410.781
       240.000         206.000
  22412567.394   -18862857.43749 -14388154.86246  22412567.382    22412575.374
       230.000         184.000
 99  5 27 19  7 30.0000000  0  7G24G17G30G 5G 8G10G 6
  21888041.508     6170952.98149   5245173.53447  21888041.594    21888049.766
       236.000         192.000
  24526419.998    -7897978.38149  -5793227.51545  24526419.293    24526432.591
       207.000         146.000
  20582387.679   -22829687.52949 -17739053.83948  20582388.119    20582394.797
       247.000         215.000
  20618599.974    -6981841.62249  -5424401.97347  20618599.810    20618607.474
       245.000         212.000
  23642288.984     8723561.08949   6818036.08045  23642289.064    23642302.454
       214.000         155.000
  21000966.801   -20377892.03949 -15509203.54147  21000966.174    21000974.514
       240.000         206.000
  22400495.602   -18926295.16649 -14437586.82746  22400496.029    22400503.661
       230.000         184.000
 99  5 27 19  8  0.0000000  0  7G24G17G30G 5G 8G10G 6
  21901436.823     6241345.71449   5300024.96347  21901436.801    21901445.361
       235.000         191.000
  24510138.687    -7983536.95249  -5859896.40045  24510137.895    24510151.286
       206.000         147.000
  20577512.625   -22855306.13149 -17759016.39948  20577513.014    20577519.757
       248.000         215.000
  20627836.156    -6933305.31449  -5386581.53847  20627836.086    20627844.038
       244.000         212.000
  23658565.045     8809091.26249   6884682.74245  23658565.126    23658578.977
       215.000         155.000
  20999636.581   -20384882.34849 -15514650.52147  20999636.054    20999644.185
       241.000         207.000
  22388419.370   -18989756.06049 -14487036.84646  22388419.100    22388427.219
       230.000         185.000
 99  5 27 19  8 30.0000000  0  7G24G17G30G 5G 8G10G 6
  21914851.906     6311842.25449   5354957.28647  21914852.124    21914860.279
       235.000         191.000
  24493888.963    -8068928.99749  -5926435.52045  24493888.154    24493901.709
       209.000         146.000
  20572738.780   -22880392.87549 -17778564.52848  20572739.389    20572746.106
       247.000         215.000
  20637156.980    -6884324.41649  -5348414.67147  20637156.844    20637164.836
       244.000         212.000
  23674853.542     8894686.88349   6951380.41445  23674854.050    23674866.071
       213.000         154.000
  20998415.658   -20391298.37949 -15519650.02147  20998415.090    20998423.420
       241.000         207.000
  22376344.022   -19053212.27349 -14536483.22046  22376344.089    22376352.356
       230.000         185.000
 99  5 27 19  9  0.0000000  0  7G24G17G30G 5G 8G10G 6
  21928288.323     6382450.99249   5409977.03647  21928288.822    21928296.430
       235.000         191.000
  24477673.979    -8154138.59549  -5992832.48545  24477673.339    24477686.758
       207.000         146.000
  20568070.116   -22904926.98849 -17797682.03348  20568070.691    20568077.467
       248.000         215.000
  20646570.195    -6834857.92649  -5309869.42247  20646569.937    20646578.091
       244.000         211.000
  23691159.435     8980374.17249   7018149.51945  23691160.601    23691172.299
       212.000         153.000
  20997310.633   -20397105.30949 -15524174.89147  20997309.995    20997318.295
       240.000         207.000
  22364274.874   -19116635.82849 -14585904.14046  22364274.625    22364282.775
       230.000         185.000
 99  5 27 19  9 30.0000000  0  7G24G17G30G 5G 8G10G 6
  21941735.134     6453114.26049   5465039.27147  21941735.173    21941743.508
       235.000         191.000
  24461484.246    -8239215.43949  -6059125.99345  24461483.647    24461497.728
       208.000         146.000
  20563497.272   -22928957.52749 -17816407.14248  20563497.867    20563504.477
       248.000         216.000
  20656072.797    -6784921.57749  -5270958.04547  20656072.758    20656080.805
       244.000         211.000
  23707468.910     9066080.23149   7084933.24045  23707468.801    23707482.320
       211.000         153.000
  20996313.874   -20402343.16949 -15528256.32847  20996313.395    20996321.519
       241.000         207.000
  22352206.962   -19180052.98349 -14635320.06846  22352206.809    22352215.050
       230.000         186.000
 99  5 27 19 10  0.0000000  0  7G24G17G30G 5G 8G10G 6
  21955203.348     6523890.09349   5520189.21847  21955203.079    21955211.502
       235.000         190.000
  24445333.110    -8324089.91749  -6125261.83245  24445332.448    24445345.888
       207.000         146.000
  20559034.406   -22952410.03449 -17834681.84148  20559034.856    20559041.681
       247.000         216.000
  20665680.399    -6734433.54549  -5231616.79247  20665680.177    20665688.287
       244.000         211.000
  23723790.373     9151849.21549   7151766.00145  23723790.911    23723804.156
       213.000         152.000
  20995440.153   -20406934.41649 -15531833.91347  20995439.650    20995447.656
       240.000         207.000
  22340158.067   -19243370.11449 -14684658.05346  22340158.150    22340166.379
       231.000         186.000
 99  5 27 19 10 30.0000000  0  7G24G17G30G 5G 8G10G 6
  21968692.225     6594774.67649   5575423.90647  21968692.301    21968700.511
       235.000         190.000
  24429217.973    -8408775.25849  -6191250.28245  24429217.495    24429231.226
       209.000         147.000
  20554679.950   -22975292.94549 -17852512.69548  20554680.491    20554687.035
       248.000         216.000
  20675393.833    -6683389.48949  -5191842.27647  20675393.573    20675401.710
       244.000         211.000
  23740125.246     9237688.87749   7218653.82045  23740126.123    23740138.625
       211.000         152.000
  20994688.911   -20410882.34449 -15534910.21347  20994688.400    20994696.562
       240.000         207.000
  22328127.213   -19306592.58449 -14733922.28146  22328127.239    22328135.166
       231.000         186.000
 99  5 27 19 11  0.0000000  0  7G24G17G30G 5G 8G10G 6
  21982198.221     6665748.87349   5630728.42247  21982198.281    21982206.858
       234.000         190.000
  24413131.697    -8493308.68449  -6257120.36245  24413131.291    24413144.389
       212.000         148.000
  20550428.678   -22997633.68449 -17869921.07548  20550428.984    20550435.602
       247.000         216.000
  20685210.250    -6631804.11549  -5151645.94847  20685210.067    20685218.107
       244.000         211.000
  23756469.244     9323576.27649   7285578.84845  23756469.279    23756482.482
       211.000         152.000
  20994055.155   -20414212.56849 -15537505.18647  20994054.399    20994062.718
       240.000         207.000
  22316106.667   -19369760.74549 -14783144.19146  22316106.341    22316114.425
       230.000         186.000
 99  5 27 19 11 30.0000000  0  7G24G17G30G 5G 8G10G 6
  21995731.362     6736865.82349   5686144.17447  21995731.482    21995740.079
       234.000         190.000
  24397085.035    -8577634.18349  -6322828.41945  24397084.420    24397097.466
       207.000         148.000
  20546293.677   -23019363.03449 -17886853.05348  20546294.067    20546301.038
       248.000         216.000
  20695133.855    -6579655.29449  -5111010.57247  20695133.797    20695141.830
       244.000         210.000
  23772831.006     9409557.23749   7352576.77745  23772831.141    23772844.575
       213.000         152.000
  20993549.190   -20416871.39949 -15539576.99747  20993548.649    20993556.659
       240.000         207.000
  22304104.672   -19432831.45049 -14832290.16146  22304104.420    22304112.707
       231.000         186.000
 99  5 27 19 12  0.0000000  0  7G24G17G30G 5G 8G10G 6
  22009287.239     6808102.10249   5741652.90547  22009287.467    22009295.885
       234.000         190.000
  24381071.750    -8661784.17249  -6388399.71845  24381071.306    24381084.613
       209.000         148.000
  20542271.298   -23040500.74549 -17903324.01348  20542271.781    20542278.405
       248.000         216.000
  20705152.598    -6527006.73649  -5069985.79647  20705152.441    20705160.315
       244.000         210.000
  23789209.459     9495625.45749   7419642.69745  23789209.313    23789223.825
       214.000         152.000
  20993165.250   -20418888.94749 -15541149.11247  20993164.615    20993172.733
       240.000         207.000
  22292112.083   -19495852.99449 -14881397.82546  22292112.272    22292120.176
       231.000         187.000
 99  5 27 19 12 30.0000000  0  7G24G17G30G 5G 8G10G 6
  22022866.977     6879463.80649   5797259.36947  22022867.256    22022875.540
       234.000         189.000
  24365090.080    -8745767.91049  -6453841.45145  24365089.729    24365102.324
       208.000         148.000
  20538360.428   -23061052.62749 -17919338.48248  20538361.108    20538367.613
       248.000         216.000
  20715262.313    -6473880.25449  -5028588.60847  20715262.342    20715270.341
       244.000         210.000
  23805605.939     9581788.17249   7486782.24645  23805606.042    23805620.013
       211.000         153.000
  20992901.072   -20420277.30849 -15542230.94647  20992900.467    20992908.623
       241.000         207.000
  22280125.457   -19558842.82849 -14930480.78146  22280125.640    22280133.262
       232.000         187.000
 99  5 27 19 13  0.0000000  0  7G24G17G30G 5G 8G10G 6
  22036468.294     6950938.96449   5852954.24447  22036468.810    22036477.085
       234.000         189.000
  24349136.608    -8829603.46649  -6519167.72445  24349134.595    24349149.200
       208.000         148.000
  20534561.944   -23081014.10249 -17934892.89648  20534562.648    20534569.321
       248.000         216.000
  20725458.850    -6420297.41149  -4986835.82047  20725458.733    20725466.778
       244.000         210.000
  23822013.784     9668011.01949   7553968.65245  23822014.582    23822027.443
       210.000         152.000
  20992752.354   -20421058.61649 -15542839.75647  20992751.590    20992760.075
       240.000         207.000
  22268143.457   -19621808.65749 -14979545.03546  22268143.445    22268151.274
       231.000         187.000
 99  5 27 19 13 30.0000000  0  7G24G17G30G 5G 8G10G 6
  22050085.798     7022499.04149   5908715.28747  22050086.223    22050094.429
       234.000         189.000
  24333210.156    -8913296.63549  -6584383.04245  24333209.050    24333223.113
       208.000         147.000
  20530872.147   -23100404.39149 -17950002.23248  20530872.683    20530879.419
       248.000         216.000
  20735735.429    -6366293.93749  -4944755.26847  20735735.349    20735743.203
       244.000         210.000
  23838423.896     9754246.12749   7621164.60245  23838423.423    23838437.513
       210.000         151.000
  20992713.301   -20421263.92549 -15542999.73047  20992712.707    20992721.008
       240.000         207.000
  22256162.677   -19684767.83049 -15028604.09646  22256162.629    22256170.429
       232.000         187.000
 99  5 27 19 14  0.0000000  0  7G24G17G30G 5G 8G10G 6
  22063729.493     7094196.89949   5964583.68847  22063729.658    22063738.414
       234.000         189.000
  24317321.192    -8996792.90449  -6649444.93145  24317320.050    24317333.610
       209.000         148.000
  20527298.182   -23119185.67849 -17964637.02248  20527298.527    20527305.460
       248.000         216.000
  20746103.133    -6311811.71749  -4902301.66547  20746103.012    20746111.052
       244.000         210.000
  23854842.140     9840523.83149   7688393.73145  23854842.037    23854856.461
       209.000         149.000
  20992791.694   -20420852.04849 -15542678.78947  20992791.073    20992799.162
       240.000         207.000
  22244195.261   -19747657.03549 -15077608.64047  22244194.854    22244203.237
       233.000         188.000
 99  5 27 19 14 30.0000000  0  7G24G17G30G 5G 8G10G 6
  22077398.437     7166027.31749   6020555.37747  22077398.665    22077407.175
       234.000         189.000
  24301471.472    -9080083.38949  -6714346.47945  24301471.521    24301483.516
       210.000         150.000
  20523841.375   -23137351.30649 -17978792.07948  20523841.890    20523848.643
       248.000         216.000
  20756564.819    -6256835.57349  -4859463.19047  20756564.689    20756572.771
       242.000         209.000
  23871264.527     9926823.17549   7755639.73545  23871265.117    23871278.177
       210.000         149.000
  20992989.032   -20419814.98449 -15541870.69147  20992988.247    20992996.790
       241.000         207.000
  22232246.311   -19810449.30749 -15126537.65847  22232246.686    22232254.330
       233.000         188.000
 99  5 27 19 15  0.0000000  0  7G24G17G30G 5G 8G10G 6
  22091097.013     7238013.57449   6076648.50347  22091097.322    22091105.628
       234.000         189.000
  24285669.223    -9163124.47649  -6779053.68945  24285668.442    24285681.664
       211.000         150.000
  20520509.013   -23154863.05449 -17992437.62048  20520509.637    20520516.288
       248.000         216.000
  20767128.017    -6201325.91249  -4816208.98847  20767127.877    20767136.011
       242.000         209.000
  23887698.162    10013181.69249   7822931.83845  23887699.080    23887712.108
       210.000         149.000
  20993314.209   -20418106.20649 -15540539.17947  20993313.821    20993321.878
       240.000         207.000
  22220324.680   -19873098.02749 -15175354.81247  22220324.809    22220332.758
       233.000         188.000
 99  5 27 19 15 30.0000000  0  7G24G17G30G 5G 8G10G 6
  22104806.812     7310058.63349   6132787.45247  22104807.070    22104815.765
       233.000         188.000
  24269898.751    -9245998.21849  -6843630.49545  24269897.619    24269910.856
       212.000         150.000
  20517279.127   -23171836.24749 -18005663.50648  20517279.613    20517286.507
       248.000         216.000
  20777775.554    -6145372.90149  -4772609.31747  20777775.515    20777783.728
       242.000         209.000
  23904127.700    10099518.07249   7890206.68045  23904127.437    23904142.231
       211.000         149.000
  20993751.842   -20415806.51249 -15538747.21447  20993751.129    20993759.559
       240.000         207.000
  22208413.103   -19935693.62749 -15224130.57347  22208412.856    22208420.905
       233.000         189.000
 99  5 27 19 16  0.0000000  0  7G24G17G30G 5G 8G10G 6
  22118529.124     7382169.53249   6188977.70647  22118529.081    22118537.896
       233.000         188.000
  24254157.469    -9328718.93549  -6908088.06045  24254157.286    24254170.267
       211.000         150.000
  20514152.769   -23188265.50049 -18018465.54248  20514153.347    20514160.043
       248.000         216.000
  20788509.011    -6088968.58349  -4728657.97847  20788508.895    20788516.936
       242.000         209.000
  23920557.134    10185854.03649   7957481.21045  23920557.653    23920571.336
       210.000         149.000
  20994303.534   -20412907.13849 -15536487.96647  20994302.807    20994311.130
       240.000         206.000
  22196511.489   -19998236.81949 -15272865.50347  22196511.245    22196519.273
       233.000         189.000
 99  5 27 19 16 30.0000000  0  7G24G17G30G 5G 8G10G 6
  22132272.931     7454393.36449   6245255.96547  22132273.006    22132281.356
       232.000         188.000
  24238456.493    -9411227.69449  -6972380.45945  24238455.536    24238469.633
       210.000         151.000
  20511142.179   -23204086.57049 -18030793.66748  20511142.681    20511149.494
       248.000         216.000
  20799340.616    -6032048.41949  -4684304.67747  20799340.456    20799348.647
       242.000         209.000
  23937000.398    10272263.32249   8024812.85145  23937001.749    23937014.769
       210.000         149.000
  20994981.423   -20409344.80349 -15533712.12547  20994981.057    20994989.000
       240.000         207.000
  22184627.889   -20060685.35549 -15321526.67147  22184627.982    22184635.980
       234.000         189.000
 99  5 27 19 17  0.0000000  0  7G24G17G30G 5G 8G10G 6
  22146025.988     7526665.99449   6301572.24146  22146025.775    22146034.730
       233.000         187.000
  24222784.838    -9493582.41749  -7036552.82545  24222784.245    24222797.524
       212.000         152.000
  20508233.260   -23219373.09649 -18042705.26748  20508233.705    20508240.603
       248.000         216.000
  20810259.243    -5974671.10949  -4639595.16247  20810259.437    20810267.277
       242.000         209.000
  23953447.163    10358690.53049   8092158.46945  23953448.093    23953461.404
       210.000         149.000
  20995771.421   -20405193.34649 -15530477.23247  20995770.860    20995778.934
       240.000         206.000
  22172746.834   -20123120.39849 -15370177.33047  22172746.637    22172754.351
       234.000         189.000
 99  5 27 19 17 30.0000000  0  7G24G17G30G 5G 8G10G 6
  22159795.850     7599027.13249   6357957.47746  22159796.022    22159804.562
       232.000         187.000
  24207149.975    -9575743.45449  -7100574.28045  24207148.900    24207162.890
       211.000         152.000
  20505433.501   -23234085.98049 -18054169.87148  20505434.063    20505440.608
       246.000         216.000
  20821272.205    -5916797.79449  -4594499.15047  20821271.983    20821280.271
       242.000         208.000
  23969903.419    10445167.73649   8159543.03445  23969904.121    23969918.016
       211.000         149.000
  20996679.177   -20400423.14249 -15526760.19247  20996678.632    20996686.642
       240.000         207.000
  22160874.530   -20185509.42349 -15418792.12647  22160874.586    22160882.310
       234.000         190.000
 99  5 27 19 18  0.0000000  0  7G24G17G30G 5G 8G10G 6
  22173578.073     7671453.05849   6414393.19846  22173577.871    22173586.863
       232.000         187.000
  24191548.067    -9657731.25649  -7164460.74945  24191547.430    24191560.418
       212.000         152.000
  20502740.456   -23248238.05049 -18065197.47848  20502740.878    20502747.604
       246.000         216.000
  20832375.582    -5858449.57449  -4549033.08347  20832375.487    20832383.605
       241.000         208.000
  23986364.363    10531669.67649   8226946.87745  23986364.166    23986378.355
       211.000         148.000
  20997701.261   -20395052.21949 -15522575.06447  20997700.804    20997708.780
       240.000         207.000
  22149006.864   -20247874.30449 -15467388.11447  22149006.792    22149014.905
       233.000         190.000
 99  5 27 19 18 30.0000000  0  7G24G17G30G 5G 8G10G 6
  22187372.430     7743942.89249   6470878.72046  22187372.522    22187381.175
       232.000         186.000
  24175983.369    -9739523.69349  -7228194.97745  24175982.655    24175995.289
       212.000         152.000
  20500156.194   -23261818.45049 -18075779.62648  20500156.757    20500163.433
       247.000         216.000
  20843569.374    -5799625.97949  -4503196.59747  20843569.167    20843577.439
       241.000         208.000
  24002829.611    10618194.36149   8294368.44245  24002830.686    24002844.756
       210.000         147.000
  20998839.891   -20389068.75549 -15517912.62847  20998839.536    20998847.738
       241.000         207.000
  22137148.654   -20310189.29949 -15515945.22547  22137148.771    22137156.276
       234.000         190.000
 99  5 27 19 19  0.0000000  0  7G24G17G30G 5G 8G10G 6
  22201180.393     7816504.23449   6527419.95946  22201180.333    22201189.531
       231.000         186.000
  24160453.635    -9821132.67349  -7291786.26745  24160452.956    24160466.160
       212.000         152.000
  20497680.332   -23274829.20649 -18085917.89948  20497680.891    20497687.646
       246.000         216.000
  20854849.176    -5740350.25649  -4457007.80147  20854849.308    20854857.163
       241.000         207.000
  24019295.982    10704724.56549   8361794.30645  24019295.798    24019310.685
       209.000         146.000
  21000092.850   -20382484.23049 -15512781.83347  21000092.309    21000100.491
       240.000         207.000
  22125303.273   -20372437.01149 -15564449.91147  22125303.311    22125311.262
       234.000         190.000
 99  5 27 19 19 30.0000000  0  7G24G17G30G 5G 8G10G 6
  22215006.164     7889159.01149   6584034.00046  22215006.341    22215014.820
       231.000         186.000
  24144959.350    -9902554.89049  -7355232.02345  24144958.603    24144971.786
       212.000         152.000
  20495317.958   -23287243.80249 -18095591.62848  20495318.556    20495325.240
       246.000         216.000
  20866215.889    -5680618.26249  -4410463.47447  20866215.789    20866223.885
       241.000         207.000
  24035763.377    10791260.39149   8429224.54945  24035764.207    24035778.510
       209.000         147.000
  21001463.656   -20375280.79149 -15507168.75847  21001462.960    21001471.130
       241.000         207.000
  22113474.358   -20434598.59849 -15612887.48747  22113474.280    22113482.198
       234.000         190.000
 99  5 27 19 20  0.0000000  0  7G24G17G30G 5G 8G10G 6
  22228844.078     7961877.41349   6640697.61646  22228844.341    22228853.176
       231.000         186.000
  24129494.078    -9983824.75549  -7418559.06145  24129492.910    24129506.238
       212.000         153.000
  20493065.182   -23299082.17749 -18104816.35848  20493065.496    20493072.479
       246.000         216.000
  20877663.309    -5620462.04249  -4363588.58647  20877662.915    20877671.455
       241.000         207.000
  24052222.704    10877753.70649   8496621.67945  24052223.322    24052238.051
       210.000         147.000
  21002945.392   -20367494.23049 -15501101.30947  21002944.804    21002952.858
       240.000         207.000
  22101656.033   -20496704.31749 -15661281.53447  22101656.012    22101663.945
       234.000         191.000
 99  5 27 19 20 30.0000000  0  7G24G17G30G 5G 8G10G 6
  22242703.137     8034707.26849   6697448.08846  22242703.207    22242712.099
       231.000         185.000
  24114066.399   -10064897.41649  -7481732.43345  24114065.770    24114078.410
       213.000         153.000
  20490930.632   -23310299.31649 -18113557.00148  20490931.243    20490938.133
       246.000         216.000
  20889198.614    -5559843.79649  -4316353.66847  20889198.539    20889206.773
       241.000         207.000
  24068680.435    10964238.48349   8564012.13645  24068681.089    24068695.932
       209.000         146.000
  21004543.984   -20359093.63949 -15494555.38547  21004543.477    21004551.439
       240.000         207.000
  22089856.831   -20558709.68549 -15709597.37947  22089856.870    22089864.736
       234.000         191.000
 99  5 27 19 21  0.0000000  0  7G24G17G30G 5G 8G10G 6
  22256585.692     8107659.96349   6754294.27446  22256586.086    22256594.252
       232.000         185.000
  24098675.688   -10145775.47049  -7544754.17545  24098675.234    24098688.691
       214.000         153.000
  20488912.143   -23320906.75749 -18121822.56048  20488912.741    20488919.492
       246.000         216.000
  20900825.466    -5498744.66249  -4268744.04047  20900825.659    20900833.755
       241.000         207.000
  24085136.429    11050714.22749   8631395.56945  24085136.307    24085151.831
       210.000         146.000
  21006260.101   -20350075.40549 -15487528.18947  21006259.489    21006267.785
       240.000         207.000
  22078073.512   -20620631.35949 -15757848.00347  22078073.887    22078081.574
       234.000         191.000
 99  5 27 19 21 30.0000000  0  7G24G17G30G 5G 8G10G 6
  22270491.531     8180735.44849   6811236.14446  22270491.869    22270500.886
       232.000         185.000
  24083326.823   -10226434.00749  -7607604.86245  24083326.880    24083338.945
       212.000         154.000
  20487011.293   -23330896.07249 -18129606.46548  20487011.817    20487018.666
       247.000         216.000
  20912548.872    -5437138.08249  -4220739.00547  20912548.744    20912557.093
       241.000         206.000
  24101593.217    11137193.86249   8698782.02545  24101593.894    24101607.744
       209.000         145.000
  21008098.319   -20340415.50649 -15480000.99547  21008097.697    21008105.905
       241.000         207.000
  22066305.022   -20682474.93249 -15806037.77347  22066304.845    22066313.068
       234.000         191.000
 99  5 27 19 22  0.0000000  0  7G24G17G30G 5G 8G10G 6
  22284413.145     8253893.74649   6868242.53746  22284413.002    22284422.566
       232.000         185.000
  24068015.099   -10306897.50349  -7670303.56245  24068014.171    24068027.310
       213.000         155.000
  20485220.136   -23340308.65949 -18136940.96848  20485220.707    20485227.518
       247.000         216.000
  20924361.632    -5375061.99749  -4172368.11647  20924361.796    20924369.919
       241.000         206.000
  24118045.771    11223651.34949   8766151.23145  24118046.114    24118060.955
       207.000         145.000
  21010053.222   -20330142.33549 -15471995.92747  21010052.703    21010060.768
       240.000         207.000
  22054546.612   -20744265.60049 -15854186.31647  22054546.595    22054554.562
       233.000         192.000
 99  5 27 19 22 30.0000000  0  7G24G17G30G 5G 8G10G 6
  22298358.376     8327176.18149   6925345.66246  22298358.837    22298367.217
       231.000         184.000
  24052747.809   -10387127.02349  -7732819.93645  24052747.120    24052760.638
       212.000         154.000
  20483544.179   -23349116.04649 -18143803.88748  20483544.597    20483551.471
       246.000         216.000
  20936271.055    -5312477.91949  -4123601.38547  20936270.811    20936279.473
       240.000         206.000
  24134504.316    11310140.98949   8833545.49945  24134504.330    24134519.524
       209.000         145.000
  21012135.079   -20319202.20149 -15463471.14947  21012134.402    21012142.821
       240.000         207.000
  22042806.860   -20805957.89349 -15902258.20147  22042806.992    22042814.652
       234.000         192.000
 99  5 27 19 23  0.0000000  0  7G24G17G30G 5G 8G10G 6
  22312299.363     8400436.26349   6982431.37046  22312299.636    22312308.871
       230.000         184.000
  24037498.273   -10467263.25649  -7795263.62145  24037497.876    24037510.659
       212.000         155.000
  20481959.119   -23357445.64249 -18150294.49948  20481959.714    20481966.553
       246.000         217.000
  20948250.302    -5249526.67749  -4074548.55347  20948250.068    20948258.707
       240.000         205.000
  24150944.215    11396532.80549   8900863.54245  24150945.189    24150959.294
       209.000         145.000
  21014317.809   -20307731.68349 -15454533.08747  21014317.221    21014325.502
       241.000         207.000
  22031058.852   -20867693.99749 -15950364.23147  22031059.025    22031066.671
       234.000         192.000
 99  5 27 19 23 30.0000000  0  7G24G17G30G 5G 8G10G 6
  22326248.225     8473737.66349   7039549.27446  22326248.530    22326257.609
       231.000         183.000
  24022281.554   -10547227.11249  -7857572.97545  24022280.561    24022293.498
       213.000         155.000
  20480481.728   -23365209.50549 -18156344.28648  20480482.217    20480488.943
       247.000         217.000
  20960310.649    -5186149.26449  -4025163.64547  20960310.479    20960319.160
       240.000         205.000
  24167381.385    11482909.34849   8968169.67845  24167381.640    24167396.367
       210.000         146.000
  21016613.318   -20295668.86849 -15445133.50047  21016612.822    21016621.049
       240.000         207.000
  22019321.200   -20929375.59049 -15998427.77947  22019321.281    22019329.410
       234.000         192.000
 99  5 27 19 24  0.0000000  0  7G24G17G30G 5G 8G10G 6
  22340209.800     8547105.83449   7096719.21546  22340209.895    22340218.983
       231.000         183.000
  24007101.204   -10626999.77349  -7919733.35245  24007100.720    24007113.434
       212.000         155.000
  20479119.782   -23372366.73849 -18161921.37448  20479120.380    20479127.138
       247.000         217.000
  20972457.064    -5122319.90149  -3975426.56847  20972457.050    20972465.539
       240.000         205.000
  24183820.885    11569297.86349   9035485.15345  24183821.839    24183835.753
       209.000         147.000
  21019025.108   -20282994.85249 -15435257.65647  21019024.382    21019032.760
       240.000         207.000
  22007602.761   -20990956.34249 -16046412.74947  22007602.514    22007610.845
       233.000         192.000
 99  5 27 19 24 30.0000000  0  7G24G17G30G 5G 8G10G 6
  22354181.256     8620526.14249   7153929.77946  22354181.482    22354190.488
       231.000         183.000
  23991956.632   -10706584.19449  -7981747.05045  23991955.385    23991968.872
       213.000         155.000
  20477873.017   -23378918.69549 -18167026.81648  20477873.753    20477880.405
       247.000         217.000
  20984689.579    -5058038.03949  -3925336.89147  20984689.512    20984698.136
       240.000         205.000
  24200260.924    11655689.25449   9102802.86845  24200262.277    24200276.551
       211.000         147.000
  21021550.731   -20269722.54149 -15424915.60647  21021550.194    21021558.489
       240.000         207.000
  21995900.274   -21052453.24149 -16094332.37847  21995900.385    21995908.422
       234.000         192.000
 99  5 27 19 25  0.0000000  0  7G24G17G30G 5G 8G10G 6
  22368162.609     8693998.23949   7211180.69346  22368163.353    22368171.760
       230.000         182.000
  23976851.818   -10785959.88549  -8043598.09345  23976851.151    23976863.651
       212.000         155.000
  20476745.425   -23384844.31949 -18171644.20548  20476745.874    20476752.755
       247.000         217.000
  20997009.976    -4993294.31849  -3874887.32847  20997009.873    20997018.375
       240.000         205.000
  24216701.176    11742082.00549   9170121.64445  24216700.827    24216715.460
       209.000         145.000
  21024192.201   -20255841.64849 -15414099.33547  21024191.695    21024199.916
       241.000         207.000
  21984215.448   -21113857.49249 -16142179.81747  21984215.254    21984223.477
       234.000         192.000
 99  5 27 19 25 30.0000000  0  7G24G17G30G 5G 8G10G 6
  22382156.973     8767538.90349   7268485.03946  22382157.545    22382166.258
       231.000         182.000
  23961789.220   -10865114.06849  -8105276.52945  23961788.349    23961801.040
       214.000         156.000
  20475738.835   -23390134.14449 -18175766.17148  20475739.321    20475745.988
       247.000         217.000
  21009423.614    -4928060.51549  -3824055.89647  21009423.499    21009432.130
       240.000         205.000
  24233142.351    11828480.55549   9237444.93545  24233142.345    24233157.417
       208.000         144.000
  21026955.440   -20241320.94149 -15402784.51647  21026954.762    21026963.114
       240.000         207.000
  21972553.330   -21175142.23849 -16189934.14047  21972553.598    21972561.287
       234.000         193.000
 99  5 27 19 26  0.0000000  0  7G24G17G30G 5G 8G10G 6
  22396182.866     8841244.85149   7325917.96246  22396183.125    22396192.034
       230.000         182.000
  23946786.111   -10943955.47749  -8166711.48945  23946785.625    23946797.494
       216.000         155.000
  20474869.951   -23394700.00049 -18179324.00148  20474870.522    20474877.345
       247.000         217.000
  21021949.676    -4862235.95349  -3772764.12447  21021949.757    21021958.240
       240.000         205.000
  24249600.037    11914965.41549   9304835.24145  24249599.632    24249614.141
       209.000         142.000
  21029859.653   -20226059.17849 -15390892.24647  21029859.002    21029867.293
       241.000         207.000
  21960928.238   -21236232.62749 -16237537.01447  21960928.276    21960936.119
       234.000         193.000
 99  5 27 19 26 30.0000000  0  7G24G17G30G 5G 8G10G 6
  22410206.742     8914940.21149   7383342.84046  22410207.116    22410216.087
       231.000         182.000
  23931807.952   -11022666.12749  -8228044.30045  23931807.335    23931819.558
       215.000         157.000
  20474099.023   -23398751.44249 -18182480.99148  20474099.636    20474106.422
       246.000         217.000
  21034552.005    -4796010.67349  -3721160.10647  21034551.833    21034560.614
       239.000         204.000
  24266039.536    12001354.50249   9372151.24345  24266039.261    24266055.353
       206.000         144.000
  21032870.419   -20210237.60749 -15378563.76047  21032870.057    21032878.056
       241.000         207.000
  21949301.969   -21297329.07949 -16285144.61547  21949302.024    21949309.581
       235.000         193.000
 99  5 27 19 27  0.0000000  0  7G24G17G30G 5G 8G10G 6
  22424235.759     8988662.86349   7440788.99446  22424236.414    22424245.423
       231.000         182.000
  23916858.198   -11101227.80349  -8289261.04645  23916857.764    23916869.303
       215.000         157.000
  20473430.517   -23402264.59949 -18185218.54048  20473431.069    20473437.825
       247.000         217.000
  21047235.010    -4729361.36849  -3669225.67847  21047234.823    21047243.588
       240.000         204.000
  24282466.382    12087676.84049   9439415.20545  24282466.658    24282482.144
       209.000         144.000
  21035995.097   -20193817.31249 -15365768.74047  21035994.404    21036002.761
       241.000         207.000
  21937682.428   -21358390.20149 -16332724.68247  21937682.458    21937690.346
       234.000         193.000
 99  5 27 19 27 30.0000000  0  7G24G17G30G 5G 8G10G 6
  22438272.225     9062424.43749   7498265.47746  22438272.427    22438281.902
       230.000         182.000
  23901936.835   -11179640.07749  -8350361.38545  23901935.774    23901948.472
       216.000         157.000
  20472862.751   -23405248.58049 -18187543.74348  20472863.382    20472870.064
       247.000         217.000
  21059997.209    -4662296.21249  -3616967.21047  21059997.167    21060005.803
       240.000         204.000
  24298882.269    12173941.22349   9506634.00445  24298882.514    24298897.806
       210.000         144.000
  21039231.271   -20176811.22749 -15352517.25947  21039230.724    21039238.843
       241.000         207.000
  21926070.940   -21419408.82849 -16380271.64347  21926070.987    21926078.323
       234.000         193.000
 99  5 27 19 28  0.0000000  0  7G24G17G30G 5G 8G10G 6
  22452316.836     9136228.93249   7555775.40846  22452317.014    22452325.760
       230.000         181.000
  23887044.645   -11257898.29449  -8411341.65945  23887043.734    23887057.092
       214.000         157.000
  20472396.180   -23407700.56649 -18189454.40448  20472396.845    20472403.538
       247.000         217.000
  21072833.473    -4594841.78749  -3564405.40747  21072833.411    21072841.984
       240.000         204.000
  24315284.223    12260133.20949   9573796.40345  24315285.178    24315298.554
       206.000         144.000
  21042575.072   -20159239.63249 -15338825.11547  21042574.519    21042582.816
       240.000         207.000
  21914464.494   -21480401.00849 -16427797.99047  21914464.462    21914472.290
       234.000         193.000
 99  5 27 19 28 30.0000000  0  7G24G17G30G 5G 8G10G 6
  22466384.495     9210154.68049   7613379.81846  22466384.206    22466393.706
       230.000         181.000
  23872196.628   -11335924.36449  -8472141.04645  23872196.063    23872207.519
       217.000         157.000
  20472046.913   -23409536.01249 -18190884.64648  20472047.436    20472054.319
       247.000         217.000
  21085755.024    -4526938.76949  -3511494.06347  21085754.886    21085763.374
       240.000         204.000
  24331685.464    12346321.44749   9640955.89145  24331685.565    24331701.844
       207.000         143.000
  21046042.059   -20141020.38649 -15324628.31047  21046041.439    21046049.760
       241.000         207.000
  21902879.389   -21541280.91149 -16475236.85347  21902879.252    21902887.246
       234.000         193.000
 99  5 27 19 29  0.0000000  0  7G24G17G30G 5G 8G10G 6
  22480447.514     9284056.08649   7670965.26446  22480447.440    22480456.360
       231.000         180.000
  23857368.030   -11413848.68649  -8532861.15545  23857366.829    23857379.773
       215.000         158.000
  20471792.352   -23410873.75749 -18191927.06848  20471792.793    20471799.860
       247.000         217.000
  21098734.000    -4458734.21349  -3458347.75347  21098733.920    21098742.654
       239.000         203.000
  24348056.473    12432350.81249   9707991.58545  24348056.241    24348071.343
       209.000         143.000
  21049603.507   -20122304.86149 -15310044.78947  21049603.033    21049611.222
       241.000         207.000
  21891291.860   -21602173.39649 -16522685.52147  21891291.794    21891299.396
       235.000         193.000
 99  5 27 19 29 30.0000000  0  7G24G17G30G 5G 8G10G 6
  22494525.747     9358037.44349   7728613.01046  22494526.204    22494535.006
       229.000         180.000
  23842581.360   -11491552.48849  -8593409.42945  23842580.585    23842592.905
       217.000         158.000
  20471654.635   -23411597.46049 -18192491.01648  20471655.038    20471661.983
       246.000         217.000
  21111792.461    -4390111.73749  -3404875.79647  21111792.490    21111800.984
       239.000         203.000
  24364414.161    12518310.71549   9774973.14345  24364414.297    24364430.097
       204.000         143.000
  21053276.668   -20103002.45349 -15295003.95947  21053276.150    21053284.319
       241.000         207.000
  21879722.560   -21662970.30749 -16570059.71847  21879722.293    21879730.586
       234.000         194.000
 99  5 27 19 30  0.0000000  0  7G24G17G30G 5G 8G10G 6
  22508621.905     9432113.02649   7786334.17546  22508622.535    22508631.063
       230.000         180.000
  23827838.290   -11569027.23349  -8653779.21245  23827837.661    23827850.536
       215.000         158.000
  20471638.091   -23411684.61949 -18192558.95748  20471638.460    20471645.295
       247.000         217.000
  21124936.067    -4321041.95949  -3351055.28747  21124936.081    21124944.742
       239.000         203.000
  24380759.208    12604203.56249   9841902.43745  24380759.312    24380774.581
       206.000         142.000
  21057065.830   -20083090.29349 -15279487.99747  21057065.257    21057073.456
       241.000         207.000
  21868174.064   -21723657.55649 -16617348.46647  21868173.838    21868181.896
       235.000         194.000
 99  5 27 19 30 30.0000000  0  7G24G17G30G 5G 8G10G 6
  22522730.949     9506256.29149   7844108.08146  22522730.678    22522739.816
       229.000         179.000
  23813136.661   -11646283.99149  -8713979.13445  23813136.349    23813148.598
       216.000         158.000
  20471739.798   -23411150.02949 -18192142.41748  20471740.329    20471747.244
       247.000         217.000
  21138164.807    -4251524.86649  -3296886.22547  21138165.023    21138173.508
       239.000         202.000
  24397091.149    12690027.69249   9908778.17645  24397092.065    24397105.370
       207.000         143.000
  21060967.910   -20062584.80049 -15263509.69547  21060967.266    21060975.800
       240.000         207.000
  21856646.664   -21784234.50549 -16664551.26247  21856646.878    21856654.533
       234.000         194.000
 99  5 27 19 31  0.0000000  0  7G24G17G30G 5G 8G10G 6
  22536848.096     9580442.35849   7901915.34346  22536848.055    22536857.523
       229.000         179.000
  23798472.480   -11723344.01249  -8774025.75145  23798471.611    23798483.987
       216.000         158.000
  20471954.806   -23410020.32349 -18191262.14948  20471955.340    20471962.157
       247.000         217.000
  21151475.526    -4181577.11549  -3242381.58247  21151475.538    21151484.232
       239.000         202.000
  24413405.969    12775762.06249   9975583.98545  24413405.511    24413421.857
       209.000         143.000
  21064977.337   -20041515.13449 -15247091.77047  21064976.720    21064985.180
       240.000         207.000
  21845137.166   -21844717.32949 -16711680.71247  21845137.306    21845144.835
       235.000         194.000
 99  5 27 19 31 30.0000000  0  7G24G17G30G 5G 8G10G 6
  22550979.379     9654702.30849   7959780.16846  22550979.582    22550988.921
       228.000         179.000
  23783848.665   -11800192.08049  -8833907.21945  23783848.544    23783860.920
       217.000         159.000
  20472287.869   -23408270.20249 -18189898.44548  20472288.350    20472295.097
       246.000         217.000
  21164872.342    -4111176.83349  -3187524.32447  21164872.244    21164881.127
       239.000         202.000
  24429708.604    12861432.44349  10042339.91245  24429708.315    24429724.936
       209.000         142.000
  21069101.380   -20019843.07949 -15230204.45547  21069100.725    21069108.660
       241.000         206.000
  21833649.019   -21905087.98849 -16758722.76047  21833649.139    21833656.620
       235.000         195.000
 99  5 27 19 32  0.0000000  0  7G24G17G30G 5G 8G10G 6
  22565125.605     9729040.89949   8017706.28646  22565126.218    22565134.710
       228.000         179.000
  23769267.318   -11876817.07749  -8893614.87445  23769266.579    23769279.095
       217.000         160.000
  20472742.111   -23405883.17849 -18188038.45148  20472742.625    20472749.518
       246.000         217.000
  21178355.745    -4040321.43549  -3132312.42547  21178355.470    21178364.472
       239.000         202.000
  24446002.967    12947058.87649  10109061.58445  24446003.444    24446019.040
       206.000         142.000
  21073344.904   -19997543.15949 -15212827.89747  21073344.287    21073352.484
       240.000         206.000
  21822184.719   -21965333.20849 -16805667.06047  21822184.806    21822192.624
       236.000         195.000
 99  5 27 19 32 30.0000000  0  7G24G17G30G 5G 8G10G 6
  22579276.093     9803401.68249   8075649.68246  22579276.362    22579285.799
       228.000         179.000
  23754722.088   -11953252.08349  -8953174.47945  23754721.758    23754733.704
       216.000         160.000
  20473307.522   -23402911.94649 -18185723.23248  20473308.004    20473314.947
       247.000         217.000
  21191913.250    -3969076.48949  -3076796.98147  21191913.044    21191922.082
       239.000         201.000
  24462281.240    13032601.30349  10175717.76945  24462282.804    24462296.905
       205.000         142.000
  21077700.589   -19974653.86949 -15194992.08647  21077700.062    21077708.203
       241.000         206.000
  21810737.712   -22025487.71949 -16852540.68347  21810737.441    21810745.544
       236.000         196.000
 99  5 27 19 33  0.0000000  0  7G24G17G30G 5G 8G10G 6
  22593437.340     9877819.25649   8133637.33346  22593437.209    22593446.496
       227.000         178.000
  23740215.826   -12029482.47749  -9012574.64845  23740214.531    23740227.835
       215.000         160.000
  20473988.492   -23399333.63449 -18182934.96348  20473989.012    20473995.750
       247.000         217.000
  21205548.539    -3897422.91549  -3020963.12747  21205548.744    21205557.595
       238.000         201.000
  24478547.125    13118077.85949  10242322.63545  24478547.684    24478562.893
       205.000         141.000
  21082176.324   -19951133.69249 -15176664.68047  21082175.873    21082183.907
       240.000         206.000
  21799312.246   -22085529.06849 -16899326.12447  21799312.290    21799319.931
       236.000         196.000
